[[{"header":{"parameterUnit":"m.s-1","parameterCategory":1,"la1":30.6,"la2":28.766,"lo1":-90.7593,"lo2":-88.6598,"dy":0.0162,"dx":0.0183,"nx":116,"ny":114,"refTime":"2023-08-21T06:00:00:Z","depth":0,"parameterNumber":2,"parameterNumberName":"U-component_of_WINDS"},"data":[0.0,0.0,0.0,0.0,0.0,0.0,0.0,0.0,0.0,0.0,0.0,0.0,0.0,0.0,0.0,0.0,0.0,0.0,0.0,0.0,0.0,0.0,0.0,0.0,0.0,0.0,0.0,0.0,0.0,0.0,0.0,0.0,0.0,0.0,0.0,0.0,0.0,0.0,0.0,0.0,0.0,0.0,0.0,0.0,0.0,0.0,0.0,0.0,0.0,0.0,0.0,0.0,0.0,0.0,0.0,0.0,0.0,0.0,0.0,0.0,0.0,0.0,0.0,0.0,0.0,0.0,0.0,0.0,0.0,0.0,0.0,0.0,0.0,0.0,0.0,0.0,0.0,0.0,0.0,0.0,0.0,0.0,0.0,0.0,0.0,0.0,0.0,0.0,0.0,0.0,0.0,0.0,0.0,0.0,0.0,0.0,0.0,0.0,0.0,0.0,0.0,0.0,0.0,0.0,0.0,0.0,0.0,0.0,0.0,0.0,0.0,0.0,0.0,0.0,0.0,0.0,0.0,0.0,0.0,0.0,0.0,0.0,0.0,0.0,0.0,0.0,0.0,0.0,0.0,0.0,0.0,0.0,0.0,0.0,0.0,0.0,0.0,0.0,0.0,0.0,0.0,0.0,0.0,0.0,0.0,0.0,0.0,0.0,0.0,0.0,0.0,0.0,0.0,0.0,0.0,0.0,0.0,0.0,0.0,0.0,0.0,0.0,0.0,0.0,0.0,0.0,0.0,0.0,0.0,0.0,0.0,0.0,0.0,0.0,0.0,0.0,0.0,0.0,0.0,0.0,0.0,0.0,0.0,0.0,0.0,0.0,0.0,0.0,0.0,0.0,0.0,0.0,0.0,0.0,0.0,0.0,0.0,0.0,0.0,0.0,0.0,0.0,0.0,0.0,0.0,0.0,0.0,0.0,0.0,0.0,0.0,0.0,0.0,0.0,0.0,0.0,0.0,0.0,0.0,0.0,0.0,0.0,0.0,0.0,0.0,0.0,0.0,0.0,0.0,0.0,0.0,0.0,0.0,0.0,0.0,0.0,0.0,0.0,0.0,0.0,0.0,0.0,0.0,0.0,0.0,0.0,0.0,0.0,0.0,0.0,0.0,0.0,0.0,0.0,0.0,0.0,0.0,0.0,0.0,0.0,0.0,0.0,0.0,0.0,0.0,0.0,0.0,0.0,0.0,0.0,0.0,0.0,0.0,0.0,0.0,0.0,0.0,0.0,0.0,0.0,0.0,0.0,0.0,0.0,0.0,0.0,0.0,0.0,0.0,0.0,0.0,0.0,0.0,0.0,0.0,0.0,0.0,0.0,0.0,0.0,0.0,0.0,0.0,0.0,0.0,0.0,0.0,0.0,0.0,0.0,0.0,0.0,0.0,0.0,0.0,0.0,0.0,0.0,0.0,0.0,0.0,0.0,0.0,0.0,0.0,0.0,0.0,0.0,0.0,0.0,0.0,0.0,0.0,0.0,0.0,0.0,0.0,0.0,0.0,0.0,0.0,0.0,0.0,0.0,0.0,0.0,0.0,0.0,0.0,0.0,0.0,0.0,0.0,0.0,0.0,0.0,0.0,0.0,0.0,0.0,0.0,0.0,0.0,0.0,0.0,0.0,0.0,0.0,0.0,0.0,0.0,0.0,0.0,0.0,0.0,0.0,0.0,0.0,0.0,0.0,0.0,0.0,0.0,0.0,0.0,0.0,0.0,0.0,0.0,0.0,0.0,0.0,0.0,0.0,0.0,0.0,0.0,0.0,0.0,0.0,0.0,0.0,0.0,0.0,0.0,0.0,0.0,0.0,0.0,0.0,0.0,0.0,0.0,0.0,0.0,0.0,0.0,0.0,0.0,0.0,0.0,0.0,0.0,0.0,0.0,0.0,0.0,0.0,0.0,0.0,0.0,0.0,0.0,0.0,0.0,0.0,0.0,0.0,0.0,0.0,0.0,0.0,0.0,0.0,0.0,0.0,0.0,0.0,0.0,0.0,0.0,0.0,0.0,0.0,0.0,0.0,0.0,0.0,0.0,0.0,0.0,0.0,0.0,0.0,0.0,0.0,0.0,0.0,0.0,0.0,0.0,0.0,0.0,0.0,0.0,0.0,0.0,0.0,0.0,0.0,0.0,0.0,0.0,0.0,0.0,0.0,0.0,0.0,0.0,0.0,0.0,0.0,0.0,0.0,0.0,0.0,0.0,0.0,0.0,0.0,0.0,0.0,0.0,0.0,0.0,0.0,0.0,0.0,0.0,0.0,0.0,0.0,0.0,0.0,0.0,0.0,0.0,0.0,0.0,0.0,0.0,0.0,0.0,0.0,0.0,0.0,0.0,0.0,0.0,0.0,0.0,0.0,0.0,0.0,0.0,0.0,0.0,0.0,0.0,0.0,0.0,0.0,0.0,0.0,0.0,0.0,0.0,0.0,0.0,0.0,0.0,0.0,0.0,0.0,0.0,0.0,0.0,0.0,0.0,0.0,0.0,0.0,0.0,0.0,0.0,0.0,0.0,0.0,0.0,0.0,0.0,0.0,0.0,0.0,0.0,0.0,0.0,0.0,0.0,0.0,0.0,0.0,0.0,0.0,0.0,0.0,0.0,0.0,0.0,0.0,0.0,0.0,0.0,0.0,0.0,0.0,0.0,0.0,0.0,0.0,0.0,0.0,0.0,0.0,0.0,0.0,0.0,0.0,0.0,0.0,0.0,0.0,0.0,0.0,0.0,0.0,0.0,0.0,0.0,0.0,0.0,0.0,0.0,0.0,0.0,0.0,0.0,0.0,0.0,0.0,0.0,0.0,0.0,0.0,0.0,0.0,0.0,0.0,0.0,0.0,0.0,0.0,0.0,0.0,0.0,0.0,0.0,0.0,0.0,0.0,0.0,0.0,0.0,0.0,0.0,0.0,0.0,0.0,0.0,0.0,0.0,0.0,0.0,0.0,0.0,0.0,0.0,0.0,0.0,0.0,0.0,0.0,0.0,0.0,0.0,0.0,0.0,0.0,0.0,0.0,0.0,0.0,0.0,0.0,0.0,0.0,0.0,0.0,0.0,0.0,0.0,0.0,0.0,0.0,0.0,0.0,0.0,0.0,0.0,0.0,0.0,0.0,0.0,0.0,0.0,0.0,0.0,0.0,0.0,0.0,0.0,0.0,0.0,0.0,0.0,0.0,0.0,0.0,0.0,0.0,0.0,0.0,0.0,0.0,0.0,0.0,0.0,0.0,0.0,0.0,0.0,0.0,0.0,0.0,0.0,0.0,0.0,0.0,0.0,0.0,0.0,0.0,0.0,0.0,0.0,0.0,0.0,0.0,0.0,0.0,0.0,0.0,0.0,0.0,0.0,0.0,0.0,0.0,0.0,0.0,0.0,0.0,0.0,0.0,0.0,0.0,0.0,0.0,0.0,0.0,0.0,0.0,0.0,0.0,0.0,0.0,0.0,0.0,0.0,0.0,0.0,0.0,0.0,0.0,0.0,0.0,0.0,0.0,0.0,0.0,0.0,0.0,0.0,0.0,0.0,0.0,0.0,0.0,0.0,0.0,0.0,0.0,0.0,0.0,0.0,0.0,0.0,0.0,0.0,0.0,0.0,0.0,0.0,0.0,0.0,0.0,0.0,0.0,0.0,0.0,0.0,0.0,0.0,0.0,0.0,0.0,0.0,0.0,0.0,0.0,0.0,0.0,0.0,0.0,0.0,0.0,0.0,0.0,0.0,0.0,0.0,0.0,0.0,0.0,0.0,0.0,0.0,0.0,0.0,0.0,0.0,0.0,0.0,0.0,0.0,0.0,0.0,0.0,0.0,0.0,0.0,0.0,0.0,0.0,0.0,0.0,0.0,0.0,0.0,0.0,0.0,0.0,0.0,0.0,0.0,0.0,0.0,0.0,0.0,0.0,0.0,0.0,0.0,0.0,0.0,0.0,0.0,0.0,0.0,0.0,0.0,0.0,0.0,0.0,0.0,0.0,0.0,0.0,0.0,0.0,0.0,0.0,0.0,0.0,0.0,0.0,0.0,0.0,0.0,0.0,0.0,0.0,0.0,0.0,0.0,0.0,0.0,0.0,0.0,0.0,0.0,0.0,0.0,0.0,0.0,0.0,0.0,0.0,0.0,0.0,0.0,0.0,0.0,0.0,0.0,0.0,0.0,0.0,0.0,0.0,0.0,0.0,0.0,0.0,0.0,0.0,0.0,0.0,0.0,0.0,0.0,0.0,0.0,0.0,0.0,0.0,0.0,0.0,0.0,0.0,0.0,0.0,0.0,0.0,0.0,0.0,0.0,0.0,0.0,0.0,0.0,0.0,0.0,0.0,0.0,0.0,0.0,0.0,0.0,0.0,0.0,0.0,0.0,0.0,0.0,0.0,0.0,0.0,0.0,0.0,0.0,0.0,0.0,0.0,0.0,0.0,0.0,0.0,0.0,0.0,0.0,0.0,0.0,0.0,0.0,0.0,0.0,0.0,0.0,0.0,0.0,0.0,0.0,0.0,0.0,0.0,0.0,0.0,0.0,0.0,0.0,0.0,0.0,0.0,0.0,0.0,0.0,0.0,0.0,0.0,0.0,0.0,0.0,0.0,0.0,0.0,0.0,0.0,0.0,0.0,0.0,0.0,0.0,0.0,0.0,0.0,0.0,0.0,0.0,0.0,0.0,0.0,0.0,0.0,0.0,0.0,0.0,0.0,0.0,0.0,0.0,0.0,0.0,0.0,0.0,0.0,0.0,0.0,0.0,0.0,0.0,0.0,0.0,0.0,0.0,0.0,0.0,0.0,0.0,0.0,0.0,0.0,0.0,0.0,0.0,0.0,0.0,0.0,0.0,0.0,0.0,0.0,0.0,0.0,0.0,0.0,0.0,0.0,0.0,0.0,0.0,0.0,0.0,0.0,0.0,0.0,0.0,0.0,0.0,0.0,0.0,0.0,0.0,0.0,0.0,0.0,0.0,0.0,0.0,0.0,0.0,0.0,0.0,0.0,0.0,0.0,0.0,0.0,0.0,0.0,0.0,0.0,0.0,0.0,0.0,0.0,0.0,0.0,0.0,0.0,0.0,0.0,0.0,0.0,0.0,0.0,0.0,0.0,0.0,0.0,0.0,0.0,0.0,0.0,0.0,0.0,0.0,0.0,0.0,0.0,0.0,0.0,0.0,0.0,0.0,0.0,0.0,0.0,0.0,0.0,0.0,0.0,0.0,0.0,0.0,0.0,0.0,0.0,0.0,0.0,0.0,0.0,0.0,0.0,0.0,0.0,0.0,0.0,0.0,0.0,0.0,0.0,0.0,0.0,0.0,0.0,0.0,0.0,0.0,0.0,0.0,0.0,0.0,0.0,0.0,0.0,0.0,0.0,0.0,0.0,0.0,0.0,0.0,0.0,0.0,0.0,0.0,0.0,0.0,0.0,0.0,0.0,0.0,0.0,0.0,0.0,0.0,0.0,0.0,0.0,0.0,0.0,0.0,0.0,0.0,0.0,0.0,0.0,0.0,0.0,0.0,0.0,0.0,0.0,0.0,0.0,0.0,0.0,0.0,0.0,0.0,0.0,0.0,0.0,0.0,0.0,0.0,0.0,0.0,0.0,0.0,0.0,0.0,0.0,0.0,0.0,0.0,0.0,0.0,0.0,0.0,0.0,0.0,0.0,0.0,0.0,0.0,0.0,0.0,0.0,0.0,0.0,0.0,0.0,0.0,0.0,0.0,0.0,0.0,0.0,0.0,0.0,0.0,0.0,0.0,0.0,0.0,0.0,0.0,0.0,0.0,0.0,0.0,0.0,0.0,0.0,0.0,0.0,0.0,0.0,0.0,0.0,0.0,0.0,0.0,0.0,0.0,0.0,0.0,0.0,0.0,0.0,0.0,0.0,0.0,0.0,0.0,0.0,0.0,0.0,0.0,0.0,0.0,0.0,0.0,0.0,0.0,0.0,0.0,0.0,0.0,0.0,0.0,0.0,0.0,0.0,0.0,0.0,0.0,0.0,0.0,0.0,0.0,0.0,0.0,0.0,0.0,0.0,0.0,0.0,0.0,0.0,0.0,0.0,0.0,0.0,0.0,0.0,0.0,0.0,0.0,0.0,0.0,0.0,0.0,0.0,0.0,0.0,0.0,0.0,0.0549,0.0494,0.0,0.0,0.0,0.0,0.0,0.0,0.0,0.0,0.0,0.0,0.0,0.0,0.0,0.0,0.0,0.0,0.0,0.0,0.0,0.0,0.0,0.0,0.0,0.0,0.0,0.0,0.0,0.0,0.0,0.0,0.0,0.0,0.0,0.0,0.0,0.0,0.0,0.0,0.0,0.0,0.0,0.0,0.0,0.0,0.0,0.0,0.0,0.0,0.0,0.0,0.0,0.0,0.0,0.0,0.0,0.0,0.0,0.0,0.0,0.0,0.0,0.0,0.0,0.0,0.0,0.0,0.0,0.0,0.0,0.0,0.0,0.0,0.0,0.0,0.0,0.0,0.0,0.0,0.0,0.0,0.0,0.0,0.0,0.0,0.0,0.0,0.0,0.0,0.0,0.0,0.0,0.0,0.0,0.0,0.0,0.0,0.0,0.0,0.0,0.0,0.0,0.0,0.0,0.0,0.0,0.0,0.0,0.0,0.0,0.0,0.0,0.0,0.0,0.0,0.0336,0.0449,0.0,0.0,0.0,0.0,0.0,0.0,0.0,0.0,0.0,0.0,0.0,0.0,0.0,0.0,0.0,0.0,0.0,0.0,0.0,0.0,0.0,0.0,0.0,0.0,0.0,0.0,0.0,0.0,0.0,0.0,0.0,0.0,0.0,0.0,0.0,0.0,0.0,0.0,0.0,0.0,0.0,0.0,0.0,0.0,0.0,0.0,0.0,0.0,0.0,0.0,0.0,0.0,0.0,0.0,0.0,0.0,0.0,0.0,0.0,0.0,0.0,0.0,0.0,0.0,0.0,0.0,0.0,0.0,0.0,0.0,0.0,0.0,0.0,0.0,0.0,0.0,0.0,0.0,0.0,0.0,0.0,0.0,0.0,0.0,0.0,0.0,0.0,0.0,0.0,0.0,0.0,0.0,0.0,0.0,0.0,0.0,0.0,0.0,0.0,0.0,0.0,0.0,0.0,0.0,0.0,0.0,0.0,0.0,-0.0,-0.0,-0.0,-0.0,-0.0,-0.0,-0.0,0.0283,0.0729,0.0336,0.0,0.0,0.0,0.0,0.0,0.0,0.0,0.0,0.0,0.0,0.0,0.0,0.0,0.0,0.0,0.0,0.0,0.0,0.0,0.0,0.0,0.0,-0.3705,-0.3701,-0.2884,-0.2361,0.0,0.0,0.0,0.0,0.0,0.0,0.0,0.0,0.0,0.0,0.0,0.0,-0.0818,-0.0818,-0.0847,-0.0899,-0.085,0.0,0.0,0.0,0.0,0.0,0.0,0.0,0.0,0.0,0.0,0.0,0.0,0.0,0.0,0.0,0.0,0.0,0.0,0.0,0.0,0.0,0.0,0.0,0.0,0.0,0.0,0.0,0.0,0.0,0.0,0.0,0.0,0.0,0.0,0.0,0.0,0.0,0.0,0.0,0.0,0.0,0.0,0.0,0.3205,0.3279,0.0,0.0,0.0,0.0,0.0,0.0,0.0,0.0,0.0,0.0,0.0,0.0,0.0,-0.0,-0.0,-0.0,-0.0,-0.0,-0.0,-0.0,-0.0,-0.0,-0.0,-0.0,-0.0,0.0,0.0168,0.0617,0.0,0.0,0.0,0.0,0.0,0.0,0.0,0.0,0.0,0.0,0.0,0.0,0.0,0.0,0.0,0.0,0.0,0.0,0.0,0.0,0.0,-0.3829,-0.3496,-0.3517,-0.2839,-0.2309,-0.2119,0.0,0.0,0.0,0.0,0.0,0.0,0.0,0.0,0.0,-0.0791,-0.0769,-0.0814,-0.0814,-0.0846,-0.0903,-0.096,-0.0688,-0.0118,0.036,0.0,0.0,0.0,0.0,0.0,0.0,0.0,0.0,0.0,0.0,0.0,0.0,0.0,0.0,0.0,0.0,0.0,0.0,0.0,0.0,0.0,0.0,0.0,0.0,0.0,0.0,0.0,0.0,0.0,0.0,0.0,0.0,0.0,0.0,0.0,0.0,0.0,0.0,0.0,0.3273,0.325,0.3422,0.2277,0.1971,0.0,0.0,0.0,0.0,0.0,0.0,0.0,0.0,0.0,-0.0,-0.0,-0.0,-0.0,-0.0,-0.0,-0.0,-0.0,-0.0,-0.0,-0.0,-0.0,-0.0,-0.0,-0.0,-0.0,0.0296,0.0237,-0.0,0.0,0.0,0.0,0.0,0.0469,0.0808,0.0,0.0,0.0,0.0,0.0,0.0,0.0,0.0,0.0,0.0,0.0,0.0,-0.414,-0.3605,-0.3249,-0.3205,-0.2716,-0.2273,-0.201,0.0,0.0,0.0,0.0,0.0,0.0,0.0,0.0,0.0,-0.0828,-0.0813,-0.081,-0.0872,-0.0908,-0.0906,-0.0906,-0.0845,-0.0604,0.0742,0.1067,0.0,0.0,0.0,0.0,0.0,0.0,0.0,0.0,0.0,0.0,0.0,0.0,0.0,0.0,0.0,0.0,0.0,0.0,0.0,0.0,0.0,0.0,0.0,0.0,0.0,0.0,0.0,0.0,0.0,0.0,0.0,0.0,0.0,0.0,0.0,0.0,0.0,0.0,0.3348,0.3271,0.3125,0.1847,0.1401,0.0,0.0,0.0,0.0,0.0,0.0,0.0118,-0.0,-0.0,-0.0,-0.0,-0.0,-0.0,-0.0,-0.0,-0.0,-0.0,-0.0,-0.0,-0.0,-0.0,-0.0,-0.0,-0.0,-0.0,-0.0,-0.0,-0.0,-0.0,-0.0,-0.0,-0.0,0.0304,0.0775,0.0,0.0,0.0,0.0,0.0,0.0,0.0,0.0,0.0,0.0,0.0,-0.3649,-0.3649,-0.3208,-0.2851,-0.276,-0.2364,-0.2099,-0.201,-0.2055,0.0,0.0,0.0,0.0,0.0,0.0,0.0,-0.0813,-0.0872,-0.0918,-0.0896,-0.0925,-0.091,-0.0965,-0.0579,-0.0321,-0.0064,0.0064,0.1636,0.3835,0.0,0.0,0.0,0.0,0.0,0.0,0.0,0.0,0.0,0.0,0.0,0.0,0.0,0.0,0.0,0.0,0.0,0.0,0.0,0.0,0.0,0.0,0.0,0.0,0.0,0.0,0.0,0.0,0.0,0.0,0.0,0.0,0.0,0.0,0.0,0.0,0.0,0.0,0.0,0.2014,0.2805,0.0,0.0,0.0,0.0,0.0353,0.0176,0.0118,-0.0,-0.0,-0.0,-0.0,-0.0,-0.0,-0.0,-0.0,-0.0,-0.0,-0.0,-0.0,-0.0,-0.0,-0.0,-0.0,-0.0,-0.0,-0.0,-0.0,-0.0,-0.0,-0.0,-0.0,-0.0,-0.0,0.0185,0.0431,0.0,0.0,0.0,0.0,0.0,0.0,0.0,0.0,0.0,-0.4316,-0.3873,-0.3697,-0.4005,-0.3211,-0.2768,-0.3117,-0.2588,-0.2144,-0.1875,-0.2275,0.0,0.0,0.0,0.0,0.0,0.0,-0.0802,-0.0851,-0.0871,-0.0917,-0.0986,-0.0934,-0.1023,-0.1063,-0.0598,-0.0531,-0.0663,-0.0199,0.0601,0.1415,0.0404,-0.0,0.0,0.0,0.0,0.0,0.0,0.0,0.0,0.0,0.0,0.0,0.0,0.0,0.0,0.0,0.0,0.0,0.0,0.0,0.0,0.0,0.0,0.0,0.0,0.0,0.0,0.0,0.0,0.0,0.0,0.0,0.0,0.0,0.0,0.0,0.0,0.0,0.0,0.1959,0.1512,0.0,0.2249,0.1701,0.0921,0.0059,-0.0,-0.0,-0.0,-0.0,-0.0,-0.0,-0.0,-0.0,-0.0,-0.0,-0.0,-0.0,-0.0,-0.0,-0.0,-0.0,-0.0,-0.0,-0.0,-0.0,-0.0,-0.0,-0.0,-0.0,-0.0,-0.1112,-0.2551,-0.0654,0.0065,0.0127,0.0,0.0,0.0,0.0,0.0,0.0,0.0,0.0,0.0,-0.4096,-0.3785,-0.3653,-0.3829,-0.3123,-0.2768,-0.3117,-0.2588,-0.2188,-0.2097,-0.2495,0.0,0.0,0.0,0.0,0.0,-0.1015,-0.0847,-0.0898,-0.0928,-0.0974,-0.0969,-0.1044,-0.1059,-0.1079,-0.0742,-0.0742,-0.0877,-0.027,-0.0,-0.0,-0.0,-0.0,-0.0,0.0,0.0,0.0,0.0,0.0,0.0,0.0,0.0,0.0,0.0,0.0,0.0,0.0,0.0,0.0,0.0,0.0,0.0,0.0,0.0,0.0,0.0,0.0,0.0,0.0,0.0,0.0,0.0,0.0,0.0,0.0,0.0,0.0,0.0,0.2695,0.2417,0.2413,0.0962,0.0628,0.2229,0.0931,-0.0,-0.0,-0.0912,-0.1052,-0.0064,-0.0,-0.0,-0.0,-0.0939,-0.1482,-0.1482,-0.1019,-0.0819,-0.0819,-0.0964,-0.1037,-0.1037,-0.1037,-0.0968,-0.083,-0.083,-0.055,-0.0,-0.0,-0.0,-0.0,-0.0,-0.1753,-0.4061,-0.2159,-0.0866,-0.0,0.0,0.0,0.0,0.0,0.0,0.0,0.0,0.0,-0.414,-0.3653,-0.3605,-0.3385,-0.2943,-0.2898,-0.2854,-0.2763,-0.2319,-0.223,-0.2672,-0.2721,0.0,0.0,0.0,0.0,-0.1721,-0.121,-0.0928,-0.0957,-0.1052,-0.1099,-0.11,-0.1129,-0.1144,-0.1146,-0.1079,-0.0877,-0.0472,-0.0202,-0.0,-0.0,-0.0,-0.0,-0.0,0.0,0.0,0.0,0.0,0.0,0.0,0.0,0.0,0.0,0.0,0.0,0.0,0.0,0.0,0.0,0.0,0.0,0.0,0.0,0.0,0.0,0.0,0.0,0.0,0.0,0.0,0.0,0.0,0.0,0.0,0.0,0.0,0.0,0.2145,0.0954,0.0898,0.3217,0.1446,-0.0,-0.0,-0.0,-0.0065,-0.0129,-0.2648,-0.2974,-0.0259,-0.0065,-0.0065,-0.013,-0.2863,-0.4336,-0.4338,-0.3188,-0.2592,-0.2592,-0.3017,-0.3197,-0.3197,-0.3197,-0.2978,-0.2613,-0.2613,-0.1647,-0.014,-0.007,-0.0069,-0.0067,-0.0,-0.1687,-0.4204,-0.4274,-0.2499,-0.0,0.0,0.0,0.0,0.0,0.0,0.0,0.0,0.0,-0.3968,-0.3517,-0.3252,-0.312,-0.3126,-0.2904,-0.2993,-0.366,-0.3303,-0.3078,-0.3205,0.0,0.0,0.0,0.0,0.0,-0.2036,-0.1838,-0.1987,-0.2539,-0.2603,-0.2599,-0.2588,-0.2072,-0.1813,-0.1814,-0.1347,-0.1012,-0.0944,-0.0809,-0.0472,-0.0,-0.0,-0.0,-0.0,0.0,0.0,0.0,0.0,0.0,0.0,0.0,0.0,0.0,0.0,0.0,0.0,0.0,0.0,0.0,0.0,0.0,0.0,0.0,0.0,0.0,0.0,0.0,0.0,0.0,0.0,0.0,0.0,0.0,0.0,0.0,0.318,0.2958,0.3159,0.1741,0.0736,0.0986,0.041,-0.0,-0.0,-0.0,-0.0883,-0.2968,-0.1938,-0.1759,-0.3064,-0.1132,-0.1142,-0.3575,-0.4375,-0.4714,-0.4583,-0.425,-0.419,-0.4336,-0.4729,-0.511,-0.5406,-0.5406,-0.5334,-0.5258,-0.4887,-0.4354,-0.3526,-0.2112,-0.153,-0.1451,-0.0407,-0.0472,-0.1413,-0.3518,-0.2499,-0.0,0.0,0.0,0.0,0.0,0.0,0.0,0.0,0.0,-0.3928,-0.3476,-0.3296,-0.3211,-0.3214,-0.3126,-0.3347,-0.402,-0.366,-0.352,-0.3781,0.0,0.0,0.0,0.0,-0.2204,-0.2565,-0.2561,-0.2806,-0.3275,-0.3249,-0.323,-0.3215,-0.2748,-0.2414,-0.2079,-0.168,-0.1346,-0.1078,-0.1079,-0.0742,-0.0202,-0.0067,-0.0,-0.0,-0.0,-0.0,0.0202,0.1887,0.2227,0.1619,0.0404,0.0,0.0,0.0,0.0,0.0,0.0,0.0,0.0,0.0,0.0,0.0,0.0,0.0,0.0,0.0,0.0,0.0,0.0,0.0,0.0,0.0,0.0,0.0,0.0,0.2939,0.3333,0.259,0.1318,0.0406,0.006,-0.0,-0.0,-0.0,-0.1082,-0.252,-0.4151,-0.2759,-0.1983,-0.249,-0.1767,-0.2415,-0.4938,-0.4915,-0.4828,-0.4748,-0.4792,-0.4891,-0.5041,-0.5538,-0.5871,-0.6101,-0.6254,-0.6254,-0.6101,-0.5868,-0.5612,-0.5255,-0.3851,-0.3207,-0.279,0.0,0.0,0.0,0.0,-0.1417,-0.0,0.0,0.0,0.0,0.0,0.0,0.0,0.0,0.0,0.0,0.0,0.0,-0.3388,-0.3123,-0.3344,-0.3653,-0.3976,-0.3653,-0.3612,0.0,0.0,0.0,-0.2623,-0.2519,-0.2662,-0.319,-0.3425,-0.3526,-0.3675,-0.3506,-0.3418,-0.3418,-0.3351,-0.2948,-0.2347,-0.2146,-0.1745,-0.121,-0.1146,-0.0877,-0.0539,-0.0135,-0.0,-0.0,-0.0,-0.0,-0.0,-0.0,0.1619,0.3452,0.1214,0.0,0.0,0.0,0.0,0.0,0.0,0.0,0.0,0.0,0.0,0.0,0.0,0.0,0.0,0.0,0.0,0.0,0.0,0.0,0.0,0.0,0.0,0.0,0.0,0.1541,0.2138,0.0537,-0.0119,-0.0361,-0.0062,-0.0,-0.0129,-0.0454,-0.2792,-0.4327,-0.4325,-0.4325,-0.3238,-0.0674,-0.2144,0.0,0.0,0.0,-0.484,-0.4854,-0.5024,-0.5147,-0.515,-0.5647,-0.5864,-0.5941,-0.618,-0.618,-0.5941,-0.5941,-0.588,-0.5777,-0.5298,-0.4767,-0.398,-0.1154,-0.0,-0.0,-0.0,-0.0,-0.0,0.0,0.0,0.0,0.0,0.0,0.0,0.0,0.0,0.0,-0.3167,-0.3034,-0.2854,-0.2366,-0.2765,-0.3123,-0.3347,-0.3476,-0.3299,0.0,0.0,-0.2048,-0.2232,-0.2081,-0.2617,-0.3935,-0.3996,-0.4433,-0.5173,-0.5008,-0.4957,-0.4957,-0.4353,-0.402,-0.3818,-0.2614,-0.2013,-0.1879,-0.1347,-0.1079,-0.0944,-0.027,-0.0,-0.0,-0.0,-0.0,-0.0,-0.0,0.0337,0.1079,0.2902,0.2022,0.0337,0.0944,0.0,0.0,0.0,0.0,0.0,0.0,0.0,0.0,0.0,0.0,0.0,0.0,0.0,0.0,0.0,0.0,0.0,0.0,0.0,0.0,-0.0,-0.1532,-0.2901,-0.3223,-0.3371,-0.261,-0.0256,-0.0,-0.091,-0.3272,-0.3974,-0.4322,-0.4308,-0.4472,-0.4317,-0.368,-0.299,-0.3358,-0.4933,-0.4955,-0.5008,-0.5172,-0.5271,-0.536,-0.552,-0.5774,0.0,-0.5941,-0.618,-0.6261,-0.6257,-0.6257,-0.6086,-0.5896,-0.5701,-0.5125,-0.398,-0.1154,-0.0,-0.0,-0.0,-0.0,-0.0,0.0,0.0,0.0,0.0,0.0,0.0,0.0,0.0,0.0,0.0,-0.3296,-0.3164,-0.2943,-0.312,-0.3344,-0.3615,-0.3792,0.0,0.0,-0.2663,-0.2614,-0.2822,-0.2983,-0.3601,-0.4793,-0.4965,-0.5255,-0.5752,-0.5554,-0.5491,-0.5362,-0.5024,-0.4622,-0.4287,-0.3551,-0.2815,-0.208,-0.215,-0.1749,-0.1079,-0.0673,-0.0336,-0.0,-0.0,-0.0,-0.0,-0.0,-0.0,0.0202,0.1684,0.1213,0.0067,0.0404,0.0809,0.1012,0.0,0.0,0.0,0.0,0.0,0.0,0.0,0.0,0.0,0.0,0.0,0.0,0.0,0.0,-0.0,-0.0,0.0,-0.2151,-0.2161,-0.2749,-0.3432,-0.4188,-0.4322,-0.3762,-0.2309,-0.2176,-0.272,-0.4185,-0.4319,-0.4311,-0.4303,-0.4486,-0.4624,-0.4627,-0.3996,-0.4031,-0.5,-0.4983,-0.5038,-0.5168,-0.5323,-0.5479,-0.5637,-0.5944,-0.6099,-0.6099,-0.6099,-0.6099,-0.6099,-0.6099,-0.6022,-0.5928,-0.5858,-0.531,-0.4412,-0.277,-0.1292,-0.0,-0.0,-0.0,-0.0,0.0,0.0,0.0,0.0,0.0,0.0,0.0,0.0,0.0,0.0,-0.3565,-0.352,-0.3565,-0.3565,-0.37,0.0,0.0,0.0,0.0,-0.3123,-0.3047,-0.3407,-0.3872,-0.4483,-0.5208,-0.5601,-0.5853,-0.5888,-0.5752,-0.5554,-0.5425,-0.5425,-0.509,-0.4489,-0.4353,-0.3618,-0.2547,-0.3015,-0.2551,-0.1481,-0.1208,-0.0738,-0.0135,-0.0135,-0.0067,-0.0,-0.0,-0.0,-0.0,-0.0,-0.0,-0.0,-0.0,0.0404,0.0944,0.1079,0.0674,0.0,0.0,0.0,0.0,0.0,0.0,0.0,0.0,0.0362,0.0594,0.0236,0.0058,-0.0173,-0.071,-0.2738,-0.4285,-0.4291,-0.3301,-0.2965,-0.4162,-0.4309,-0.4306,-0.4322,-0.4118,-0.4118,-0.4255,-0.4308,-0.43,-0.43,-0.4428,-0.458,-0.4801,-0.4817,-0.4874,-0.5033,-0.4969,-0.5015,-0.5093,-0.5404,-0.5559,-0.5637,-0.5951,-0.6183,-0.6183,-0.5944,-0.5864,-0.5941,-0.5941,-0.5941,-0.5935,-0.5815,-0.5464,-0.4896,-0.4493,-0.2775,-0.0406,-0.0067,-0.0,-0.0,0.0,0.0,0.0,0.0,0.0,0.0,0.0,0.0,0.0,0.0,0.0,0.0,0.0,0.0,0.0,0.0,0.0,0.0,-0.3394,-0.237,-0.2098,-0.2753,-0.3473,-0.405,-0.4503,-0.5221,-0.5721,-0.5888,-0.5888,-0.5752,-0.555,-0.555,-0.5488,-0.5226,-0.4622,-0.422,-0.402,-0.3418,-0.3082,-0.2883,-0.1608,-0.0938,-0.0604,-0.0471,-0.027,-0.0,-0.0,-0.0,-0.0,-0.0,-0.0,-0.0,-0.0,0.0067,0.027,0.0877,0.0,0.0809,0.0202,-0.0,-0.0,-0.0,-0.0,-0.0,0.0,0.006,0.0244,0.0711,0.036,-0.0795,-0.3322,-0.4069,-0.4297,-0.429,-0.4188,-0.4102,-0.4268,-0.4292,-0.4303,-0.4303,-0.3556,-0.3353,-0.4236,-0.4303,-0.43,-0.43,-0.4507,-0.4706,-0.4706,-0.4866,-0.4996,-0.4999,-0.501,-0.5093,-0.5243,-0.5321,-0.5401,-0.5637,-0.5637,-0.5715,-0.5715,-0.5864,-0.5864,-0.5941,-0.618,-0.6261,-0.6257,-0.5777,-0.5533,-0.5399,-0.4846,-0.3501,-0.1736,-0.0476,-0.0,-0.0,0.0,0.0,0.0,0.0,0.0,0.0,0.0,0.0,0.0,0.0,0.0,0.0,0.0,0.0,0.0,0.0,0.0,0.0,-0.3262,-0.2724,-0.2565,-0.2978,-0.372,-0.4168,-0.4146,-0.5013,-0.5363,-0.523,-0.5577,-0.562,-0.5491,-0.5491,-0.5425,-0.5362,-0.5093,-0.4688,-0.4287,-0.442,-0.3951,-0.3149,-0.2882,-0.2011,-0.0938,-0.0875,-0.0742,-0.0607,-0.0135,-0.0,0.0,0.0,-0.0,-0.0,-0.0,-0.0,0.0067,0.0337,0.0472,0.0,0.0066,-0.0,-0.0,-0.0,-0.0,-0.0,-0.0,-0.0,0.0062,0.0304,-0.1162,-0.2859,-0.4058,-0.4322,-0.4293,-0.4279,-0.4298,-0.4315,-0.4295,-0.43,-0.43,-0.43,-0.3961,-0.3892,-0.4233,-0.43,-0.43,-0.43,-0.4452,-0.4649,-0.472,-0.4817,-0.4944,-0.5015,-0.5018,-0.5015,-0.5093,-0.5243,-0.5401,-0.5637,-0.5712,-0.5867,-0.6025,-0.5941,-0.5864,-0.5864,-0.587,-0.5948,-0.6022,-0.5715,-0.5481,-0.5286,-0.5247,-0.4486,-0.3074,-0.0822,-0.0,-0.027,0.0,0.0,0.0,0.0,0.0,0.0,0.0,0.0,0.0,0.0,0.0,0.0,0.0,0.0,0.0,0.0,0.0,0.0,0.0,-0.2812,-0.2635,-0.2771,-0.3612,-0.3955,-0.3706,-0.4698,-0.5052,-0.4827,-0.5286,-0.5513,-0.5432,-0.5408,-0.5425,-0.5428,-0.5428,-0.4957,-0.4353,-0.4891,-0.4353,-0.3215,-0.3422,-0.2683,-0.1475,-0.1212,-0.1281,-0.1415,-0.0472,-0.0741,0.0,0.0,-0.0067,-0.0135,-0.0944,-0.1214,-0.1213,-0.1213,-0.0603,-0.0,-0.0,-0.0,-0.0,-0.0,-0.0,-0.0,-0.0,-0.0621,-0.1187,-0.1187,-0.2518,-0.3829,-0.4237,-0.4316,-0.4273,-0.4289,-0.43,-0.43,-0.43,-0.43,-0.43,-0.43,-0.43,-0.43,-0.43,-0.43,-0.43,-0.43,-0.4406,-0.4593,-0.4718,-0.4768,-0.489,-0.5012,-0.5018,-0.5015,-0.5093,-0.5243,-0.5401,-0.5637,-0.5712,-0.5867,-0.6025,-0.5786,-0.5786,-0.5786,-0.5637,-0.5712,-0.5786,-0.5634,-0.5425,-0.5191,-0.5011,-0.45,-0.3526,-0.1471,-0.0891,-0.1498,0.0,0.0,0.0,0.0,0.0,0.0,0.0,0.0,0.0,0.0,0.0,0.0,0.0,0.0,0.0,0.0,0.0,0.0,0.0,-0.2101,-0.1523,-0.1657,-0.2752,-0.3216,-0.2918,-0.41,-0.4833,-0.5107,-0.5273,-0.5377,-0.5403,-0.5549,-0.5554,-0.5428,-0.5428,-0.4957,-0.4287,-0.4353,-0.3885,-0.3151,-0.275,-0.2484,-0.235,-0.1414,-0.1753,-0.2491,-0.1011,0.0,0.0,0.0,-0.0269,-0.0469,-0.3311,-0.4198,0.0,-0.419,-0.2178,-0.0,-0.0,-0.0,-0.0,-0.0,-0.0,-0.0,-0.0,-0.2148,-0.414,-0.414,-0.3095,-0.2611,-0.4025,-0.4295,-0.4298,-0.43,-0.43,-0.43,-0.43,-0.43,-0.43,-0.43,-0.43,-0.43,-0.43,-0.43,-0.43,-0.43,-0.4406,-0.4593,-0.4718,-0.4768,-0.489,-0.5012,-0.5018,-0.5093,-0.5321,-0.5321,-0.5401,-0.5637,-0.5637,-0.5479,-0.5321,-0.5321,-0.5401,-0.5637,-0.5637,-0.5637,-0.5559,-0.5401,-0.5318,-0.5146,-0.3886,-0.3022,-0.2561,-0.2421,-0.3152,-0.4204,0.0,0.0,0.0,0.0,0.0,0.0,0.0,0.0,0.0,0.0,0.0,0.0,0.0,0.0,0.0,0.0,0.0,0.0,0.0,-0.2057,-0.1834,-0.1478,-0.2205,-0.2593,-0.2567,-0.3453,-0.3974,-0.4114,-0.4597,-0.4812,-0.481,-0.4963,-0.4975,-0.4925,-0.4671,-0.4426,-0.417,-0.372,-0.3416,-0.3149,-0.248,-0.2348,-0.2417,-0.1884,-0.2088,-0.2627,0.0,0.0,0.0,0.0,0.0,0.0,-0.269,-0.3504,-0.4306,-0.4303,-0.2277,-0.0,-0.0,-0.0,-0.0,-0.0,-0.0,-0.0,-0.0,-0.0726,-0.1994,-0.3931,-0.4081,-0.3922,-0.425,-0.43,-0.43,-0.43,-0.4232,-0.4208,-0.4289,-0.43,-0.43,-0.43,-0.43,-0.43,-0.43,-0.43,-0.43,-0.43,-0.4336,-0.4409,-0.4596,-0.4645,-0.477,-0.4893,-0.4974,-0.5015,-0.5093,-0.5093,-0.5168,-0.5401,-0.5559,-0.5559,-0.5479,-0.5479,-0.5559,-0.5559,-0.5479,-0.5401,-0.5398,-0.5168,-0.5093,-0.5087,-0.458,-0.4339,-0.4022,-0.294,-0.3419,-0.4632,0.0,0.0,0.0,0.0,0.0,0.0,0.0,0.0,0.0,0.0,0.0,0.0,0.0,0.0,0.0,0.0,0.0,0.0,0.0,0.0,-0.1967,-0.1744,-0.2101,-0.24,-0.2697,-0.3092,-0.3486,-0.3774,-0.3967,-0.4113,-0.4165,-0.4085,-0.4092,-0.4101,-0.3846,-0.3549,-0.331,-0.291,-0.2755,-0.2695,-0.2361,-0.2315,-0.2449,-0.2274,-0.2757,0.0,0.0,0.0,0.0,0.0,0.0,-0.3692,-0.2887,-0.3407,-0.4303,-0.4302,-0.3013,-0.1327,-0.031,-0.0,-0.0,-0.0,-0.0,-0.0,-0.0,-0.0404,-0.1275,-0.3058,-0.4004,-0.4458,-0.4259,-0.4235,-0.4249,-0.4295,-0.4197,-0.4159,-0.4284,-0.43,-0.43,-0.43,-0.4498,-0.4498,-0.43,-0.4498,-0.4498,-0.43,-0.43,-0.4349,-0.4463,-0.4657,-0.4708,-0.483,-0.4953,-0.5015,-0.509,-0.509,-0.5246,-0.5401,-0.5479,-0.5559,-0.5559,-0.5559,-0.5559,-0.5559,-0.5398,-0.5321,-0.5321,-0.5093,-0.5018,-0.5018,-0.5018,-0.5021,-0.4859,-0.3776,-0.3962,-0.4814,0.0,0.0,0.0,0.0,0.0,0.0,0.0,0.0,0.0,0.0,0.0,0.0,0.0,0.0,0.0,0.0,0.0,0.0,0.0,0.0,0.0,-0.2235,-0.2279,-0.2591,-0.317,-0.3078,-0.3366,-0.4069,-0.3587,-0.3408,-0.3522,-0.3217,-0.3051,-0.3051,-0.3005,-0.2676,-0.2069,-0.2025,-0.1935,-0.1887,-0.2317,-0.2496,-0.2564,-0.2703,0.0,0.0,0.0,0.0,0.0,0.0,0.0,-0.4849,-0.3971,-0.3967,-0.4271,-0.4134,-0.419,-0.3668,-0.0805,-0.0,-0.0,-0.0,-0.0132,-0.0202,-0.0202,-0.1208,-0.206,-0.1942,-0.316,-0.4265,-0.4148,-0.4121,-0.4156,-0.4273,-0.4183,-0.4145,-0.4273,-0.4292,-0.4359,-0.4364,-0.4824,-0.4957,-0.4434,-0.4827,-0.4957,-0.4434,-0.43,-0.4346,-0.4455,-0.4654,-0.4705,-0.4822,-0.495,-0.5171,-0.5321,-0.5321,-0.5398,-0.5637,-0.5401,-0.5401,-0.5559,-0.5401,-0.5401,-0.5559,-0.5401,-0.5321,-0.5243,-0.5093,-0.5018,-0.5018,-0.5018,-0.5018,-0.5018,-0.5018,-0.495,-0.4822,0.0,0.0,0.0,0.0,0.0,0.0,0.0,0.0,0.0,0.0,0.0,0.0,0.0,0.0,0.0,0.0,0.0,0.0,0.0,0.0,0.0,0.0,0.0,0.0,0.0,0.0,0.0,0.0,0.0,-0.37,-0.3645,-0.3697,-0.3667,-0.3578,-0.3258,-0.3067,-0.2859,-0.2402,-0.2211,-0.2158,0.0,-0.2677,-0.3103,0.0,0.0,0.0,0.0,0.0,0.0,0.0,0.0,-0.4779,-0.4928,-0.4634,-0.385,-0.1752,-0.261,-0.3685,-0.077,-0.0,-0.0,-0.0,-0.1609,-0.3173,-0.3173,-0.2515,-0.2217,-0.3443,-0.401,-0.4289,-0.4259,-0.4181,-0.4126,-0.4159,-0.3985,-0.392,-0.4134,-0.4481,-0.4773,-0.4878,-0.5359,-0.5624,-0.5491,-0.5624,-0.5624,-0.5491,-0.4764,-0.4314,-0.4344,-0.4539,-0.474,-0.4697,-0.5357,-0.5709,-0.5786,-0.5786,-0.5786,-0.5786,-0.5323,-0.5093,-0.5171,-0.5093,-0.5093,-0.5171,-0.5093,-0.5093,-0.5093,-0.5015,-0.5018,-0.5018,-0.5018,-0.5018,-0.5018,-0.5018,-0.4999,-0.4942,0.0,0.0,0.0,0.0,0.0,0.0,0.0,0.0,0.0,0.0,0.0,0.0,0.0,0.0,0.0,0.0,0.0,0.0,0.0,0.0,0.0,0.0,0.0,0.0,0.0,0.0,0.0,0.0,0.0,0.0,0.0,-0.3242,-0.3141,-0.3052,-0.281,-0.2717,-0.2674,-0.2366,0.0,0.0,0.0,0.0,0.0,0.0,0.0,0.0,0.0,0.0,0.0,0.0,0.0,-0.3627,-0.3837,-0.4146,-0.3972,-0.2372,-0.2112,-0.205,-0.0461,-0.0,-0.0,-0.0,-0.2157,-0.4327,-0.4327,-0.3593,-0.3148,-0.4022,-0.4265,-0.4284,-0.423,-0.4121,-0.4053,-0.411,-0.3958,-0.3901,-0.4091,-0.4607,-0.4997,-0.5077,-0.5752,-0.6152,-0.5954,-0.6086,-0.6152,-0.5892,-0.5359,-0.503,-0.503,-0.523,-0.5377,-0.544,-0.5956,-0.6259,-0.6325,-0.6325,-0.6325,-0.6325,-0.5709,-0.5479,-0.5553,-0.5246,-0.5171,-0.5251,-0.5171,-0.5171,-0.5093,-0.5015,-0.5018,-0.5018,-0.5018,-0.5018,-0.5018,-0.5018,-0.4988,-0.4917,0.0,0.0,0.0,0.0,0.0,0.0,0.0,0.0,0.0,0.0,0.0,0.0,0.0,0.0,0.0,0.0,0.0,0.0,0.0,0.0,0.0,0.0,0.0,0.0,0.0,0.0,0.0,0.0,0.0,0.0,0.0,0.0,0.0,0.0,0.0,0.0,0.0,0.0,0.0,0.0,0.0,0.0,0.0,0.0,0.0,0.0,0.0,0.0,0.0,0.0,-0.2214,-0.2417,-0.2417,-0.3111,-0.3991,-0.3756,-0.1986,-0.0,-0.0,-0.027,-0.0539,-0.0539,-0.242,-0.4306,-0.4322,-0.4287,-0.4232,-0.4167,-0.4219,-0.4249,-0.4159,-0.4042,-0.3988,-0.4077,-0.399,-0.3952,-0.4075,-0.4699,-0.5176,-0.5216,-0.6145,-0.6609,-0.6152,-0.6544,-0.6609,-0.6152,-0.6086,-0.602,-0.5892,-0.6037,-0.6209,-0.6546,-0.6718,-0.6874,-0.7169,-0.7092,-0.7015,-0.6861,-0.6247,-0.5938,-0.6012,-0.5473,-0.5323,-0.5482,-0.5323,-0.5243,-0.5243,-0.5093,-0.5018,-0.5018,-0.5018,-0.5018,-0.5015,-0.4999,-0.501,-0.4828,0.0,0.0,0.0,0.0,0.0,0.0,0.0,0.0,0.0,0.0,-0.2417,-0.3004,0.0,0.0,0.0,0.0,0.0,0.0,0.0,0.0,0.0,0.0,0.0,0.0,0.0,0.0,0.0,0.0,0.0,0.0,0.0,0.0,0.0,0.0,0.0,0.0,0.0,0.0,0.0,0.0,0.0,0.0,0.0,0.0,0.0,0.0,0.0,0.0,0.0,0.0,-0.2889,-0.3907,-0.3914,-0.3288,-0.2268,-0.1074,-0.0402,-0.0,-0.0,-0.1753,-0.3578,-0.3578,-0.3845,-0.4191,-0.4284,-0.4145,-0.405,-0.4232,-0.4205,-0.4172,-0.4254,-0.4167,-0.4061,-0.3979,-0.3863,-0.3827,-0.395,-0.4781,-0.5513,-0.5723,-0.6736,-0.7326,-0.7265,-0.7326,-0.7326,-0.7195,-0.7195,-0.6806,-0.5954,-0.6037,-0.6475,-0.7306,-0.7493,-0.7825,-0.8394,-0.7859,-0.7399,-0.6861,-0.6247,-0.5631,-0.5171,-0.5093,-0.5093,-0.5093,-0.5093,-0.5015,-0.5015,-0.5018,-0.5018,-0.5018,-0.5018,-0.5018,-0.5004,-0.4904,-0.4857,-0.4664,0.0,0.0,0.0,0.0,0.0,0.0,0.0,-0.2103,-0.1835,-0.1389,-0.1882,-0.2107,-0.1569,-0.1566,-0.1386,0.0,0.0,0.0,0.0,0.0,0.0,0.0,0.0,0.0,0.0,0.0,-0.3869,-0.3869,0.0,-0.4036,-0.4011,-0.4011,-0.3951,-0.3916,-0.3916,0.0,0.0,0.0,0.0,0.0,0.0,0.0,0.0,0.0,0.0,0.0,0.0,0.0,0.0,0.0,-0.3321,-0.3974,-0.419,-0.3842,-0.3092,-0.242,-0.1679,-0.094,-0.0202,-0.1547,-0.3288,-0.3779,-0.4051,-0.4145,-0.42,-0.4118,-0.408,-0.4262,-0.4202,-0.4137,-0.4194,-0.4242,-0.4296,-0.4299,-0.4189,-0.4265,-0.4639,-0.5218,-0.5767,-0.6133,-0.6941,-0.7521,-0.7521,-0.7521,-0.7521,-0.7521,-0.7521,-0.7265,-0.6741,-0.7005,-0.7315,-0.7794,-0.8089,-0.8394,-0.8703,-0.8394,-0.8089,-0.7859,-0.6861,-0.6247,-0.5941,-0.5326,-0.5018,-0.5018,-0.5018,-0.5018,-0.5018,-0.5018,-0.5018,-0.5018,-0.5018,-0.4977,-0.4915,-0.4855,-0.4612,-0.4207,0.0,0.0,0.0,0.0,0.0,0.0,0.0,-0.1746,-0.1299,-0.112,-0.1254,-0.13,-0.1169,-0.1122,-0.0806,0.0,0.0,0.0,0.0,0.0,0.0,0.0,0.0,0.0,0.0,0.0,0.0,-0.3792,-0.401,0.0,0.0,0.0,0.0,0.0,-0.3856,-0.3757,-0.3661,0.0,0.0,0.0,0.0,-0.3136,0.0,0.0,0.0,0.0,0.0,0.0,0.0,0.0,-0.3731,-0.3803,-0.4308,-0.4317,-0.4169,-0.4215,-0.3398,-0.2125,-0.0991,-0.1385,-0.2427,-0.3217,-0.3629,-0.3874,-0.386,-0.389,-0.389,-0.4032,-0.3968,-0.3887,-0.3887,-0.4041,-0.4228,-0.4369,-0.4408,-0.4604,-0.5135,-0.551,-0.5934,-0.6333,-0.7044,-0.7474,-0.7517,-0.7521,-0.7521,-0.7521,-0.7521,-0.7521,-0.7521,-0.7815,-0.8033,-0.8075,-0.8444,-0.8661,-0.8703,-0.8703,-0.8623,-0.8475,-0.7553,-0.7015,-0.6865,-0.5864,-0.5401,-0.5404,-0.5246,-0.5171,-0.5171,-0.4937,-0.4844,-0.482,-0.4745,-0.4673,-0.4566,-0.4546,-0.4138,-0.3713,0.0,0.0,0.0,0.0,0.0,0.0,0.0,-0.1658,-0.1256,0.0269,-0.0493,-0.1615,-0.2575,-0.1169,-0.009,0.0,0.0,0.0,0.0,0.0,0.0,0.0,0.0,0.0,0.0,0.0,0.0,-0.3794,-0.381,0.0,0.0,0.0,0.0,0.0,0.0,-0.3929,-0.3762,-0.3762,0.0,0.0,0.0,0.0,0.0,0.0,0.0,0.0,0.0,0.0,0.0,0.0,0.0,-0.421,-0.4794,-0.4434,-0.3877,-0.4046,0.0,0.0,-0.2822,-0.2613,-0.2549,-0.2666,-0.2847,-0.3066,-0.3181,0.0,-0.3073,-0.3194,-0.3155,-0.309,-0.309,-0.3383,-0.3527,-0.3438,-0.3995,-0.4397,-0.4468,-0.5293,-0.6015,-0.6366,-0.6863,-0.7321,-0.7507,-0.7521,-0.7521,-0.7521,-0.7521,-0.7521,-0.7521,-0.7683,-0.7891,-0.8075,-0.8307,-0.8519,-0.8699,-0.8703,-0.8394,-0.7859,-0.7783,-0.7399,-0.6865,-0.6788,-0.671,-0.671,-0.6096,-0.5786,-0.5709,-0.4851,-0.4404,-0.4317,-0.3942,-0.3808,-0.3711,-0.3559,-0.3519,-0.3352,0.0,0.0,0.0,0.0,0.0,0.0,-0.1614,-0.1433,-0.103,-0.0359,-0.0403,-0.0538,-0.0719,-0.081,-0.1078,-0.1706,0.0,0.0,0.0,0.0,0.0,0.0,0.0,0.0,0.0,0.0,-0.3788,-0.3788,-0.3872,0.0,0.0,0.0,0.0,0.0,0.0,-0.3799,-0.3691,-0.3691,0.0,0.0,0.0,0.0,0.0,0.0,0.0,0.0,0.0,0.0,-0.3839,0.0,0.0,0.0,-0.4426,-0.4426,0.0,0.0,-0.3732,-0.32,-0.2861,-0.2774,-0.2761,-0.2531,-0.2671,-0.3012,-0.3452,0.0,-0.3564,-0.4033,-0.403,-0.3943,-0.3943,-0.4235,-0.4477,-0.4561,-0.472,-0.4978,-0.5481,-0.567,-0.5897,-0.6292,-0.6717,-0.6993,-0.7135,-0.7277,-0.7393,-0.7512,-0.7521,-0.7521,-0.7521,-0.7664,-0.782,-0.7896,-0.8226,-0.8439,-0.8519,-0.8642,-0.8551,-0.8318,-0.8012,-0.7706,-0.7399,-0.7092,-0.6707,-0.6247,-0.5777,-0.5345,-0.4898,-0.4213,-0.3927,-0.3838,-0.3691,-0.3564,-0.348,-0.3447,-0.3049,-0.2521,0.0,0.0,0.0,0.0,0.0,-0.1612,-0.1658,-0.1299,-0.103,-0.0895,-0.0537,-0.0134,0.0224,-0.0359,-0.1303,-0.2563,-0.2156,0.0,0.0,0.0,0.0,0.0,0.0,0.0,0.0,0.0,-0.3821,-0.3821,-0.392,-0.391,0.0,0.0,-0.3858,-0.3744,0.0,0.0,0.0,0.0,0.0,0.0,0.0,0.0,0.0,0.0,0.0,0.0,0.0,0.0,0.0,0.0,0.0,0.0,0.0,0.0,0.0,0.0,-0.3614,-0.3149,-0.2607,-0.258,-0.2563,-0.2277,-0.255,-0.2958,-0.3394,-0.3608,-0.3909,-0.4398,-0.4373,-0.4276,-0.4276,-0.4587,-0.4831,-0.494,-0.5035,-0.5278,-0.5862,-0.5823,-0.5844,-0.6187,-0.6496,-0.6662,-0.6745,-0.6938,-0.7112,-0.7316,-0.733,-0.733,-0.733,-0.7474,-0.7648,-0.7777,-0.8066,-0.8245,-0.8307,-0.8448,-0.8552,-0.8538,-0.8023,-0.7798,-0.7774,-0.7346,-0.6719,-0.6036,-0.5575,-0.4994,-0.4323,-0.3734,-0.3461,-0.3381,-0.3237,-0.3117,-0.3048,-0.3048,-0.2597,-0.2014,0.0,0.0,0.0,0.0,0.0,0.0,-0.1478,-0.1389,-0.1254,-0.094,-0.0895,-0.085,-0.0716,0.0135,-0.009,-0.193,-0.257,0.0,0.0,0.0,0.0,0.0,0.0,0.0,0.0,0.0,-0.3793,-0.3793,-0.3796,-0.3744,-0.3585,-0.3585,-0.3585,-0.3583,0.0,0.0,0.0,0.0,0.0,0.0,0.0,0.0,0.0,0.0,0.0,0.0,0.0,0.0,0.0,0.0,0.0,0.0,0.0,0.0,0.0,0.0,-0.3564,-0.3397,-0.2452,-0.202,-0.1798,-0.1798,-0.224,-0.2705,-0.2795,-0.3201,-0.3607,-0.3669,-0.3656,-0.3627,-0.3627,-0.3852,-0.4024,-0.4024,-0.4629,-0.5124,-0.5128,-0.5517,-0.5865,-0.6054,-0.6196,-0.6334,-0.6418,-0.6604,-0.6735,-0.6868,-0.6881,-0.6881,-0.6881,-0.6885,-0.7171,-0.7773,-0.7787,-0.7881,-0.808,-0.8085,-0.8121,-0.8116,-0.7906,-0.7767,-0.7799,-0.769,-0.717,-0.644,-0.5868,-0.5147,-0.4421,-0.3419,-0.2942,-0.2872,-0.2385,-0.2208,-0.2223,-0.2223,-0.2223,-0.2087,0.0,0.0,0.0,0.0,0.0,0.0,0.0,-0.1074,-0.103,-0.0895,-0.0716,-0.0626,-0.0805,-0.0761,-0.0583,-0.0224,-0.0852,0.0,0.0,0.0,0.0,0.0,0.0,0.0,0.0,0.0,-0.3635,-0.3635,-0.3411,-0.3297,-0.3244,-0.3081,-0.297,-0.3026,-0.3297,-0.3572,0.0,0.0,0.0,0.0,0.0,0.0,-0.3179,0.0,0.0,0.0,0.0,0.0,0.0,0.0,0.0,0.0,0.0,0.0,0.0,0.0,0.0,0.0,-0.3298,-0.3072,-0.3016,-0.3016,-0.3183,-0.3413,-0.3845,-0.4101,-0.4307,-0.4692,-0.4775,-0.4739,-0.4739,-0.4853,-0.4908,-0.4908,-0.5077,-0.5293,-0.5403,-0.5567,-0.5698,-0.5759,-0.5945,-0.6102,-0.6353,-0.6604,-0.6735,-0.6863,-0.6881,-0.6881,-0.6881,-0.6881,-0.6977,-0.7167,-0.7364,-0.7464,-0.7527,-0.7667,-0.7771,-0.7767,-0.77,-0.7628,-0.7686,-0.7628,-0.7237,-0.6576,-0.6076,-0.5167,-0.4031,-0.3468,-0.2929,-0.2385,-0.2113,-0.1967,-0.1951,-0.1817,-0.1547,-0.121,0.0,0.0,0.0,0.0,0.0,0.0,0.0,-0.0985,-0.0895,-0.0895,-0.0626,-0.0492,-0.0671,-0.0895,-0.0761,-0.0135,-0.0313,0.0,0.0,0.0,0.0,0.0,0.0,0.0,0.0,-0.3194,-0.3249,-0.3249,-0.3023,-0.2965,-0.2965,-0.28,-0.2691,-0.2747,-0.3186,-0.3492,0.0,0.0,0.0,0.0,0.0,0.0,-0.33,0.0,0.0,0.0,0.0,0.0,0.0,0.0,0.0,0.0,0.0,0.0,0.0,0.0,-0.4807,-0.4414,0.0,-0.3624,-0.3624,-0.3624,-0.3793,0.0,-0.4405,-0.4684,-0.4908,-0.5242,-0.5297,-0.5297,-0.5297,-0.5297,-0.5297,-0.5297,-0.5297,-0.5352,-0.5458,-0.5458,-0.5513,-0.5567,-0.5617,-0.5821,-0.6125,-0.6315,-0.6438,-0.6625,-0.6706,-0.6683,-0.6683,-0.6683,-0.6683,-0.6683,-0.6994,-0.7122,-0.7122,-0.7249,-0.7346,-0.7346,-0.7272,-0.7277,-0.7272,-0.7203,-0.6814,-0.611,-0.5901,-0.5089,0.0,-0.3442,-0.2933,-0.2421,-0.1951,-0.1817,-0.1749,-0.1614,-0.1412,-0.1076,0.0,0.0,0.0,0.0,0.0,0.0,0.0,-0.1074,-0.0895,-0.0895,-0.0582,-0.0358,-0.0403,-0.0403,-0.0671,-0.1254,0.0,0.0,0.0,0.0,0.0,0.0,0.0,0.0,-0.2542,-0.2634,-0.2685,-0.2691,-0.2691,-0.2691,-0.2691,-0.2635,-0.2635,-0.2635,-0.2959,-0.3333,-0.3844,0.0,0.0,0.0,0.0,0.0,0.0,0.0,0.0,0.0,0.0,0.0,0.0,0.0,0.0,0.0,0.0,0.0,0.0,0.0,0.0,0.0,0.0,-0.379,-0.3738,-0.3738,-0.4128,-0.4574,0.0,0.0,0.0,-0.5301,-0.5352,-0.5352,-0.5301,-0.5297,-0.5297,-0.5297,-0.5297,-0.5297,-0.5297,-0.5297,-0.5352,-0.5567,-0.5462,-0.5477,-0.5772,-0.5901,-0.6018,-0.6195,-0.6314,-0.642,-0.642,-0.642,-0.642,-0.642,-0.6683,-0.6881,-0.6881,-0.6881,-0.6835,-0.6869,-0.6759,-0.6697,-0.6652,-0.6493,-0.6083,-0.5477,-0.5477,-0.5014,-0.422,-0.3422,-0.3023,-0.2822,-0.195,-0.1547,-0.1547,-0.1547,-0.1547,-0.1547,0.0,0.0,0.0,0.0,0.0,0.0,0.0,0.0,0.0,0.0,-0.0179,-0.0,-0.0582,-0.0492,-0.0447,0.0,0.0,0.0,0.0,0.0,0.0,0.0,0.0,0.0,-0.2038,-0.2432,-0.2676,-0.2691,-0.2465,-0.2296,-0.2296,-0.2132,-0.2021,-0.2018,-0.2509,-0.3164,-0.3909,-0.4204,0.0,0.0,0.0,0.0,0.0,0.0,0.0,0.0,-0.4293,-0.4444,0.0,0.0,0.0,0.0,0.0,0.0,0.0,0.0,-0.6339,-0.627,-0.5996,0.0,-0.4908,-0.4908,-0.5018,-0.5132,0.0,0.0,0.0,0.0,0.0,0.0,0.0,-0.5297,-0.5297,-0.5297,-0.5297,-0.5297,-0.5297,-0.5297,-0.5297,-0.5352,-0.5727,-0.5912,-0.5653,-0.6184,-0.6432,-0.6195,-0.6314,-0.642,-0.642,-0.642,-0.642,-0.642,-0.6482,-0.6486,-0.6486,-0.6486,-0.6506,-0.6547,-0.6502,-0.6502,-0.6477,-0.6436,-0.6284,-0.6148,-0.6148,-0.5484,-0.4287,-0.3885,-0.3153,-0.2085,-0.1547,-0.1345,-0.1344,-0.1277,-0.121,-0.1143,0.0,0.0,0.0,0.0,0.0,0.0,0.0,0.0,0.0,0.0,0.0,0.0,0.0,0.0,0.0,0.0,0.0,0.0,0.0,0.0,0.0,0.0,0.0,-0.1549,-0.1763,-0.2038,-0.2221,-0.23,-0.2132,-0.2018,-0.2018,-0.1852,-0.1726,-0.1696,-0.2073,-0.2797,-0.3707,-0.3758,-0.383,-0.396,-0.3917,0.0,0.0,0.0,0.0,0.0,-0.4243,-0.4532,0.0,-0.5116,-0.5395,-0.5664,0.0,0.0,0.0,0.0,-0.6588,-0.6588,-0.6588,-0.6268,-0.5891,-0.5891,-0.5891,-0.5891,0.0,0.0,0.0,0.0,0.0,0.0,0.0,-0.5567,-0.5458,-0.5297,-0.5183,-0.5128,-0.5183,-0.5242,-0.5297,-0.5297,-0.5832,-0.6087,-0.5923,-0.6563,-0.6944,-0.6918,-0.7066,-0.7228,-0.7386,-0.7391,-0.7391,-0.7391,-0.7391,-0.7064,-0.642,-0.642,-0.642,-0.642,-0.642,-0.642,-0.642,-0.642,-0.642,-0.635,-0.6083,-0.5484,-0.4619,-0.4087,-0.322,-0.2083,-0.1813,-0.1478,-0.121,-0.1143,-0.1076,-0.1076,0.0,0.0,0.0,0.0,0.0,0.0,0.0,0.0,0.0,0.0,0.0,0.0,0.0,0.0,0.0,0.0,0.0,0.0,0.0,0.0,0.0,0.0,0.0,-0.1157,-0.1512,-0.1613,-0.1726,-0.1797,-0.1797,-0.1792,-0.1728,-0.1728,-0.1636,-0.1464,-0.1762,-0.2409,-0.3324,-0.3215,-0.3347,-0.37,-0.3792,0.0,0.0,0.0,0.0,0.0,0.0,0.0,0.0,-0.5562,-0.6,-0.6381,-0.6593,0.0,0.0,0.0,0.0,0.0,-0.6804,-0.675,-0.6642,-0.6588,-0.6588,-0.6588,-0.6588,0.0,0.0,0.0,0.0,0.0,0.0,-0.5887,-0.5668,-0.5293,-0.5124,-0.5117,-0.5285,-0.5403,-0.5462,-0.5407,-0.5996,-0.6317,-0.6154,-0.689,-0.7448,-0.7645,-0.7825,-0.798,-0.8308,-0.8356,-0.8372,-0.8436,-0.8345,-0.7777,-0.6548,-0.6548,-0.6548,-0.6548,-0.6486,-0.642,-0.642,-0.642,-0.6416,-0.635,-0.5745,-0.5348,-0.502,-0.409,-0.3286,-0.2551,-0.2214,-0.1745,-0.1276,-0.1344,-0.1277,-0.1076,0.0,0.0,0.0,0.0,0.0,0.0,0.0,0.0,0.0,0.0,0.0,0.0,0.0,0.0,0.0,0.0,0.0,0.0,0.0,0.0,0.0,0.0,-0.1081,-0.0983,-0.1158,-0.1472,-0.1684,-0.1797,-0.1797,-0.1715,-0.1558,-0.1558,-0.1452,-0.126,-0.1581,-0.2007,-0.2523,-0.2818,-0.3214,-0.3622,-0.3622,0.0,0.0,0.0,0.0,0.0,0.0,0.0,0.0,-0.6036,-0.6154,-0.6317,-0.6864,0.0,0.0,0.0,0.0,0.0,-0.7681,-0.7354,-0.6972,-0.6642,-0.6588,-0.6588,-0.6588,0.0,0.0,0.0,0.0,0.0,0.0,-0.5828,-0.5609,-0.5066,-0.5336,-0.5828,-0.6317,-0.6372,-0.6209,-0.5778,-0.6647,-0.6918,-0.5937,-0.7006,-0.7559,-0.7089,-0.7234,-0.7375,-0.7542,-0.7783,-0.7944,-0.8064,-0.7812,-0.7521,-0.733,-0.733,-0.733,-0.733,-0.6679,-0.642,-0.642,-0.642,-0.635,-0.6214,-0.6145,-0.5613,-0.4749,-0.3885,-0.3487,-0.322,-0.2415,-0.2013,-0.2013,-0.2552,-0.2018,-0.1078,0.0,0.0,0.0,0.0,0.0,0.0,0.0,0.0,0.0,0.0,0.0,0.0,0.0,0.0,0.0,0.0,0.0,0.0,0.0,0.0,0.0,-0.1389,-0.1208,-0.121,-0.136,-0.1544,-0.1638,-0.1639,-0.1639,-0.1662,-0.1756,-0.1925,-0.192,-0.1854,-0.1905,-0.2184,-0.2635,-0.2724,-0.317,-0.3762,0.0,0.0,0.0,0.0,0.0,0.0,0.0,0.0,0.0,0.0,-0.7074,-0.767,-0.7943,0.0,0.0,0.0,0.0,0.0,-0.8321,-0.8049,-0.7676,-0.7187,-0.675,-0.648,-0.6972,0.0,0.0,0.0,0.0,0.0,0.0,-0.6534,-0.6317,-0.5719,-0.5937,-0.6317,-0.6485,-0.6534,-0.6534,-0.6263,-0.6972,-0.73,-0.6756,-0.7558,-0.8068,-0.7931,-0.7989,-0.8172,-0.8434,-0.855,-0.8609,-0.8729,-0.8543,-0.8545,-0.8691,-0.8307,-0.7861,-0.733,-0.6999,-0.6802,-0.6671,-0.628,-0.6086,-0.602,-0.5613,-0.515,-0.4688,-0.4289,-0.362,-0.2952,-0.3086,-0.3023,-0.2893,-0.2622,-0.1818,-0.0809,0.0,0.0,0.0,0.0,0.0,0.0,0.0,0.0,0.0,0.0,0.0,0.0,0.0,0.0,0.0,0.0,0.0,0.0,0.0,0.0,-0.1657,-0.1657,-0.1537,-0.1452,-0.1542,-0.1692,-0.1722,-0.163,-0.1736,-0.1909,-0.2084,-0.2243,-0.2343,-0.2341,-0.2219,-0.2499,-0.2987,-0.2948,-0.3369,-0.4085,0.0,0.0,0.0,0.0,0.0,0.0,0.0,0.0,0.0,0.0,0.0,0.0,0.0,0.0,0.0,-0.8956,-0.8857,-0.8752,-0.8685,-0.8474,-0.8209,-0.7895,0.0,-0.6642,-0.7246,0.0,0.0,0.0,0.0,0.0,0.0,-0.6966,-0.6701,-0.6372,-0.6426,-0.6534,-0.6544,-0.6701,-0.675,-0.6642,-0.7192,-0.7521,-0.7413,-0.7949,-0.835,-0.8563,-0.8582,-0.8726,-0.8998,-0.9131,-0.9163,-0.9163,-0.9111,-0.9132,-0.9357,-0.8804,-0.8147,-0.7391,-0.7381,-0.7186,-0.6859,-0.6342,-0.6086,-0.602,-0.5282,-0.4885,-0.4691,-0.4558,-0.3889,-0.3086,-0.3692,-0.3902,-0.3708,-0.2424,-0.1683,-0.1415,0.0,0.0,0.0,0.0,0.0,0.0,0.0,0.0,0.0,0.0,0.0,0.0,0.0,0.0,0.0,0.0,0.0,0.0,0.0,0.0,-0.2415,-0.2415,-0.2046,-0.1666,-0.1339,-0.1681,-0.1905,-0.197,-0.2377,-0.2531,-0.2384,-0.2197,-0.2109,-0.2154,-0.2364,-0.2719,-0.3214,-0.3432,-0.392,-0.4578,-0.5084,0.0,0.0,0.0,0.0,0.0,0.0,0.0,0.0,0.0,0.0,0.0,0.0,0.0,-0.9465,-0.8956,-0.8811,-0.8804,-0.8804,-0.8362,-0.8037,-0.8586,-0.8055,0.0,-0.7192,-0.7085,0.0,-0.7139,0.0,0.0,-0.6696,-0.6263,-0.6046,-0.648,-0.6372,-0.6426,-0.6977,-0.7246,-0.7246,-0.6642,-0.7354,-0.7681,-0.7192,-0.7628,-0.7961,-0.7979,-0.7979,-0.8045,-0.8277,-0.8515,-0.8708,-0.8813,-0.8479,-0.8263,-0.828,-0.828,-0.8154,-0.7962,-0.7912,-0.7587,-0.6924,-0.6859,-0.6736,-0.6609,-0.5881,-0.5352,-0.502,-0.4292,-0.4295,-0.4561,-0.4025,-0.4167,-0.4372,-0.202,-0.2359,-0.4043,0.0,0.0,0.0,0.0,0.0,0.0,0.0,0.0,0.0,0.0,0.0,0.0,0.0,0.0,0.0,0.0,0.0,0.0,0.0,0.0,-0.2061,-0.2061,-0.2135,-0.1925,-0.1513,-0.1781,-0.1915,-0.18,-0.2512,-0.2784,-0.2695,-0.2834,-0.3037,-0.3211,-0.3252,-0.3571,-0.4077,-0.4472,-0.4996,-0.5587,-0.6196,-0.6944,0.0,0.0,0.0,0.0,0.0,0.0,0.0,0.0,-0.9865,-1.049,-0.9984,-1.0138,-1.0592,-1.0498,-1.0138,-0.9777,-0.9718,-0.9197,-0.8679,-0.8586,-0.8321,0.0,0.0,-0.682,-0.6386,-0.6761,-0.6864,0.0,-0.6918,-0.6756,-0.6701,-0.6864,-0.681,-0.6864,-0.7085,-0.7192,-0.7192,-0.6918,-0.7192,-0.73,-0.7139,-0.73,-0.7467,-0.7628,-0.7628,-0.7735,-0.8008,-0.8362,-0.8629,-0.8682,-0.8507,-0.8534,-0.8701,-0.8423,-0.8083,-0.7808,-0.808,-0.8095,-0.7902,-0.7447,-0.6863,-0.6342,-0.6013,-0.555,-0.4894,-0.4628,-0.4567,-0.4703,-0.4298,-0.3892,-0.3487,-0.2551,-0.2284,-0.2354,0.0,0.0,0.0,0.0,0.0,0.0,0.0,0.0,0.0,0.0,0.0,0.0,0.0,0.0,0.0,0.0,0.0,0.0,-0.1875,-0.2192,-0.2375,-0.2375,-0.2457,-0.2324,-0.2014,-0.2172,-0.2156,-0.1822,-0.2718,-0.3126,-0.3126,-0.3439,-0.3732,-0.3999,-0.426,-0.4637,-0.5103,-0.5696,-0.6298,-0.6875,-0.7548,-0.8313,0.0,0.0,0.0,0.0,0.0,0.0,0.0,0.0,-1.0728,-1.141,-1.0854,-1.1057,-1.146,-1.1418,-1.0905,-1.0395,-1.0277,-0.9821,-0.9256,0.0,0.0,0.0,-0.799,-0.7133,-0.6598,-0.6966,-0.7025,-0.7079,-0.7456,-0.7354,-0.73,-0.7456,-0.7402,-0.7348,-0.7348,-0.7456,-0.7509,-0.7509,-0.7568,-0.7622,-0.7622,-0.7622,-0.7729,-0.7895,-0.7895,-0.7895,-0.7895,-0.8203,-0.8302,-0.815,-0.8309,-0.8451,-0.8635,-0.8318,-0.8066,-0.7916,-0.8017,-0.8137,-0.8185,-0.7673,-0.7126,-0.6535,-0.6276,-0.5752,-0.4964,-0.4964,-0.4834,-0.4573,-0.4233,-0.3694,-0.3084,-0.3019,-0.2418,-0.1681,0.0,0.0,0.0,0.0,0.0,0.0,0.0,0.0,0.0,0.0,0.0,0.0,0.0,0.0,0.0,0.0,0.0,0.0,-0.2099,-0.304,-0.3581,-0.3581,-0.317,-0.2898,-0.2898,-0.2898,-0.2632,-0.2099,-0.3129,-0.3581,-0.3626,-0.3796,-0.401,-0.4256,-0.5319,-0.5909,-0.618,-0.6996,-0.7724,-0.8466,-0.9067,-0.9784,-1.0511,0.0,0.0,0.0,0.0,0.0,0.0,0.0,-1.1648,-1.2061,-1.1449,-1.1648,-1.2012,-1.1425,-1.088,-1.0431,-1.0403,-1.0035,-0.9614,0.0,0.0,0.0,-0.883,-0.8349,-0.7871,-0.7871,-0.767,-0.7681,-0.8262,-0.7889,-0.7676,-0.8315,-0.8096,-0.7925,-0.7925,-0.8203,-0.8368,-0.8368,-0.8639,-0.8804,-0.8804,-0.8804,-0.8804,-0.8804,-0.8804,-0.8533,-0.7925,-0.7925,-0.7664,-0.7139,-0.761,-0.7925,-0.7871,-0.7925,-0.8009,-0.8285,-0.7768,-0.7555,-0.7633,-0.7633,-0.757,-0.7456,-0.6741,-0.602,-0.5428,-0.5428,-0.4964,-0.4233,-0.3766,-0.3567,-0.3567,-0.3301,-0.3102,-0.2898,0.0,0.0,0.0,0.0,0.0,0.0,0.0,0.0,0.0,0.0,0.0,0.0,0.0,0.0,0.0,0.0,0.0,0.0,-0.2961,-0.3067,-0.3123,-0.3123,-0.3306,-0.3258,-0.2898,-0.2815,-0.2907,-0.3173,-0.3353,-0.3442,-0.349,-0.4164,-0.4659,-0.5038,-0.6029,-0.6724,-0.7224,-0.8154,-0.8763,-0.919,-1.0078,-1.1433,-1.2938,0.0,0.0,0.0,0.0,0.0,0.0,0.0,0.0,0.0,-1.4945,-1.5166,-1.5424,-1.4452,-1.3582,-1.2789,-1.2064,-1.0881,0.0,-1.0138,0.0,0.0,0.0,-0.8296,0.0,0.0,-0.7557,-0.7824,-0.8037,-0.7877,-0.7824,-0.8037,-0.7984,-0.7925,-0.7925,-0.7984,-0.8037,-0.8037,-0.8143,-0.8143,-0.8143,-0.783,-0.7676,-0.7895,-0.7895,-0.7889,-0.7925,-0.856,-0.8725,-0.815,-0.8302,-0.8196,-0.7771,-0.7871,-0.7913,-0.8051,-0.8273,-0.8229,-0.7783,-0.7783,-0.7782,-0.7734,-0.7044,-0.6608,-0.6392,-0.5282,-0.4295,-0.3496,-0.3362,-0.3295,-0.3295,-0.323,-0.3027,-0.2688,0.0,0.0,0.0,0.0,0.0,0.0,0.0,0.0,0.0,0.0,0.0,0.0,0.0,0.0,0.0,0.0,0.0,0.0,0.0,-0.3803,-0.3642,-0.3642,-0.3626,-0.3527,-0.3291,-0.3484,-0.3628,-0.3712,-0.3468,-0.3423,-0.3712,-0.4521,-0.5208,-0.5808,-0.72,-0.797,-0.8457,-1.0383,-1.1364,-1.1777,-1.3286,-1.451,-1.5426,0.0,0.0,0.0,0.0,0.0,0.0,0.0,0.0,0.0,-1.6971,-1.7164,-1.7081,-1.5902,-1.4993,-1.4017,-1.2263,-1.1114,0.0,-0.9984,-0.9932,-0.988,-0.9503,0.0,0.0,-0.8084,-0.819,-0.8296,-0.856,-0.8402,-0.8349,-0.8554,-0.856,-0.856,-0.856,-0.856,-0.856,-0.856,-0.856,-0.856,-0.856,-0.8296,-0.8143,-0.8309,-0.8355,-0.8302,-0.8243,-0.883,-0.8883,-0.8355,-0.8567,-0.8514,-0.8143,-0.819,-0.8243,-0.8243,-0.8362,-0.8275,-0.7915,-0.8132,-0.8075,-0.7817,-0.7226,-0.6827,-0.6423,-0.565,-0.4821,-0.4025,-0.3889,-0.3689,-0.3426,-0.3291,-0.2887,-0.2487,0.0,0.0,0.0,0.0,0.0,0.0,0.0,0.0,0.0,0.0,0.0,0.0,0.0,0.0,0.0,0.0,0.0,0.0,0.0,0.0,-0.4941,-0.4965,-0.4245,-0.3863,-0.4004,-0.4581,-0.4589,-0.3978,-0.356,-0.3654,-0.4219,-0.5132,-0.5965,-0.6819,-0.8676,-0.9642,-1.014,-1.3206,-1.4796,-1.5433,-1.7543,-1.8174,-1.7823,-1.7699,0.0,0.0,0.0,0.0,0.0,0.0,0.0,0.0,-1.8161,-1.833,-1.7795,-1.6551,-1.5731,-1.46,-1.1939,-1.1089,-1.071,-0.9673,-1.0198,-1.0608,-0.9599,-0.9555,-0.9666,-0.9562,-0.9197,-0.904,-0.951,-0.9197,-0.9033,-0.951,-0.9614,-0.9614,-0.9614,-0.9614,-0.9614,-0.9614,-0.9614,-0.9614,-0.9614,-0.9562,-0.951,-0.951,-0.951,-0.9354,-0.8876,-0.8928,-0.8666,-0.8078,-0.8613,-0.8823,-0.8725,-0.8778,-0.8778,-0.8778,-0.8349,-0.8084,-0.8143,-0.8452,-0.8267,-0.7709,-0.7441,-0.6746,-0.597,-0.625,-0.5994,-0.5355,-0.4951,-0.4353,-0.382,-0.3482,-0.295,-0.242,0.0,0.0,0.0,0.0,0.0,0.0,0.0,0.0,0.0,0.0,0.0,0.0,0.0,0.0,0.0,0.0,0.0,0.0,0.0,0.0,-0.6088,-0.6374,-0.572,-0.5132,-0.4702,-0.4734,-0.4753,-0.4758,-0.4669,-0.4766,-0.5153,-0.6665,-0.8015,-0.9207,-1.0352,-1.1997,-1.3925,-1.4804,-1.5922,-1.7188,-1.8005,-1.8847,-1.9632,-1.9613,-1.993,0.0,0.0,0.0,0.0,0.0,0.0,0.0,-2.1468,-2.1446,-2.1011,-1.9649,-1.8024,-1.6309,-1.4676,-1.2786,0.0,-1.1167,-1.1015,-1.082,-1.0608,-1.0557,-1.0293,-0.904,-0.9145,-0.9458,-0.9562,-0.951,-0.9458,-0.9562,-0.9614,-0.9614,-0.9614,-0.9614,-0.9614,-0.9614,-0.9614,-0.9614,-0.9614,-0.919,-0.8988,-0.8988,-0.8988,-0.9079,-0.9429,-0.9814,-0.9814,-0.9273,-0.9377,-0.9013,-0.8084,-0.856,-0.8778,-0.883,-0.9406,-0.9725,-0.9673,-0.8472,-0.7891,-0.7806,-0.8457,-0.7765,-0.6136,-0.6232,-0.5876,-0.5269,-0.4616,-0.4345,-0.4268,-0.4665,-0.44,-0.3867,0.0,0.0,0.0,0.0,0.0,0.0,0.0,0.0,0.0,0.0,0.0,0.0,0.0,0.0,0.0,0.0,0.0,0.0,0.0,0.0,-0.7201,-0.6701,-0.6569,-0.6177,-0.5485,-0.5729,-0.5679,-0.5313,-0.6032,-0.6289,-0.6185,-0.766,-0.9017,-1.0258,-1.2501,-1.4147,-1.5402,-1.7815,-1.9146,-1.9722,-2.1103,-2.1469,-2.1205,-2.1205,-2.1051,-2.0848,-2.0848,0.0,0.0,0.0,0.0,0.0,0.0,0.0,-2.1213,-1.9947,-1.8885,-1.7496,-1.468,0.0,0.0,-1.2052,0.0,-1.1074,-1.1074,-1.1124,-1.0863,-0.9769,-0.9925,-1.0241,-1.0241,-1.0241,-1.0241,-1.0241,-1.0241,-1.0131,-0.9814,-0.9814,-0.971,-0.9465,-0.9413,-0.9517,-0.9762,-0.9555,-0.9503,-0.9769,-0.9873,-0.9917,-0.9909,-1.0123,-1.0072,-0.9592,-0.9791,-0.9592,-0.9033,-0.9607,-0.9873,-0.9821,-1.03,-1.0872,-1.1466,-0.9627,-0.8639,-0.8415,-0.9032,-0.8305,-0.6782,-0.723,-0.7061,-0.6459,-0.6163,-0.5858,-0.5577,-0.5913,-0.565,-0.5055,0.0,0.0,0.0,0.0,0.0,0.0,0.0,0.0,0.0,0.0,0.0,0.0,0.0,0.0,0.0,0.0,0.0,0.0,0.0,0.0,0.0,-0.7155,-0.7377,-0.7178,-0.6416,-0.6913,-0.6833,-0.6151,-0.7449,-0.7988,-0.7769,-0.8758,-0.9917,-1.1259,-1.4541,-1.6085,-1.6508,-2.0744,-2.2373,-2.2233,-2.4207,-2.3876,-2.2249,-2.2249,-2.1368,-2.0034,-2.0034,-1.9989,-1.9976,-2.0263,0.0,0.0,0.0,0.0,-2.0349,-1.928,-1.8931,-1.8075,-1.4383,0.0,-1.4529,-1.3231,-1.2572,0.0,-1.2259,-1.2163,-1.1883,-1.1395,-1.1068,-1.0922,-1.0922,-1.0922,-1.0922,-1.0922,-1.0922,-1.071,-1.0226,-1.0174,-0.9976,-0.9569,-0.9472,-0.9673,-1.0123,-1.0174,-1.0336,-1.0871,-1.1023,-1.0863,-1.0454,-1.0438,-1.032,-0.9976,-1.0277,-1.0515,-1.0711,-1.1187,-1.1518,-1.1709,-1.1753,-1.2435,-1.3582,-1.1936,-1.0758,-1.0058,-1.028,-0.9699,-0.8644,-0.9591,-0.9685,-0.9255,-0.9422,-0.9155,-0.8606,-0.882,-0.808,-0.6969,0.0,0.0,0.0,0.0,0.0,0.0,0.0,0.0,0.0,0.0,0.0,0.0,0.0,0.0,0.0,0.0,0.0,0.0,-1.158,0.0,0.0,-0.9247,-0.8808,-0.8292,-0.7659,-0.7478,-0.7643,-0.8311,-0.8705,-0.9553,-1.0705,-1.089,-1.1943,-1.3817,-1.5599,-1.7636,-1.9757,-2.1564,-2.2828,-2.3624,-2.3663,-2.3025,-2.214,-2.214,-2.1525,-2.0669,-2.0669,-2.0398,-2.0075,-2.0099,-2.0443,0.0,0.0,0.0,-2.0357,-1.9502,-1.8492,-1.7542,-1.7052,0.0,-1.6151,0.0,-1.6204,-1.6153,-1.6153,-1.5089,-1.4057,-1.4011,-1.2341,-1.0922,-1.0922,-1.0922,-1.0922,-1.0922,-1.0922,-1.0871,-1.0769,-1.0761,-1.0761,-1.0667,-1.0659,-1.071,-1.0761,-1.0761,-1.0812,-1.0871,-1.0922,-1.1074,-1.1469,-1.1519,-1.1469,-1.1418,-1.146,-1.19,-1.2797,-1.2864,-1.3595,-1.4883,-1.5236,-1.5691,-1.6208,-1.598,-1.5312,-1.4276,-1.4383,-1.4119,-1.3686,-1.4526,-1.4945,-1.5107,-1.5485,-1.5574,-1.5581,-1.6451,-1.4627,-1.1685,0.0,0.0,0.0,0.0,0.0,0.0,0.0,0.0,0.0,0.0,0.0,0.0,0.0,0.0,0.0,-1.4256,-1.4286,-1.3971,-1.3216,-1.229,-1.1639,-1.1364,-1.0772,-1.0144,-0.9546,-0.9,-0.8783,-0.8992,-0.9766,-1.0763,0.0,-1.3441,-1.466,-1.5567,-1.7737,-1.9688,-2.1536,-2.3277,-2.39,-2.3651,-2.3852,-2.3098,-2.1969,-2.2235,-2.1813,-2.1104,-2.0809,-2.0746,-2.0733,-2.0131,-2.027,-2.0614,-1.9733,0.0,0.0,0.0,-1.8075,-1.7948,-1.81,-1.7212,-1.6347,0.0,-1.6895,-1.6895,-1.6895,-1.6349,-1.5828,-1.5828,-1.4995,-1.397,-1.3028,-1.2842,-1.3156,-1.3998,-1.4162,-1.4036,-1.3741,-1.2948,-1.2278,-1.1969,-1.113,-1.0744,-1.1074,-1.1124,-1.1226,-1.1528,-1.2423,-1.2931,-1.2881,-1.37,-1.4049,-1.3853,-1.4049,-1.4381,-1.4828,-1.5131,-1.5457,-1.5845,-1.5799,-1.6372,-1.7474,-1.7245,-1.6577,-1.5604,-1.5684,-1.5776,-1.5921,-1.6347,-1.6943,-1.7627,-1.7878,-1.7986,-1.8022,-1.8466,-1.7557,-1.6152,0.0,0.0,0.0,0.0,0.0,0.0,0.0,0.0,0.0,0.0,0.0,0.0,0.0,0.0,0.0,0.0,-1.5401,-1.5289,-1.4649,-1.3643,-1.3091,-1.3123,-1.2202,-1.157,-1.1218,-1.0215,-0.9695,-0.9595,0.0,0.0,-1.3077,-1.559,-1.7237,-1.8234,-2.0067,-2.1411,-2.242,-2.4295,-2.4364,-2.3319,-2.3681,-2.2965,-2.1746,-2.2109,-2.1827,-2.1166,-2.066,-2.066,-2.0759,-1.9798,-1.9747,-1.9953,-1.9008,-1.8375,0.0,0.0,0.0,-1.8042,0.0,0.0,-1.6833,-1.7581,-1.7765,-1.7826,-1.8085,-1.7838,-1.7534,-1.7534,-1.7202,-1.6637,-1.5799,-1.5315,-1.5404,-1.656,-1.6744,-1.6461,-1.567,-1.4986,-1.4054,-1.2706,-1.2346,-1.2163,-1.2084,-1.2446,-1.2844,-1.3224,-1.4438,-1.4962,-1.4563,-1.5627,-1.6139,-1.5817,-1.6111,-1.6426,-1.6708,-1.7422,-1.7584,-1.7193,-1.6919,-1.745,-1.8693,-1.8377,-1.7924,-1.7432,-1.7473,-1.7713,-1.8125,-1.8607,-1.9262,-2.0035,-2.0402,-2.0554,-2.0588,-2.0875,-2.048,-1.9828,0.0,0.0,0.0,0.0,0.0,0.0,0.0,0.0,0.0,0.0,0.0,0.0,-1.4724,-1.5166,-1.5491,-1.5634,-1.6533,-1.6701,-1.5772,-1.4709,-1.4136,-1.4192,-1.2604,0.0,-1.2396,-1.0674,-1.0094,-1.071,0.0,0.0,-1.5376,-1.6772,-1.9306,-2.2649,-2.2344,-2.2234,-2.2386,-2.3616,-2.3694,-2.298,-2.2725,-2.2095,-2.1423,-2.1471,-2.1215,-2.0746,-2.0194,-1.9786,-1.9423,-1.8869,-1.8667,-1.8626,-1.8052,-1.7733,-1.7448,0.0,0.0,0.0,0.0,-1.7969,0.0,-1.9798,-2.0114,-2.0362,-2.1334,-2.0372,-1.9266,-1.9266,-1.8001,-1.733,-1.8788,-1.7803,-1.6793,-1.6885,-1.6895,-1.6345,-1.4791,-1.6094,-1.5927,-1.2528,-1.5028,-1.6307,-1.4428,-1.5609,-1.6507,-1.6448,-1.6547,-1.658,-1.6551,-1.6686,-1.6725,-1.664,-1.6716,-1.7277,-1.8354,-1.958,-2.0194,-2.0194,-2.0242,-2.0289,-2.038,-2.0431,-2.075,-2.1326,-2.1326,-2.1326,-2.1471,-2.2887,-2.3484,-2.3635,-2.4656,-2.5076,-2.5178,-2.629,-2.4777,-2.2326,0.0,0.0,0.0,0.0,0.0,0.0,0.0,0.0,0.0,0.0,0.0,0.0,0.0,-1.6217,-1.6586,-1.6644,-1.6994,-1.7225,-1.7269,-1.6595,-1.6691,-1.7839,-1.6509,-1.6151,-1.7043,-1.4407,-1.3923,0.0,0.0,-1.5507,-1.7965,-2.005,-2.1574,-2.2548,-2.2468,-2.2991,-2.3892,-2.3944,-2.3478,-2.268,-2.274,-2.2296,-2.1712,-2.2044,-2.1983,-2.1589,-2.0795,-2.0646,-2.0646,-1.9408,-1.9186,-1.9285,-1.7925,-1.7426,-1.7213,-1.6349,-1.5934,0.0,0.0,0.0,0.0,-1.8679,-1.9446,-2.0141,-2.0506,-2.0515,-2.0433,-2.0433,-1.9926,-1.9629,-2.0216,-1.9288,-1.8769,-1.9771,-1.992,-1.9726,-1.9145,-1.8794,-1.8159,-1.6884,-1.6751,-1.647,-1.5758,-1.6012,-1.6216,-1.6185,-1.7108,-1.7658,-1.7658,-1.8615,-1.9129,-1.9092,-1.911,-1.9297,-1.9717,-1.9749,-1.9626,-1.9375,-1.8964,-1.865,-1.8478,-1.886,-1.9251,-1.9615,-2.0881,-2.2154,-2.3375,-2.3923,-2.4519,-2.5199,-2.5573,-2.5707,-2.5779,-2.6268,-2.5738,-2.4835,0.0,0.0,0.0,0.0,0.0,0.0,0.0,0.0,0.0,0.0,0.0,0.0,0.0,0.0,-1.6231,-1.7063,-1.7737,-1.8222,-1.8493,-1.8336,-1.8766,-1.9949,-1.893,-1.8753,-1.9641,-1.678,-1.633,0.0,0.0,0.0,0.0,-2.2018,-2.3021,-2.3338,-2.3059,-2.351,-2.4451,-2.3937,-2.3231,-2.2572,-2.2723,-2.2449,-2.1949,-2.2137,-2.2091,-2.1793,-2.0845,-2.0746,-2.0858,-1.9668,-1.9512,-1.9581,-1.8177,-1.7369,-1.6769,-1.5867,-1.5255,-1.5061,-1.5726,0.0,0.0,-1.7277,-1.8047,-1.8753,-1.9426,-1.9905,-2.0307,-2.0667,-2.0698,-2.0681,-2.0681,-2.0077,-1.9981,-2.1131,-2.1325,-2.1128,-2.0577,-2.0165,-1.9499,-1.8302,-1.8072,-1.7745,-1.7068,-1.7171,-1.727,-1.7236,-1.8073,-1.8568,-1.8568,-1.9473,-1.9869,-1.9718,-1.9555,-1.9498,-1.9498,-1.8979,-1.8551,-1.8296,-1.7877,-1.7639,-1.7604,-1.8073,-1.8485,-1.8986,-2.035,-2.1872,-2.339,-2.353,-2.4069,-2.4759,-2.4728,-2.4782,-2.4891,-2.5542,-2.574,-2.5829,0.0,0.0,0.0,0.0,0.0,0.0,0.0,0.0,0.0,-1.1972,0.0,0.0,0.0,0.0,0.0,-1.6739,-1.8658,-1.9645,-1.9284,-1.9787,-2.0133,-2.0273,-1.9526,-1.9378,-1.9915,-1.7565,-1.705,-1.8493,-1.7628,-1.8876,-2.2073,-2.2397,-2.3567,-2.5301,-2.4287,-2.3797,-2.3754,-2.3407,-2.3008,-2.2615,-2.2615,-2.2417,-2.2137,-2.1616,-2.1423,-2.1264,-2.0346,-1.9991,-1.994,-1.9565,-1.942,-1.9316,-1.8721,-1.7427,-1.6009,-1.5519,-1.5018,-1.4628,0.0,0.0,0.0,-1.5844,-1.6021,-1.6475,-1.8375,-1.8701,-1.8914,-1.9928,-2.0162,-2.0147,-2.0162,-2.0162,-2.028,-2.0679,-2.0745,-2.0209,-1.8562,-1.9966,-1.9869,-1.6422,-1.9026,-2.0381,-1.8413,-1.9283,-1.9939,-1.9814,-1.9462,-1.9214,-1.9214,-1.8935,-1.8616,-1.8242,-1.7822,-1.7638,-1.7638,-1.7356,-1.7218,-1.7177,-1.7231,-1.7521,-1.8044,-1.8213,-1.879,-1.9738,-2.006,-2.0617,-2.1451,-2.2016,-2.2331,-2.2452,-2.2381,-2.25,-2.286,-2.4433,-2.4987,-2.5086,0.0,0.0,0.0,0.0,0.0,0.0,-0.9233,-0.9343,-0.9913,0.0,0.0,0.0,-1.3711,-1.419,-1.4616,-1.5257,-1.6458,-1.7466,-1.8249,-1.9001,-2.0189,-2.1843,-2.1823,-2.2177,-2.3123,-2.0821,-2.0658,-2.2859,-2.084,-2.1229,-2.3868,-2.4067,-2.42,-2.423,-2.3979,-2.3508,-2.2918,-2.2828,-2.2737,-2.2555,-2.237,-2.2091,-2.1746,-2.1616,-2.1361,-2.1042,-2.051,-2.0308,-2.0207,-1.9708,-1.9565,-1.9291,-1.7907,-1.6053,-1.4373,-1.4019,-1.3539,-1.3132,-1.2871,0.0,0.0,0.0,0.0,0.0,-1.6106,-1.6667,-1.737,-1.8508,-1.8702,-1.8792,-1.9346,-1.9163,-1.8925,-1.9051,-1.9641,-1.9914,-1.9436,-1.9702,-1.9593,-1.8618,-1.9154,-1.9379,-1.8812,-1.8852,-1.8646,-1.8021,-1.7836,-1.7491,-1.6885,-1.6679,-1.6514,-1.6417,-1.633,-1.6063,-1.566,-1.5142,-1.4733,-1.4537,-1.4158,-1.4148,-1.4542,-1.506,-1.55,-1.5903,-1.6911,-1.7798,-1.8688,-2.0731,-2.1615,-2.1615,-2.1602,-2.1649,-2.1758,-2.2292,-2.2505,-2.2476,0.0,0.0,0.0,0.0,0.0,0.0,-0.9688,-0.9681,-1.0028,0.0,0.0,0.0,-1.3256,-1.4316,-1.4965,-1.4929,-1.6111,-1.7231,-1.8066,-1.909,-2.0362,-2.182,-2.2566,-2.3243,-2.3903,-2.2363,-2.2571,-2.4589,-2.2601,-2.2685,-2.4735,-2.4517,-2.423,-2.3909,0.0,0.0,-2.2615,-2.2555,-2.2463,-2.2417,-2.2091,-2.1793,-2.1568,-2.1166,-2.0858,-2.061,-2.022,-2.0067,-2.0016,-1.9759,-1.9384,-1.8738,-1.7235,-1.5644,-1.4223,-1.383,-1.3292,-1.2772,-1.2531,-1.2634,-1.2745,-1.2745,0.0,0.0,-1.497,-1.5413,-1.6028,-1.7477,-1.7706,-1.78,-1.8277,-1.812,-1.7881,-1.7881,-1.826,-1.8641,-1.8852,-1.8941,-1.8919,-1.865,-1.8464,-1.8271,-1.8074,-1.7666,-1.7179,-1.6448,-1.6236,-1.5837,-1.5201,-1.4934,-1.4699,-1.4485,-1.4326,-1.4076,-1.3676,-1.3484,-1.3283,-1.3101,-1.2959,-1.3083,-1.3552,-1.3961,-1.4326,-1.4611,-1.5449,-1.6048,-1.6573,-1.8142,-1.929,-2.0116,-2.033,-2.0442,-2.0578,-2.1019,-2.1014,-2.0815,0.0,0.0,0.0,-1.036,-1.0257,-1.0308,-1.0506,-1.0608,-1.0761,0.0,-1.1267,-1.1678,-1.2382,-1.4,-1.5022,-1.5006,-1.6551,-1.7694,-1.8096,-1.9377,-2.0278,-2.0653,-2.213,-2.2966,-2.2966,-2.2627,-2.3071,-2.4313,-2.3173,-2.3289,-2.4608,-2.4032,-2.3852,-2.3894,0.0,0.0,-2.2555,-2.237,-2.2231,-2.2137,-2.1746,-2.1616,-2.1458,-2.0573,-2.0182,-2.0029,-1.9668,-1.95,-1.9448,-1.9592,-1.8951,-1.7863,-1.6778,-1.5797,-1.49,-1.4355,-1.3659,-1.3124,-1.287,-1.2673,-1.248,-1.2421,-1.2215,0.0,-1.4193,-1.4345,-1.4654,-1.6459,-1.6769,-1.6769,-1.6909,-1.6909,-1.6866,-1.6811,-1.6642,-1.6799,-1.7423,-1.78,-1.78,-1.7259,-1.7068,-1.6863,-1.6422,-1.5967,-1.5457,-1.4969,-1.4347,-1.3896,-1.359,-1.3135,-1.2647,-1.2241,-1.1899,-1.1563,-1.1332,-1.167,-1.1878,-1.1851,-1.2303,-1.2797,-1.3371,-1.3516,-1.3887,-1.4319,-1.4585,-1.4702,-1.4828,-1.4945,-1.6177,-1.8116,-1.8596,-1.8847,-1.9044,-1.9863,-1.9824,-1.9371,0.0,0.0,-0.919,-0.9145,-0.8732,-0.8427,-0.8474,-0.8883,-0.9406,-0.9873,-1.1108,-1.2026,-1.2323,-1.293,-1.3514,-1.3888,-1.4559,-1.5392,-1.6338,-1.7713,-1.8674,-1.9179,-2.0702,-2.1518,-2.1518,-2.1939,-2.2331,-2.2575,-2.2555,-2.2643,-2.298,-2.3054,-2.3024,-2.2873,-2.2217,-2.2137,-2.2417,-2.1949,-2.1793,-2.1841,-2.1793,-2.1541,-2.1188,-2.061,-1.9914,-1.9198,-1.9146,-1.8804,-1.8417,-1.8685,-1.8232,-1.7401,-1.6599,-1.5706,-1.4734,-1.3687,-1.3144,-1.2698,-1.2007,-1.155,-1.1116,-1.0635,-1.0474,0.0,-1.1864,-1.1747,-1.2006,-1.4103,-1.4209,-1.4222,-1.5192,-1.5025,-1.4665,-1.4189,-1.4665,-1.5484,-1.6756,-1.6587,-1.6188,-1.5971,-1.5182,-1.4598,-1.4405,-1.3893,-1.3299,-1.2599,-1.1154,-1.0319,-1.0226,-0.93,-0.8721,-0.8631,-0.8527,-0.8047,-0.7093,-0.7257,-0.7317,-0.723,-0.7451,-0.8091,-0.8983,-0.9098,-0.9693,-1.0711,-1.0767,-1.1643,-1.3036,-1.3036,-1.4191,-1.5904,-1.6017,-1.6064,-1.611,-1.6315,-1.6294,-1.6125,0.0,-0.9562,-0.9197,-0.9197,-0.8935,-0.8837,-0.9099,-0.9413,-0.9821,-1.0438,-1.1532,-1.2359,-1.287,-1.3053,-1.3516,-1.4204,-1.463,-1.5257,-1.6259,-1.7642,-1.8629,-1.9201,-2.0356,-2.1062,-2.1263,-2.176,-2.1913,-2.1677,-2.2114,-2.2221,-2.2007,-2.2035,-2.2035,-2.1941,-2.1575,-2.1492,-2.1684,-2.1492,-2.1607,-2.1866,-2.1615,-2.1237,-2.0696,-2.0003,-1.9396,-1.8987,-1.8815,-1.8643,-1.8536,-1.8375,-1.7852,-1.7124,-1.6224,-1.5429,-1.4591,-1.3398,-1.2905,-1.253,-1.1542,-1.1032,-1.0677,-1.0213,-1.0064,0.0,0.0,-1.1149,-1.1332,-1.2811,-1.2887,-1.2867,-1.3507,-1.3434,-1.3152,-1.2799,-1.3199,-1.3621,-1.386,-1.4711,-1.5073,-1.447,-1.3939,-1.3355,-1.2773,-1.23,-1.155,-1.037,-0.9519,-0.8854,-0.858,-0.7547,-0.6903,-0.6856,-0.637,-0.5798,-0.5176,-0.5435,-0.557,-0.5505,-0.5832,-0.6237,-0.6785,-0.685,-0.7371,-0.8292,-0.8292,-0.8995,-1.0216,-1.0216,-1.0739,-1.1798,-1.3322,-1.3933,-1.3865,-1.3271,-1.2829,-1.2666,-1.0035,0.0,-0.9354,-0.9354,-0.9458,-0.9688,-1.0223,-1.0446,-1.0883,-1.1687,-1.2192,-1.2778,-1.3575,-1.3711,-1.4141,-1.5133,-1.5371,-1.5917,-1.695,-1.8064,-1.8958,-1.9517,-2.0386,-2.0953,-2.1215,-2.1627,-2.1613,-2.1162,-2.1663,-2.1657,-2.1293,-2.1282,-2.1336,-2.1407,-2.1159,-2.1176,-2.1376,-2.1326,-2.1542,-2.194,-2.1462,-2.1088,-2.0643,-1.9715,-1.9287,-1.9168,-1.8733,-1.8733,-1.8963,-1.8324,-1.7823,-1.7248,-1.6095,-1.5409,-1.4717,-1.3568,-1.2997,-1.2481,-1.1195,-1.0733,-1.0463,-0.9888,-0.9755,-0.9961,0.0,0.0,0.0,-1.1576,-1.1567,-1.146,-1.1675,-1.1617,-1.1478,-1.129,-1.1545,-1.1411,-1.0471,-1.2147,-1.3226,-1.2464,-1.2454,-1.2083,-1.099,-1.0402,-0.9621,-0.8502,-0.8063,-0.7565,-0.6966,-0.5918,-0.5246,-0.505,-0.4237,-0.3792,-0.3671,-0.4066,-0.4247,-0.4141,-0.449,-0.4668,-0.4665,-0.4665,-0.5264,-0.6331,-0.6197,-0.6794,-0.7862,-0.7728,-0.7797,-0.8179,-1.0691,-1.1669,-1.16,-1.0623,-0.988,-0.965,-0.8738,-0.858,0.0,-0.8527,-0.8949,-0.9401,-0.9778,-1.0685,-1.1654,-1.2779,-1.3086,-1.3493,-1.4241,-1.441,-1.4935,-1.6076,-1.6165,-1.6632,-1.7702,-1.8202,-1.87,-1.9218,-2.0126,-2.0627,-2.0671,-2.1205,-2.1205,-2.0673,-2.1003,-2.0914,-2.0523,-2.1222,-2.1612,-2.1728,-2.1463,-2.1856,-2.2617,-2.191,-2.1677,-2.1809,-2.1745,-2.1882,-2.2003,-2.1126,-2.0439,-1.9842,-1.907,-1.8963,-1.907,-1.8371,-1.824,-1.819,-1.6792,-1.6094,-1.5609,-1.4474,-1.3529,-1.253,-1.0744,-1.0258,-0.9854,-0.8519,-0.8573,-0.8956,-0.9086,0.0,-0.8541,-0.9518,0.0,-0.8515,-0.9363,0.0,0.0,-0.8239,-0.8705,-0.8817,-0.8038,-0.8415,-0.895,-0.9394,-0.9775,-0.9585,-0.8416,-0.7488,-0.7068,-0.7439,-0.5725,-0.446,-0.3848,-0.2614,-0.1742,-0.134,-0.108,-0.0989,-0.1149,-0.1282,-0.1104,-0.0598,-0.0666,-0.0667,-0.0666,-0.0666,-0.1989,-0.4292,-0.3631,-0.5078,-0.7862,-0.7256,-0.739,-0.7926,-0.8302,-0.8425,-0.8425,-0.8292,-0.8163,-0.8168,-0.8964,-0.8717,0.0,-0.861,-0.8965,-0.9395,-0.9911,-1.0718,-1.1503,-1.2208,-1.2819,-1.3498,-1.4298,-1.5205,-1.6058,-1.6785,-1.7205,-1.7744,-1.8566,-1.9022,-1.9604,-2.0355,-2.0714,-2.1006,-2.1171,-2.1466,-2.1368,-2.0866,-2.1293,-2.1288,-2.0803,-2.0827,-2.1091,-2.1457,-2.0839,-2.105,-2.1788,-2.14,-2.1487,-2.1786,-2.1786,-2.2088,-2.2385,-2.0791,-1.9913,-1.9454,-1.8676,-1.8616,-1.8736,-1.7985,-1.7348,-1.6776,-1.6563,-1.5597,-1.4393,-1.3999,-1.2918,-1.1625,-1.0315,-1.0283,-1.0154,-0.8358,-0.878,-0.9372,-0.8306,-0.7932,-0.7835,-0.8117,0.0,0.0,0.0,0.0,0.0,0.0,-0.7203,-0.7052,-0.589,-0.6411,-0.7184,-0.7786,-0.7699,-0.7138,-0.5976,-0.5405,-0.5013,-0.4684,-0.3332,-0.2285,-0.1687,-0.0373,0.0446,0.0649,0.1053,0.121,0.1176,0.1107,0.1183,0.1477,0.1477,0.1394,0.1303,0.1303,0.0339,-0.1396,-0.1728,-0.2988,-0.4916,-0.5259,-0.5533,-0.58,-0.58,-0.6252,-0.6767,-0.6059,-0.58,-0.5928,-0.95,0.0,0.0,-0.9071,-0.9354,-0.9867,-1.0588,-1.1191,-1.1783,-1.2421,-1.3118,-1.4025,-1.5086,-1.6262,-1.7134,-1.7585,-1.8097,-1.8698,-1.9275,-1.9806,-2.0396,-2.0995,-2.138,-2.1571,-2.1597,-2.1666,-2.1457,-2.1058,-2.1227,-2.1096,-2.0598,-2.0358,-2.0592,-2.1149,-2.057,-2.0689,-2.1311,-2.1241,-2.1401,-2.1765,-2.1765,-2.2007,-2.2151,-2.0745,-1.9984,-1.9643,-1.8924,-1.88,-1.8862,-1.7924,-1.7021,-1.6244,-1.6598,-1.5384,-1.3862,-1.3898,-1.275,-1.1268,-1.0012,-1.0153,-1.0164,-0.8323,-0.8786,-0.935,-0.8034,-0.7714,-0.7618,-0.7443,-0.7292,0.0,0.0,0.0,-0.6514,-0.6055,0.0,-0.5496,-0.433,-0.4827,-0.5449,-0.5752,-0.5287,-0.4664,-0.3975,-0.3416,-0.2932,-0.254,-0.1326,-0.0449,0.0,0.1198,0.2045,0.2365,0.281,0.3065,0.3049,0.2835,0.2906,0.3266,0.2887,0.285,0.3002,0.2775,0.1982,0.0603,-0.0134,-0.1204,-0.2546,-0.3288,-0.3694,-0.383,-0.383,-0.435,-0.5001,-0.4492,-0.43,-0.4431,-1.0172,-0.9891,0.0,-0.9666,-1.0121,-1.0855,-1.1948,-1.2454,-1.3169,-1.4364,-1.4719,-1.5486,-1.7121,-1.7616,-1.8108,-1.8665,-1.8895,-1.9204,-1.9745,-2.0293,-2.0595,-2.0632,-2.1753,-2.2113,-2.1631,-2.1631,-2.1396,-2.0924,-2.0209,-1.9666,-1.9369,-1.9871,-2.0331,-2.084,-2.0985,-2.1479,-2.2137,-2.1803,-2.1678,-2.169,-2.169,-2.1514,-2.1285,-2.1553,-2.1416,-2.1049,-2.0311,-2.0052,-1.9857,-1.8459,-1.793,-1.7794,-1.7139,-1.6118,-1.5052,-1.4687,-1.3538,-1.1955,-0.9944,-0.9639,-0.953,-0.8218,-0.818,-0.8382,-0.8129,-0.7957,-0.7795,-0.779,-0.7305,-0.6998,-0.7348,-0.6392,-0.5538,0.0,-0.4664,0.0,0.0,-0.3338,-0.3009,-0.2687,-0.2288,-0.2178,-0.2543,-0.1217,-0.0804,-0.2041,0.0,0.1299,0.127,0.2124,0.3126,0.4176,0.4354,0.4411,0.4334,0.3691,0.4054,0.5272,0.3956,0.3911,0.4807,0.4076,0.2751,0.1072,0.1209,0.0,-0.1945,-0.1747,-0.2084,-0.2753,-0.2753,-0.2684,-0.2683,-0.3828,-0.43,-0.43,-1.0812,0.0,-1.0566,-1.0359,-1.0611,-1.1016,-1.1431,-1.1718,-1.2337,-1.3339,-1.4042,-1.5106,-1.6754,-1.7922,-1.8575,-1.8578,-1.9116,-1.9436,-1.9663,-2.0228,-2.0624,-2.0624,-2.1963,-2.2457,-2.1815,-2.1865,-2.198,-2.2092,-2.0922,-2.0654,0.0,0.0,0.0,-2.1725,-2.1066,-2.121,-2.1851,-2.1726,-2.1714,-2.1714,-2.1714,-2.1065,-2.0187,-2.1032,-2.1077,-2.0529,-1.935,-1.8776,-1.8333,-1.6925,-1.614,-1.5734,-1.5495,-1.4454,-1.3339,-1.3529,-1.2487,-1.1043,-0.998,-1.0164,-1.011,-0.798,-0.8499,-0.9291,-0.8069,-0.7812,-0.7683,-0.734,-0.676,-0.624,-0.593,-0.543,-0.4833,0.0,-0.4076,-0.3768,0.0,-0.23,-0.1398,-0.0675,-0.0681,-0.0625,-0.0442,-0.0066,0.0202,0.0475,0.1473,0.2373,0.2904,0.3793,0.4595,0.5343,0.5388,0.5635,0.6081,0.5855,0.5931,0.6385,0.5421,0.4951,0.4935,0.4186,0.3209,0.208,0.1073,0.0067,-0.0938,-0.1946,-0.2485,-0.2686,-0.2686,-0.2686,-0.2619,-0.3088,-0.3157,-0.3088,-1.1247,-1.1247,-1.1183,-1.0861,-1.0926,-1.1122,-1.1185,-1.1518,-1.2203,-1.3203,-1.4101,-1.5142,-1.6606,-1.7671,-1.8263,-1.8037,-1.8731,-1.9142,-1.9142,-1.9704,-1.9955,-1.9781,-2.1101,-2.1604,-2.0974,-2.1227,-2.1491,-2.1577,-2.0677,-2.042,0.0,0.0,0.0,0.0,-2.0161,-2.0161,-2.0741,-2.0741,-2.0741,-2.0719,-2.0602,-2.0102,-1.9544,-1.9865,-1.9783,-1.9382,-1.849,-1.7801,-1.7191,-1.6064,-1.5357,-1.4959,-1.4772,-1.3842,-1.2811,-1.2814,-1.197,-1.0753,-0.9902,-0.9997,-0.9879,-0.802,-0.8427,-0.9038,-0.8074,-0.7742,-0.7555,-0.7419,-0.6638,-0.5986,-0.5751,-0.5109,-0.4353,0.0,0.0,-0.3336,0.0,-0.1438,-0.0379,0.0195,0.0389,0.0584,0.073,0.1029,0.134,0.1652,0.2445,0.3257,0.4051,0.4735,0.555,0.6553,0.6479,0.6788,0.7553,0.7173,0.7145,0.7311,0.6314,0.5501,0.4932,0.4183,0.3347,0.242,0.1006,0.0201,-0.0134,-0.1544,-0.215,-0.215,-0.215,-0.2083,-0.2084,-0.2552,-0.2686,-0.2619,-1.1622,-1.1622,-1.1498,-1.1185,-1.1136,-1.1199,-1.131,-1.1966,-1.2806,-1.4032,-1.4848,-1.5701,-1.6757,-1.707,-1.7217,-1.7235,-1.7862,-1.8269,-1.8269,-1.8721,-1.8787,-1.8337,-1.9399,-1.9781,-1.9299,-1.9835,-1.9901,-1.9628,-1.9594,-1.9008,0.0,0.0,0.0,0.0,-1.8509,-1.871,-1.8977,-1.8977,-1.8967,-1.8971,-1.8581,-1.8776,-1.9214,-1.8184,-1.7749,-1.7667,-1.7647,-1.7213,-1.665,-1.589,-1.5634,-1.5496,-1.4785,-1.4057,-1.3404,-1.2676,-1.1941,-1.106,-0.9614,-0.9206,-0.8996,-0.8292,-0.7933,-0.7855,-0.8258,-0.7812,-0.7396,-0.7867,-0.6868,-0.6086,-0.6556,-0.5385,-0.4014,0.0,0.0,-0.2686,-0.1929,-0.071,0.013,0.0134,0.105,0.1518,0.1045,0.2033,0.2435,0.1656,0.2797,0.3895,0.4681,0.5074,0.6079,0.7706,0.7633,0.7863,0.8703,0.7706,0.7542,0.8038,0.6592,0.5499,0.4876,0.4141,0.3224,0.2154,0.1008,0.047,0.0403,-0.0672,-0.1076,-0.1076,-0.1076,-0.101,-0.0944,-0.2151,-0.2755,-0.2889,-1.1622,-1.1622,-1.1622,-1.1809,-1.1821,-1.1767,-1.1909,-1.2213,-1.2907,-1.4204,-1.449,-1.5201,-1.6702,-1.6978,-1.7101,-1.7345,-1.751,-1.7716,-1.7842,-1.8432,-1.8566,-1.8076,-1.9333,-1.9705,-1.9069,-1.9759,-1.989,-1.9541,-1.9034,-1.8787,-1.8721,0.0,0.0,0.0,-1.8844,-1.8911,-1.8977,-1.8977,-1.8837,-1.857,-1.8446,-1.7874,-1.7033,-1.7233,-1.6557,-1.5592,-1.6336,-1.6247,-1.5692,-1.5051,-1.4495,-1.3978,-1.3289,-1.2602,-1.1966,-1.1563,-1.1102,-1.0484,-0.9505,-0.9206,-0.8925,-0.7943,-0.8047,-0.8424,-0.8494,-0.8528,-0.8292,-0.7625,-0.683,-0.599,-0.5098,-0.4169,-0.3241,-0.2496,-0.197,-0.112,0.0133,0.0597,0.1197,0.2277,0.24,0.2157,0.1607,0.157,0.19,0.2565,0.2692,0.3424,0.4846,0.5002,0.5854,0.7557,0.7557,0.7791,0.8479,0.8112,0.7864,0.7877,0.6828,0.5821,0.4876,0.4141,0.3224,0.2154,0.1008,0.047,0.0403,-0.0672,-0.1076,-0.1076,-0.1076,-0.1076,-0.1076,-0.1212,-0.1413,-0.1613,-1.1498,-1.1747,-1.1934,-1.1872,-1.2022,-1.2208,-1.2274,-1.2656,-1.3252,-1.395,-1.4348,-1.5003,-1.5907,-1.6085,-1.625,-1.6655,-1.6906,-1.7184,-1.7491,-1.7823,-1.7901,-1.7657,-1.8345,-1.8603,-1.822,-1.8844,-1.8977,-1.8633,-1.8566,-1.8375,-1.8114,0.0,0.0,0.0,-1.8114,-1.8114,-1.8094,-1.7908,-1.777,-1.7661,-1.7153,-1.6651,0.0,-1.6029,-1.521,-1.4258,-1.4907,-1.5141,-1.5059,-1.4725,-1.4121,-1.3381,-1.2696,-1.2089,-1.1464,-1.0748,-1.0484,-1.0183,-0.9192,-0.8894,-0.869,-0.7884,-0.802,-0.822,-0.7942,-0.7783,-0.743,-0.6693,-0.5811,-0.4948,-0.448,-0.3549,-0.2616,-0.1946,-0.0604,0.0469,0.1005,0.1608,0.2344,0.3082,0.3017,0.2849,0.2583,0.1989,0.2192,0.3516,0.3609,0.4246,0.5854,0.616,0.67,0.7714,0.7642,0.7829,0.812,0.7869,0.7655,0.741,0.6847,0.5884,0.4657,0.4185,0.3357,0.2154,0.1008,0.047,0.0403,-0.0672,-0.1076,-0.1076,-0.1076,-0.0941,-0.0739,-0.0875,-0.1009,-0.1076,-1.124,-1.1802,-1.2112,-1.1545,-1.1919,-1.2359,-1.2421,-1.3048,-1.3567,-1.363,-1.429,-1.478,-1.4833,-1.4962,-1.5177,-1.5557,-1.6124,-1.6643,-1.6995,-1.707,-1.7097,-1.7166,-1.7166,-1.7166,-1.7166,-1.7579,-1.7725,-1.7401,-1.7901,-1.7696,0.0,0.0,0.0,0.0,-1.6769,-1.6733,-1.666,-1.6391,-1.63,-1.6403,-1.5417,-1.5355,-1.5667,-1.4685,-1.395,-1.3511,-1.364,-1.4061,-1.4469,-1.4469,-1.3923,-1.3199,-1.2642,-1.2035,-1.1428,-1.0364,-1.011,-0.9913,-0.8812,-0.849,-0.8431,-0.8112,-0.7987,-0.7787,-0.7125,-0.6535,-0.6009,-0.5617,-0.4558,-0.3761,-0.4148,-0.308,-0.188,-0.1143,0.0671,0.1811,0.1273,0.2278,0.3149,0.3349,0.3282,0.0,0.3832,0.3019,0.3042,0.4481,0.4874,0.5695,0.7134,0.7507,0.7799,0.8027,0.7804,0.7731,0.7734,0.7245,0.7005,0.6858,0.6668,0.5677,0.4154,0.4287,0.3556,0.2154,0.1076,0.0605,0.0538,-0.047,-0.0941,-0.1008,-0.1008,-0.0739,-0.047,-0.0941,-0.1076,-0.1076,-1.0807,-1.0807,-1.0996,-1.1052,-1.117,-1.1421,-1.1864,-1.2715,-1.343,-1.3744,-1.3987,-1.4276,-1.4621,-1.4647,-1.4797,-1.5168,-1.5628,-1.5977,-1.6193,-1.6501,-1.6751,-1.6978,-1.6968,-1.6968,-1.6968,-1.6982,-1.6982,-1.6978,-1.6428,-1.614,0.0,-1.6105,-1.6105,-1.5974,-1.5974,-1.5861,-1.5683,-1.5765,-1.5462,-1.4988,-1.48,-1.425,-1.3518,-1.3338,-1.326,-1.3329,-1.339,-1.326,-1.313,-1.3252,-1.2834,-1.2228,-1.2104,-1.1365,-1.0491,-1.0301,-0.9792,-0.9145,-0.8619,-0.8501,-0.8447,-0.8052,-0.7787,-0.7521,-0.7456,-0.6732,-0.5943,-0.5286,-0.4885,-0.4217,-0.3015,-0.1476,-0.0269,0.0135,0.0807,0.1411,0.1878,0.2146,0.2748,0.3951,0.3687,0.3931,0.5155,0.4346,0.4237,0.5417,0.5812,0.6356,0.717,0.7236,0.7318,0.7407,0.7402,0.7462,0.7586,0.6631,0.6109,0.6118,0.578,0.4834,0.3416,0.402,0.3556,0.2154,0.148,0.1143,0.1143,0.047,-0.0067,-0.047,-0.047,-0.0672,-0.0941,-0.1076,-0.1076,-0.1076,-1.1782,-1.1652,-1.1455,-1.1324,-1.1586,-1.1848,-1.1855,-1.2626,-1.3265,-1.338,-1.3216,-1.3475,-1.4355,-1.3917,-1.3805,-1.4499,-1.4618,-1.4715,-1.5044,-1.5401,-1.5604,-1.5683,-1.5683,-1.5683,-1.5683,-1.5649,-1.5869,-1.6333,-1.5525,-1.5384,-1.5982,-1.5551,-1.5409,-1.5471,-1.5278,-1.5052,-1.4689,-1.4635,-1.429,-1.3776,-1.3776,-1.3473,-1.3009,-1.3009,-1.2834,-1.2658,-1.272,-1.2474,-1.2158,-1.2895,-1.265,-1.1988,-1.1988,-1.1303,-1.0364,-1.0104,-0.9588,-0.9081,-0.863,-0.8247,-0.7922,-0.7787,-0.7326,-0.6859,-0.6465,-0.6005,-0.5477,-0.4688,-0.4156,-0.3418,-0.1879,-0.0806,0.0,0.0404,0.1144,0.1879,0.2547,0.3015,0.3618,0.4755,0.4625,0.4785,0.5464,0.5523,0.5657,0.6026,0.6316,0.6699,0.707,0.7586,0.7629,0.7166,0.7162,0.7091,0.7091,0.6561,0.6058,0.5631,0.5483,0.4613,0.3215,0.3551,0.3153,0.2154,0.1547,0.1277,0.121,0.0403,-0.0067,-0.0336,-0.0605,-0.0672,-0.0739,-0.1008,-0.1076,-0.1076,-1.2287,-1.2219,-1.1819,-1.1485,-1.1894,-1.2098,-1.156,-1.2098,-1.2653,-1.301,-1.2758,-1.2953,-1.4013,-1.324,-1.3034,-1.3891,-1.3811,-1.3807,-1.4146,-1.4411,-1.4601,-1.4601,-1.4601,-1.4601,-1.4601,-1.4458,-1.4752,-1.5542,-1.4601,-1.4609,-1.563,-1.4974,-1.476,-1.4974,-1.4678,-1.4318,-1.3892,-1.3598,-1.323,-1.2879,-1.2879,-1.2826,-1.2712,-1.2712,-1.2343,-1.1926,-1.2112,-1.1747,-1.1365,-1.2405,-1.2413,-1.1926,-1.1794,-1.1108,-1.0288,-0.9837,-0.9396,-0.9017,-0.8441,-0.7917,-0.7456,-0.7326,-0.6728,-0.6001,-0.5408,-0.5077,-0.4616,-0.3959,-0.3088,-0.2082,-0.0739,-0.0201,0.0336,0.0942,0.1746,0.2482,0.3082,0.3685,0.4353,0.5093,0.516,0.5226,0.5362,0.6131,0.6535,0.6472,0.6962,0.7199,0.7107,0.792,0.801,0.7253,0.7037,0.6991,0.7026,0.6462,0.5894,0.5256,0.5027,0.4281,0.3017,0.3149,0.2818,0.2154,0.1681,0.1412,0.121,0.0269,-0.0202,-0.0336,-0.0739,-0.0739,-0.0538,-0.0941,-0.1076,-0.1008,-1.0873,-1.0811,-1.0811,-1.0949,-1.1018,-1.088,-1.0257,-1.0257,-1.0985,-1.2899,-1.3275,-1.3325,-1.3457,-1.3391,-1.3333,-1.3431,-1.3771,-1.3992,-1.4024,-1.4411,-1.4601,-1.4601,-1.4601,-1.4601,-1.4601,-1.3962,-1.3962,-1.4744,-1.3237,-1.3025,-1.3977,-1.3977,-1.3977,-1.4186,-1.4057,-1.3705,-1.3271,-1.3122,-1.2838,-1.2573,-1.2573,-1.2212,-1.174,-1.174,-1.1685,-1.1622,-1.1685,-1.131,-1.0863,-1.0989,-1.1303,-1.156,-1.1059,-1.0534,-0.9958,-0.946,-0.8958,-0.8447,-0.7787,-0.7521,-0.7326,-0.6662,-0.5935,-0.5408,-0.5342,-0.4217,-0.3224,-0.309,-0.1813,-0.0537,0.0268,0.094,0.1679,0.2547,0.2818,0.2954,0.3151,0.3282,0.3551,0.4287,0.442,0.4688,0.5362,0.5505,0.5852,0.6593,0.7931,0.8344,0.7601,0.7999,0.8084,0.7801,0.7125,0.7133,0.8056,0.5705,0.4552,0.4645,0.3794,0.3019,0.2287,0.2952,0.2818,0.2221,0.2154,0.1817,0.1277,0.0672,0.0134,-0.0336,-0.0336,-0.0672,-0.1008,-0.1076,-0.1076,-0.0941,-1.1957,-1.1592,-1.1159,-1.087,-1.1232,-1.1153,-1.0132,-1.0356,-1.0791,-1.12,-1.0969,-1.1233,-1.252,-1.1927,-1.1805,-1.2699,-1.2797,-1.2706,-1.2706,-1.2625,-1.2718,-1.3164,-1.2792,-1.2492,-1.2492,-1.2211,-1.2198,-1.2451,-1.1977,-1.207,-1.2718,-1.3178,-1.3331,-1.3171,-1.3282,-1.306,-1.2491,-1.2304,-1.1985,-1.1767,-1.1375,-1.1008,-1.0661,-1.0661,-1.0661,-1.0661,-1.0661,-1.0471,-1.0345,-1.0345,-1.0471,-1.0598,-1.0408,-0.9964,-0.9454,-0.8801,-0.8296,-0.7722,-0.706,-0.6531,-0.6133,-0.5804,-0.5216,-0.4556,-0.4148,-0.3549,-0.3019,-0.2551,-0.1274,0.0,0.0738,0.1544,0.2216,0.2683,0.2887,0.3222,0.3754,0.3885,0.4154,0.4891,0.4957,0.5093,0.5362,0.5752,0.6141,0.647,0.7247,0.7591,0.7398,0.7641,0.7523,0.6989,0.666,0.6697,0.7103,0.6081,0.5379,0.5094,0.4703,0.3949,0.2818,0.3084,0.2616,0.1681,0.1681,0.1143,0.0336,0.0134,-0.0269,-0.0806,-0.0806,-0.0941,-0.1076,-0.1076,-0.1076,-0.101,-1.2526,-1.215,-1.1632,-1.0962,-1.1335,-1.1254,-0.9744,-1.0056,-1.0132,-0.9448,-0.9023,-0.946,-1.1338,-1.0667,-1.0615,-1.174,-1.165,-1.1558,-1.1631,-1.123,-1.1186,-1.1781,-1.126,-1.0887,-1.0887,-1.1037,-1.1093,-1.1063,-1.1242,-1.1477,-1.1835,-1.2445,-1.2599,-1.2365,-1.2428,-1.2219,-1.1837,-1.1474,-1.1228,-1.1116,-1.0648,-1.0388,-1.0204,-1.0204,-1.0204,-1.0204,-1.0204,-1.0083,-0.9885,-0.9885,-0.9771,-0.9582,-0.9773,-0.9588,-0.9139,-0.8221,-0.7772,-0.7326,-0.633,-0.5672,-0.5276,-0.508,-0.4489,-0.3825,-0.3351,-0.2882,-0.228,-0.1341,-0.0335,0.0604,0.1611,0.2281,0.2817,0.3222,0.3422,0.3689,0.4422,0.4553,0.477,0.5356,0.543,0.543,0.543,0.5888,0.6262,0.64,0.6647,0.6869,0.7012,0.7122,0.7026,0.6764,0.6493,0.656,0.6826,0.636,0.5955,0.548,0.5319,0.4523,0.3297,0.2999,0.2435,0.1547,0.1345,0.0874,0.0134,0.0,-0.0269,-0.0605,-0.0605,-0.0739,-0.0874,-0.0874,-0.1014,-0.1228,-1.2003,-1.2003,-1.1781,-1.1186,-1.1111,-1.0582,-0.8927,-0.8699,-0.8551,-0.8178,-0.8102,-0.8546,-0.9809,-0.9884,-1.004,-1.0507,-1.0507,-1.0657,-1.1105,-1.0738,-1.0519,-1.0513,-1.0519,-1.0519,-1.0519,-1.0887,-1.1111,-1.1111,-1.1111,-1.1186,-1.1409,-1.1632,-1.1706,-1.1694,-1.1335,-1.1209,-1.119,-1.0842,-1.0723,-1.0717,-1.0717,-1.0717,-1.0717,-1.0717,-1.0717,-1.0717,-1.0717,-1.0196,-0.9571,-0.9571,-0.9091,-0.8641,-0.9145,-0.9274,-0.9081,-0.7847,-0.7521,-0.719,-0.5738,-0.5276,-0.5147,-0.4498,-0.3756,-0.3215,-0.3215,-0.2147,-0.0739,0.0739,0.1076,0.1545,0.3153,0.3284,0.3551,0.4628,0.4694,0.4691,0.502,0.5087,0.5209,0.5569,0.5586,0.5586,0.5586,0.5586,0.5859,0.6346,0.64,0.647,0.6675,0.6388,0.6619,0.7564,0.6813,0.6881,0.7894,0.639,0.5638,0.5572,0.5077,0.4349,0.3557,0.2622,0.221,0.2154,0.1547,0.1277,0.121,0.0739,0.047,0.047,0.047,0.0134,-0.0336,-0.0336,-0.0889,-0.1611,-1.2157,-1.1781,-1.118,-1.0426,-1.0271,-0.9825,-0.8479,-0.8775,-0.8998,-0.8551,-0.8475,-0.8627,-0.9074,-0.9609,-1.0137,-1.0887,-1.0887,-1.0962,-1.1111,-1.0443,-1.0368,-1.0887,-1.0368,-1.0067,-1.0067,-1.0218,-0.9986,-0.9458,-1.0137,-1.0887,-1.1632,-1.126,-1.1111,-1.1105,-1.139,-1.1279,-1.0905,-1.0821,-1.0683,-1.0521,-1.0099,-0.9848,-0.9689,-0.9689,-0.9689,-0.9689,-0.9689,-0.95,-0.9295,-0.9295,-0.9176,-0.8917,-0.8564,-0.8286,-0.7907,-0.699,-0.64,-0.5804,-0.4888,-0.4625,-0.4425,-0.3754,-0.3351,-0.2948,-0.2013,-0.0671,0.0672,0.1611,0.2214,0.2681,0.3218,0.3623,0.4252,0.5287,0.5637,0.601,0.668,0.7038,0.7268,0.7333,0.7526,0.7677,0.7677,0.7173,0.7134,0.7929,0.6766,0.6237,0.6806,0.6724,0.6741,0.6933,0.6655,0.6796,0.7285,0.6792,0.6227,0.5657,0.5487,0.4643,0.327,0.26,0.2008,0.1493,0.1493,0.1209,0.0853,0.0711,0.0569,0.0426,0.0569,0.0355,0.0,0.0142,-0.0071,-0.0505,-1.1397,-1.1025,-1.0426,-0.9599,-0.9599,-0.9296,-0.8255,-0.8627,-0.9003,-0.8932,-0.8932,-0.9008,-0.916,-0.9614,-1.0067,-1.0368,-1.0443,-1.0513,-1.0663,-1.0067,-0.9922,-1.0363,-0.9685,-0.9387,-0.9695,-0.9539,-0.9236,-0.8703,-0.9306,-0.9981,-1.0582,-1.0513,-1.0438,-1.0519,-1.0887,-1.0812,-1.0438,-1.0438,-1.0353,-1.0217,-0.9854,-0.961,-0.9475,-0.9475,-0.9475,-0.9475,-0.9475,-0.9416,-0.9346,-0.9346,-0.9281,-0.9066,-0.8287,-0.7688,-0.7144,-0.6328,-0.5784,-0.531,-0.4637,-0.4224,-0.3877,-0.3388,-0.2835,-0.2007,-0.0554,0.0485,0.146,0.2525,0.3299,0.3869,0.4262,0.4841,0.558,0.6384,0.6682,0.7149,0.792,0.8297,0.8471,0.8621,0.8748,0.883,0.883,0.8378,0.8326,0.877,0.7282,0.6592,0.7124,0.671,0.6483,0.652,0.6523,0.6666,0.7023,0.7021,0.6836,0.6252,0.5718,0.4678,0.3171,0.2514,0.1914,0.1386,0.1385,0.1312,0.1166,0.0948,0.0948,0.1093,0.1093,0.0875,0.051,0.0583,0.0293,-0.0222,-0.9895,-0.9895,-0.9593,-0.8851,-0.8922,-0.8922,-0.825,-0.8479,-0.8856,-0.9246,-0.9322,-0.9468,-0.9765,-0.9841,-0.9614,-0.9246,-0.9246,-0.9473,-0.9771,-0.9473,-0.9246,-0.917,-0.847,-0.8394,-0.9165,-0.878,-0.8623,-0.8623,-0.8623,-0.8623,-0.8703,-0.9463,-0.9841,-0.9922,-0.9922,-0.9922,-0.9922,-0.9922,-0.9922,-0.9922,-0.9922,-0.9922,-0.9922,-0.9922,-0.9922,-0.9922,-0.9922,-0.9782,-0.9604,-0.9604,-0.9448,-0.9113,-0.826,-0.7468,-0.6746,-0.5946,-0.5656,-0.5512,-0.4795,-0.3998,-0.3344,-0.3272,-0.211,-0.051,0.1022,0.1462,0.1913,0.3543,0.4387,0.517,0.5918,0.663,0.7242,0.7795,0.7876,0.8111,0.888,0.8956,0.9106,0.9468,0.9503,0.9513,0.9513,0.9434,0.936,0.9177,0.8125,0.7488,0.765,0.6519,0.5988,0.641,0.641,0.663,0.6989,0.7082,0.7096,0.7017,0.5487,0.4253,0.3257,0.2429,0.1951,0.1686,0.132,0.1466,0.198,0.1393,0.1613,0.2201,0.1833,0.1539,0.1172,0.1026,0.0372,-0.0455,-0.9895,-0.9372,-0.8998,-0.915,-0.8237,-0.7783,-0.8865,-0.8551,-0.8618,-0.962,-0.9771,-0.9539,-0.9008,-0.9008,-0.8699,-0.8003,-0.9079,-0.9544,-0.9008,-0.8932,-0.8546,-0.7927,-0.777,-0.7693,-0.7927,-0.7846,-0.777,-0.777,-0.777,-0.808,-0.8703,-0.8932,-0.9311,-0.9922,-0.9922,-0.9922,-0.9922,-0.9922,-0.9922,-0.9922,-0.9922,-0.9922,-0.9922,-0.9922,-0.9922,-0.9922,-0.9922,-0.9884,-0.9841,-0.9841,-0.9798,-0.9522,-0.8094,-0.7488,-0.7135,-0.6009,-0.5369,-0.4723,-0.3923,-0.3561,-0.3125,-0.1965,-0.0437,0.1025,0.2016,0.2699,0.3469,0.4484,0.5277,0.5825,0.6093,0.6637,0.7447,0.8512,0.8622,0.907,1.0513,1.0693,1.0795,1.1249,1.1508,1.1624,1.1624,1.1046,1.0683,1.0726,0.8968,0.7909,0.7951,0.6961,0.6416,0.6533,0.6525,0.6677,0.6901,0.6942,0.6419,0.5266,0.3667,0.2657,0.2259,0.2026,0.1864,0.1622,0.17,0.1777,0.1931,0.1777,0.17,0.1777,0.1854,0.1622,0.1313,0.139,0.1163,0.0857,-0.9074,-0.8851,-0.8623,-0.847,-0.7931,-0.7625,-0.8093,-0.8008,-0.8075,-0.8689,-0.8765,-0.8613,-0.8237,-0.8156,-0.8003,-0.754,-0.8304,-0.8613,-0.8156,-0.8156,-0.7927,-0.754,-0.708,-0.708,-0.7464,-0.708,-0.693,-0.693,-0.693,-0.731,-0.8161,-0.8546,-0.916,-0.9922,-0.9922,-0.9922,-0.9922,-0.9922,-0.9922,-0.9922,-0.9922,-0.9922,-0.9922,-0.9922,-0.9922,-0.9922,-0.9922,-0.9992,-1.0067,-1.0067,-0.9841,-0.9377,-0.8156,-0.7544,-0.6988,-0.5904,-0.5237,-0.4667,-0.3834,-0.331,-0.249,-0.0458,0.0696,0.1643,0.2929,0.3572,0.4314,0.5476,0.6316,0.6905,0.7301,0.7967,0.8737,0.9577,0.9843,1.03,1.1432,1.1781,1.1946,1.2282,1.2403,1.2493,1.2493,1.2067,1.1866,1.1918,1.005,0.887,0.887,0.7315,0.6562,0.6567,0.6563,0.6714,0.6865,0.6475,0.5541,0.3988,0.3054,0.2275,0.1729,0.1729,0.165,0.1493,0.1335,0.1493,0.1729,0.1415,0.1493,0.1729,0.165,0.1572,0.1415,0.1493,0.1415,0.1335,-0.8025,-0.825,-0.8322,-0.7557,-0.7553,-0.7548,-0.7092,-0.7161,-0.7387,-0.7464,-0.7464,-0.7464,-0.731,-0.731,-0.7234,-0.7157,-0.7157,-0.7157,-0.731,-0.731,-0.7234,-0.7157,-0.6391,-0.6395,-0.708,-0.6395,-0.6012,-0.6012,-0.6012,-0.6468,-0.731,-0.8008,-0.8775,-0.9539,-0.9539,-0.9539,-0.9614,-0.9614,-0.969,-0.9765,-0.969,-0.969,-0.9765,-0.969,-0.9614,-0.9614,-0.9765,-0.9916,-1.0062,-1.0062,-0.976,-0.915,-0.8268,-0.7512,-0.6698,-0.5663,-0.5148,-0.4671,-0.3874,-0.2925,-0.159,0.0812,0.1491,0.2017,0.3707,0.4216,0.4749,0.6319,0.7207,0.7939,0.8773,0.951,1.0125,1.0549,1.0895,1.1327,1.1929,1.2272,1.2534,1.2705,1.2705,1.2705,1.2705,1.2705,1.2705,1.2705,1.0847,0.97,0.9666,0.7678,0.6486,0.6567,0.6563,0.6641,0.6788,0.5854,0.4688,0.321,0.2976,0.2431,0.1572,0.1572,0.1493,0.1257,0.0864,0.1021,0.1493,0.0943,0.1178,0.1807,0.1415,0.1415,0.1572,0.1336,0.1335,0.1335,-0.7638,-0.7638,-0.7557,-0.7096,-0.6405,-0.6325,-0.7238,-0.6853,-0.67,-0.7387,-0.7464,-0.7234,-0.6468,-0.6391,-0.6163,-0.5476,-0.5401,-0.5705,-0.6391,-0.6391,-0.6089,-0.5401,-0.5249,-0.5246,-0.5401,-0.5246,-0.5168,-0.5168,-0.5168,-0.5631,-0.6391,-0.6549,-0.7084,-0.7846,-0.7846,-0.8003,-0.8165,-0.8165,-0.8618,-0.9301,-0.8613,-0.877,-0.9301,-0.8613,-0.8389,-0.8466,-0.915,-0.9377,-0.9453,-0.9453,-0.9372,-0.9027,-0.7655,-0.7153,-0.6704,-0.4971,-0.4412,-0.4153,-0.3155,-0.1662,-0.0083,0.1086,0.1927,0.2783,0.4038,0.4832,0.5551,0.6543,0.7274,0.7979,0.8798,0.951,1.0125,1.0549,1.0381,1.0641,1.1843,1.1757,1.1843,1.2619,1.2705,1.2705,1.2705,1.2705,1.2705,1.2705,1.0847,0.9633,0.9534,0.7608,0.6486,0.6342,0.6335,0.6338,0.6412,0.5004,0.4222,0.3912,0.251,0.1728,0.1572,0.1415,0.1335,0.1257,0.1257,0.1257,0.1335,0.1257,0.1257,0.1415,0.1335,0.1335,0.1335,0.1335,0.1335,0.1335,-0.7859,-0.7625,-0.7318,-0.663,-0.6167,-0.5938,-0.6167,-0.5783,-0.5705,-0.6089,-0.6167,-0.6012,-0.5631,-0.5553,-0.5401,-0.5015,-0.5018,-0.501,-0.4919,-0.5315,-0.5398,-0.5018,-0.5018,-0.5018,-0.5018,-0.5018,-0.5018,-0.5018,-0.5018,-0.5401,-0.624,-0.6321,-0.6861,-0.7698,-0.7774,-0.7851,-0.7931,-0.7931,-0.8232,-0.8613,-0.8232,-0.8309,-0.8613,-0.8232,-0.808,-0.8156,-0.8537,-0.8689,-0.8856,-0.8894,-0.87,-0.8347,-0.7749,-0.7245,-0.6538,-0.5002,-0.3641,-0.2602,-0.21,-0.0593,0.1027,0.1967,0.2931,0.3836,0.4842,0.564,0.6443,0.7204,0.7921,0.8627,0.9331,0.9772,1.0038,1.0207,1.0294,1.0636,1.1494,1.1671,1.1929,1.2619,1.2705,1.2705,1.2705,1.2272,1.1958,1.182,1.0015,0.8862,0.8746,0.7354,0.6441,0.6376,0.6302,0.6103,0.5631,0.4457,0.3679,0.3212,0.2041,0.1415,0.1415,0.1335,0.1335,0.1335,0.1335,0.1335,0.1335,0.1335,0.1335,0.1335,0.1335,0.1335,0.1335,0.1335,0.1335,0.1335,-0.7765,-0.7415,-0.6927,-0.6086,-0.5935,-0.5705,-0.5093,-0.5018,-0.5018,-0.5018,-0.5018,-0.4937,-0.4779,-0.4701,-0.4623,-0.4465,-0.4387,-0.4148,-0.3519,-0.407,-0.4387,-0.4387,-0.4387,-0.4387,-0.4387,-0.4623,-0.4701,-0.4701,-0.4937,-0.5323,-0.6012,-0.6173,-0.6633,-0.7322,-0.7472,-0.7621,-0.7851,-0.7702,-0.7851,-0.8237,-0.7855,-0.7778,-0.7931,-0.7778,-0.7706,-0.7702,-0.7855,-0.8111,-0.8245,-0.8317,-0.8083,-0.7749,-0.7687,-0.725,-0.6444,-0.5026,-0.2932,-0.1109,-0.1025,0.0173,0.1574,0.2623,0.3627,0.4567,0.5727,0.6432,0.7041,0.7921,0.8536,0.9157,0.9859,1.0038,1.0038,1.0038,1.0381,1.0722,1.1241,1.1666,1.2186,1.2619,1.2705,1.2681,1.262,1.1753,1.1139,1.0985,0.9252,0.8168,0.8028,0.706,0.6424,0.6424,0.6318,0.5867,0.5004,0.4222,0.3366,0.251,0.1649,0.1335,0.1335,0.1335,0.1335,0.1335,0.1335,0.1335,0.1335,0.1335,0.1335,0.1335,0.1335,0.1335,0.1335,0.1335,0.1335,0.1335,-0.677,-0.6417,-0.6012,-0.5246,-0.5093,-0.5093,-0.5018,-0.5018,-0.5018,-0.5018,-0.5018,-0.4701,-0.3988,-0.391,-0.3597,-0.2738,-0.266,-0.2659,-0.2581,-0.2659,-0.266,-0.266,-0.266,-0.266,-0.266,-0.3441,-0.391,-0.391,-0.4621,-0.5093,-0.5398,-0.5398,-0.5556,-0.5789,-0.5792,-0.6325,-0.7242,-0.6398,-0.7092,-0.8546,-0.7022,-0.6872,-0.7484,-0.6718,-0.6412,-0.6567,-0.7253,-0.7659,-0.7715,-0.7732,-0.7849,-0.7773,-0.72,-0.6912,-0.6506,-0.4515,-0.2316,-0.0446,-0.0179,0.0536,0.1429,0.2592,0.3578,0.4741,0.6337,0.6779,0.7217,0.854,0.889,0.9157,0.9859,1.0038,1.0038,1.0038,1.0381,1.0722,1.1241,1.1666,1.2186,1.2619,1.2705,1.2608,1.2367,1.1577,1.0979,1.074,0.9001,0.7936,0.7923,0.6902,0.6278,0.6278,0.6345,0.5867,0.5004,0.4222,0.3366,0.251,0.1649,0.1335,0.1335,0.1335,0.1335,0.1335,0.1335,0.1335,0.1335,0.1335,0.1335,0.1335,0.1335,0.1335,0.1335,0.1335,0.1335,0.1414,-0.66,-0.6072,-0.5635,-0.5317,-0.5235,-0.507,-0.4417,-0.4281,-0.4081,-0.3521,-0.3476,-0.3365,-0.3049,-0.2971,-0.2893,-0.2504,-0.2503,-0.227,-0.1801,-0.1722,-0.1957,-0.2503,-0.2503,-0.2503,-0.2503,-0.3361,-0.383,-0.383,-0.4621,-0.5093,-0.5321,-0.5401,-0.5556,-0.5789,-0.5948,-0.6257,-0.6637,-0.6254,-0.6563,-0.718,-0.6567,-0.649,-0.6718,-0.6416,-0.6338,-0.6349,-0.6749,-0.6896,-0.6976,-0.718,-0.721,-0.7285,-0.7101,-0.7058,-0.6627,-0.4362,-0.2235,-0.0538,-0.009,0.1076,0.2329,0.2777,0.403,0.5371,0.5994,0.6782,0.757,0.8097,0.8978,0.9685,0.9951,1.0038,1.0038,1.0038,1.0125,1.0381,1.0809,1.1241,1.1752,1.2186,1.2391,1.2248,1.1643,1.0579,0.9663,0.8978,0.778,0.6987,0.6891,0.6521,0.6338,0.6338,0.6338,0.5867,0.5004,0.4222,0.3366,0.251,0.1649,0.1335,0.1335,0.1335,0.1335,0.1335,0.1335,0.1335,0.1335,0.1335,0.1335,0.1335,0.1335,0.1335,0.1335,0.1884,0.2041,0.2196,-0.6338,-0.5808,-0.5368,-0.5368,-0.5116,-0.4696,-0.4024,-0.3641,-0.3277,-0.2704,-0.2586,-0.24,-0.2242,-0.2162,-0.2002,-0.1762,-0.1682,-0.1442,-0.0962,-0.0882,-0.1115,-0.1724,-0.1722,-0.1722,-0.1722,-0.2582,-0.3127,-0.3363,-0.4226,-0.4854,-0.5321,-0.5479,-0.5712,-0.5941,-0.618,-0.6412,-0.6644,-0.6412,-0.6412,-0.6644,-0.6412,-0.6338,-0.6338,-0.6338,-0.6338,-0.6281,-0.642,-0.6505,-0.6583,-0.6841,-0.6959,-0.701,-0.7109,-0.6694,-0.5888,-0.4194,-0.2235,-0.0628,-0.0269,0.1166,0.251,0.2778,0.43,0.5733,0.5994,0.6782,0.757,0.8097,0.8978,0.9685,0.9951,1.0038,1.0038,1.0038,1.012,1.0294,1.0549,1.1091,1.147,1.181,1.1844,1.1571,1.092,0.9619,0.8564,0.7832,0.6957,0.6363,0.6345,0.6338,0.6338,0.6338,0.6338,0.5867,0.5004,0.4455,0.3754,0.2899,0.2041,0.1649,0.1649,0.1414,0.1335,0.1335,0.1335,0.1335,0.1335,0.1335,0.1335,0.1335,0.1571,0.1649,0.1805,0.2586,0.2899,0.3056,-0.5723,-0.5455,-0.5371,-0.5371,-0.4532,-0.3859,-0.3859,-0.3104,-0.2602,-0.2854,-0.2685,-0.2266,-0.1681,-0.1429,-0.0925,-0.0084,0.0,0.0,0.0,0.0,0.0,0.0,0.0,0.0,0.0,-0.0862,-0.1723,-0.2503,-0.3363,-0.4302,-0.5321,-0.5479,-0.5712,-0.5941,-0.618,-0.6721,-0.7407,-0.6644,-0.6795,-0.7407,-0.6644,-0.6338,-0.6338,-0.6338,-0.6338,-0.6281,-0.6424,-0.6573,-0.6725,-0.6878,-0.7024,-0.7139,-0.7139,-0.5802,-0.4287,-0.4018,-0.2415,-0.0628,-0.0448,0.0448,0.1614,0.2689,0.43,0.5908,0.6605,0.6779,0.7217,0.8627,0.889,0.9157,0.9859,1.0038,1.0038,1.0038,1.0289,1.0631,1.0631,1.1122,1.1555,1.1555,1.1089,1.0605,1.0288,0.8848,0.775,0.7496,0.6721,0.6338,0.6338,0.6338,0.6338,0.6338,0.6338,0.5867,0.5004,0.5004,0.4611,0.3752,0.2899,0.2511,0.251,0.1649,0.1335,0.1335,0.1335,0.1335,0.1335,0.1335,0.1335,0.1414,0.2198,0.2511,0.2588,0.3521,0.383,0.3908,-0.5678,-0.5648,-0.5362,-0.4745,-0.4393,-0.369,-0.2373,-0.2083,-0.1806,-0.1205,-0.1104,-0.0925,-0.0757,-0.0505,-0.0252,0.0,0.0,0.0,0.0,0.0,0.0,0.0,0.0,0.0,0.0,-0.0862,-0.1802,-0.2738,-0.3599,-0.4613,-0.5709,-0.5786,-0.5944,-0.618,-0.6261,-0.6416,-0.6644,-0.6412,-0.6416,-0.6644,-0.6416,-0.6338,-0.6338,-0.6338,-0.6322,-0.6427,-0.658,-0.6729,-0.6881,-0.7027,-0.7105,-0.7139,-0.7139,-0.5802,-0.4287,-0.4018,-0.2504,-0.0897,-0.0538,0.0358,0.1433,0.2597,0.3851,0.4924,0.5816,0.6432,0.7041,0.7921,0.854,0.9157,0.9859,1.0038,0.9904,0.9762,0.9819,0.9851,0.9697,0.978,0.9901,1.0075,0.9621,0.9142,0.8695,0.8021,0.7386,0.6725,0.6416,0.6338,0.6338,0.6338,0.6338,0.6338,0.6338,0.618,0.5944,0.5318,0.4611,0.383,0.3521,0.3443,0.3443,0.313,0.2741,0.2119,0.2119,0.2119,0.2119,0.2119,0.2508,0.3052,0.3287,0.3443,0.3521,0.43,0.4613,0.4768,-0.5733,-0.5374,-0.4926,-0.4389,-0.3673,-0.2777,-0.1614,-0.1243,-0.0881,-0.044,-0.0435,-0.0432,-0.0518,-0.0345,-0.0259,-0.0259,-0.0259,-0.0259,-0.0259,-0.0259,-0.0258,-0.0256,-0.0253,-0.0247,-0.0159,-0.0716,-0.1504,-0.2427,-0.2974,-0.3754,-0.4768,-0.5234,-0.5547,-0.5709,-0.6103,-0.6338,-0.6338,-0.6338,-0.6338,-0.6338,-0.6338,-0.6338,-0.6345,-0.6322,-0.6396,-0.6502,-0.6715,-0.6851,-0.6949,-0.7092,-0.7139,-0.7129,-0.7075,-0.5996,-0.4667,-0.4017,-0.2705,-0.1223,-0.0525,0.0175,0.1049,0.2446,0.3539,0.4567,0.5466,0.6083,0.6593,0.7232,0.7827,0.8587,0.9204,0.9361,0.9404,0.9456,0.9266,0.9054,0.8932,0.8923,0.8873,0.8797,0.8374,0.8017,0.7634,0.7235,0.6795,0.6338,0.6338,0.6338,0.6338,0.6338,0.6338,0.6338,0.6338,0.6338,0.6338,0.5789,0.524,0.4768,0.4455,0.43,0.43,0.3908,0.3521,0.2976,0.2976,0.2976,0.2976,0.2976,0.3287,0.383,0.4144,0.43,0.4377,0.524,0.555,0.5553,-0.5733,-0.4926,-0.4297,-0.4208,-0.2688,-0.1435,-0.1345,-0.0628,-0.018,-0.0359,-0.0448,-0.0538,-0.0718,-0.0718,-0.0718,-0.0718,-0.0718,-0.0718,-0.0718,-0.0718,-0.0712,-0.0699,-0.0698,-0.0514,-0.0328,-0.0572,-0.113,-0.1972,-0.1968,-0.2358,-0.3219,-0.4226,-0.4766,-0.4766,-0.5864,-0.6338,-0.6338,-0.6338,-0.6338,-0.6338,-0.6338,-0.6345,-0.6295,-0.6424,-0.6488,-0.6549,-0.6827,-0.6939,-0.6966,-0.7095,-0.7132,-0.7099,-0.697,-0.6224,-0.524,-0.4046,-0.285,-0.1678,-0.0589,-0.0168,0.0421,0.2182,0.3373,0.4452,0.5432,0.57,0.5843,0.6414,0.698,0.7612,0.8205,0.8341,0.8496,0.905,0.8638,0.8307,0.829,0.8382,0.8269,0.7715,0.7336,0.7088,0.7088,0.6637,0.6338,0.6338,0.6338,0.6338,0.6338,0.6338,0.6338,0.6338,0.6352,0.6281,0.6281,0.6291,0.6288,0.6261,0.5473,0.5082,0.5082,0.4387,0.3999,0.3921,0.3929,0.3929,0.3921,0.3921,0.3995,0.4066,0.4846,0.5082,0.5237,0.6022,0.6338,0.6338,-0.5733,-0.5102,-0.4383,-0.3578,-0.2506,-0.1433,-0.0717,-0.0538,-0.0538,-0.0628,-0.0807,-0.0987,-0.0987,-0.0807,-0.0718,-0.0718,-0.0718,-0.0718,-0.0718,-0.0538,-0.0447,-0.0446,-0.0445,-0.044,-0.0343,-0.0591,-0.1166,-0.2233,-0.2192,-0.2655,-0.3696,-0.4496,-0.4924,-0.5002,-0.5867,-0.6338,-0.6338,-0.6338,-0.6338,-0.6338,-0.6338,-0.6329,-0.643,-0.6461,-0.662,-0.6841,-0.6905,-0.7,-0.7099,-0.7129,-0.7065,-0.697,-0.6939,-0.616,-0.5136,-0.4028,-0.3017,-0.193,-0.0673,-0.0337,0.0,0.1344,0.2368,0.3489,0.5106,0.5447,0.5692,0.6331,0.6572,0.6895,0.7525,0.7683,0.7718,0.7656,0.7552,0.743,0.7223,0.678,0.6525,0.6521,0.619,0.6018,0.617,0.6254,0.6338,0.6338,0.6338,0.6338,0.6338,0.6338,0.6338,0.6338,0.6369,0.6427,0.6427,0.6546,0.6488,0.6261,0.6103,0.6025,0.6028,0.5975,0.5542,0.4908,0.5078,0.5065,0.4906,0.4906,0.5249,0.5789,0.5944,0.6025,0.6025,0.6261,0.6338,0.6338,-0.5361,-0.4563,-0.358,-0.2684,-0.179,-0.0986,-0.0448,-0.0538,-0.0718,-0.0718,-0.0897,-0.1076,-0.1076,-0.1076,-0.0897,-0.0628,-0.0269,0.009,0.0269,0.0358,0.0537,0.0805,0.0358,0.0089,0.0,-0.0611,-0.1117,-0.1681,-0.166,-0.1981,-0.2639,-0.346,-0.4055,-0.4451,-0.5344,-0.5944,-0.6338,-0.6338,-0.6338,-0.6345,-0.6335,-0.6407,-0.6488,-0.6634,-0.679,-0.6939,-0.7004,-0.7078,-0.7129,-0.7061,-0.6727,-0.6383,-0.6589,-0.6071,-0.5017,-0.3903,-0.3245,-0.2435,-0.0814,-0.0326,-0.0081,0.1058,0.1707,0.2533,0.434,0.5116,0.5518,0.5785,0.6015,0.6322,0.6652,0.6781,0.6887,0.7038,0.6925,0.6704,0.6628,0.6298,0.6058,0.5817,0.5824,0.5907,0.6224,0.6388,0.6471,0.6471,0.6471,0.6471,0.6471,0.6471,0.6471,0.6471,0.6542,0.658,0.658,0.6661,0.6624,0.6471,0.6471,0.6471,0.6474,0.6549,0.6335,0.593,0.5998,0.5988,0.5927,0.5927,0.6131,0.6464,0.639,0.6363,0.6356,0.6285,0.6338,0.6338,-0.5053,-0.384,-0.2598,-0.2059,-0.1165,-0.0538,-0.0538,-0.0628,-0.0807,-0.0807,-0.0987,-0.1166,-0.1166,-0.1166,-0.0987,-0.0269,0.0359,0.0896,0.1253,0.1343,0.1521,0.1877,0.1073,0.0537,0.0447,-0.0538,-0.1058,-0.1107,-0.1103,-0.1186,-0.1354,-0.2228,-0.3017,-0.3908,-0.4708,-0.5538,-0.6335,-0.6335,-0.6335,-0.6346,-0.6464,-0.6525,-0.6576,-0.6831,-0.6946,-0.698,-0.7099,-0.7126,-0.7085,-0.6966,-0.6462,-0.5867,-0.6225,-0.5734,-0.4893,-0.3616,-0.3205,-0.274,-0.0788,-0.0316,-0.0079,0.0872,0.119,0.1683,0.3243,0.4432,0.5149,0.5233,0.5624,0.5916,0.5798,0.5873,0.6109,0.6669,0.6365,0.6108,0.6108,0.6108,0.5948,0.5538,0.5785,0.6201,0.6619,0.6702,0.6702,0.6702,0.6702,0.6702,0.6702,0.6702,0.6702,0.6702,0.6725,0.6739,0.6739,0.6763,0.6776,0.6776,0.6776,0.6749,0.6702,0.6725,0.6739,0.6742,0.6766,0.6763,0.6739,0.6739,0.6722,0.6688,0.6559,0.6512,0.6498,0.638,0.6335,0.6335,-0.4868,-0.3622,-0.2508,-0.2418,-0.1613,-0.0987,-0.0987,-0.0987,-0.1076,-0.1076,-0.1256,-0.1345,-0.1345,-0.0897,-0.0269,0.0448,0.0628,0.0718,0.0807,0.0986,0.1165,0.1255,0.0717,0.0448,0.0359,-0.0359,-0.0984,-0.1334,-0.131,-0.1384,-0.1384,-0.2196,-0.309,-0.4006,-0.4901,-0.5806,-0.6641,-0.6641,-0.6641,-0.6641,-0.6661,-0.6749,-0.6871,-0.6912,-0.7004,-0.7112,-0.7132,-0.7061,-0.6956,-0.6936,-0.6669,-0.628,-0.5597,-0.5192,-0.4711,-0.2899,-0.2352,-0.2047,-0.0644,-0.0324,-0.0244,0.0083,0.075,0.1335,0.1594,0.2974,0.4335,0.516,0.5427,0.5504,0.549,0.5499,0.551,0.5593,0.5524,0.5535,0.5535,0.5535,0.5535,0.5624,0.6034,0.6446,0.6698,0.6702,0.6702,0.6702,0.6702,0.6702,0.6702,0.6702,0.6702,0.6702,0.6827,0.6898,0.6898,0.7017,0.7082,0.7082,0.7082,0.6946,0.6705,0.6837,0.6898,0.6905,0.7027,0.701,0.6898,0.6898,0.682,0.6698,0.6678,0.6668,0.6668,0.6647,0.6641,0.6641,-0.3718,-0.2911,-0.215,-0.1792,-0.1345,-0.1076,-0.1076,-0.1166,-0.1256,-0.1256,-0.1345,-0.1256,-0.0897,0.0179,0.0987,0.1256,0.1705,0.2063,0.2331,0.242,0.2688,0.3223,0.2329,0.1612,0.1342,0.0269,-0.0628,-0.1436,-0.1244,-0.1327,-0.1414,-0.1729,-0.2394,-0.3246,-0.3623,-0.4272,-0.5111,-0.5111,-0.5111,-0.5116,-0.5181,-0.5579,-0.6153,-0.6228,-0.6558,-0.7139,-0.7139,-0.7099,-0.7034,-0.6956,-0.6496,-0.5954,-0.5386,-0.4918,-0.4149,-0.2688,-0.2362,-0.2124,-0.0744,-0.0415,-0.0416,-0.0084,0.0252,0.0675,0.1195,0.2376,0.3535,0.4362,0.4529,0.4696,0.5285,0.5426,0.5472,0.5472,0.5526,0.5572,0.5572,0.5572,0.5656,0.6088,0.6254,0.6513,0.686,0.6946,0.6946,0.6946,0.6946,0.6946,0.6946,0.6946,0.6946,0.6946,0.701,0.7048,0.7048,0.7109,0.7139,0.7139,0.7139,0.7071,0.6949,0.7014,0.7048,0.7051,0.7112,0.7105,0.7048,0.7048,0.7007,0.6939,0.6858,0.6776,0.6702,0.6702,0.6702,0.6702]},{"header":{"parameterUnit":"m.s-1","parameterCategory":1,"la1":30.6,"la2":28.766,"lo1":-90.7593,"lo2":-88.6598,"dy":0.0162,"dx":0.0183,"nx":116,"ny":114,"refTime":"2023-08-21T06:00:00:Z","depth":0,"parameterNumber":3,"parameterNumberName":"V-component_of_WINDS"},"data":[0.0,0.0,0.0,0.0,0.0,0.0,0.0,0.0,0.0,0.0,0.0,0.0,0.0,0.0,0.0,0.0,0.0,0.0,0.0,0.0,0.0,0.0,0.0,0.0,0.0,0.0,0.0,0.0,0.0,0.0,0.0,0.0,0.0,0.0,0.0,0.0,0.0,0.0,0.0,0.0,0.0,0.0,0.0,0.0,0.0,0.0,0.0,0.0,0.0,0.0,0.0,0.0,0.0,0.0,0.0,0.0,0.0,0.0,0.0,0.0,0.0,0.0,0.0,0.0,0.0,0.0,0.0,0.0,0.0,0.0,0.0,0.0,0.0,0.0,0.0,0.0,0.0,0.0,0.0,0.0,0.0,0.0,0.0,0.0,0.0,0.0,0.0,0.0,0.0,0.0,0.0,0.0,0.0,0.0,0.0,0.0,0.0,0.0,0.0,0.0,0.0,0.0,0.0,0.0,0.0,0.0,0.0,0.0,0.0,0.0,0.0,0.0,0.0,0.0,0.0,0.0,0.0,0.0,0.0,0.0,0.0,0.0,0.0,0.0,0.0,0.0,0.0,0.0,0.0,0.0,0.0,0.0,0.0,0.0,0.0,0.0,0.0,0.0,0.0,0.0,0.0,0.0,0.0,0.0,0.0,0.0,0.0,0.0,0.0,0.0,0.0,0.0,0.0,0.0,0.0,0.0,0.0,0.0,0.0,0.0,0.0,0.0,0.0,0.0,0.0,0.0,0.0,0.0,0.0,0.0,0.0,0.0,0.0,0.0,0.0,0.0,0.0,0.0,0.0,0.0,0.0,0.0,0.0,0.0,0.0,0.0,0.0,0.0,0.0,0.0,0.0,0.0,0.0,0.0,0.0,0.0,0.0,0.0,0.0,0.0,0.0,0.0,0.0,0.0,0.0,0.0,0.0,0.0,0.0,0.0,0.0,0.0,0.0,0.0,0.0,0.0,0.0,0.0,0.0,0.0,0.0,0.0,0.0,0.0,0.0,0.0,0.0,0.0,0.0,0.0,0.0,0.0,0.0,0.0,0.0,0.0,0.0,0.0,0.0,0.0,0.0,0.0,0.0,0.0,0.0,0.0,0.0,0.0,0.0,0.0,0.0,0.0,0.0,0.0,0.0,0.0,0.0,0.0,0.0,0.0,0.0,0.0,0.0,0.0,0.0,0.0,0.0,0.0,0.0,0.0,0.0,0.0,0.0,0.0,0.0,0.0,0.0,0.0,0.0,0.0,0.0,0.0,0.0,0.0,0.0,0.0,0.0,0.0,0.0,0.0,0.0,0.0,0.0,0.0,0.0,0.0,0.0,0.0,0.0,0.0,0.0,0.0,0.0,0.0,0.0,0.0,0.0,0.0,0.0,0.0,0.0,0.0,0.0,0.0,0.0,0.0,0.0,0.0,0.0,0.0,0.0,0.0,0.0,0.0,0.0,0.0,0.0,0.0,0.0,0.0,0.0,0.0,0.0,0.0,0.0,0.0,0.0,0.0,0.0,0.0,0.0,0.0,0.0,0.0,0.0,0.0,0.0,0.0,0.0,0.0,0.0,0.0,0.0,0.0,0.0,0.0,0.0,0.0,0.0,0.0,0.0,0.0,0.0,0.0,0.0,0.0,0.0,0.0,0.0,0.0,0.0,0.0,0.0,0.0,0.0,0.0,0.0,0.0,0.0,0.0,0.0,0.0,0.0,0.0,0.0,0.0,0.0,0.0,0.0,0.0,0.0,0.0,0.0,0.0,0.0,0.0,0.0,0.0,0.0,0.0,0.0,0.0,0.0,0.0,0.0,0.0,0.0,0.0,0.0,0.0,0.0,0.0,0.0,0.0,0.0,0.0,0.0,0.0,0.0,0.0,0.0,0.0,0.0,0.0,0.0,0.0,0.0,0.0,0.0,0.0,0.0,0.0,0.0,0.0,0.0,0.0,0.0,0.0,0.0,0.0,0.0,0.0,0.0,0.0,0.0,0.0,0.0,0.0,0.0,0.0,0.0,0.0,0.0,0.0,0.0,0.0,0.0,0.0,0.0,0.0,0.0,0.0,0.0,0.0,0.0,0.0,0.0,0.0,0.0,0.0,0.0,0.0,0.0,0.0,0.0,0.0,0.0,0.0,0.0,0.0,0.0,0.0,0.0,0.0,0.0,0.0,0.0,0.0,0.0,0.0,0.0,0.0,0.0,0.0,0.0,0.0,0.0,0.0,0.0,0.0,0.0,0.0,0.0,0.0,0.0,0.0,0.0,0.0,0.0,0.0,0.0,0.0,0.0,0.0,0.0,0.0,0.0,0.0,0.0,0.0,0.0,0.0,0.0,0.0,0.0,0.0,0.0,0.0,0.0,0.0,0.0,0.0,0.0,0.0,0.0,0.0,0.0,0.0,0.0,0.0,0.0,0.0,0.0,0.0,0.0,0.0,0.0,0.0,0.0,0.0,0.0,0.0,0.0,0.0,0.0,0.0,0.0,0.0,0.0,0.0,0.0,0.0,0.0,0.0,0.0,0.0,0.0,0.0,0.0,0.0,0.0,0.0,0.0,0.0,0.0,0.0,0.0,0.0,0.0,0.0,0.0,0.0,0.0,0.0,0.0,0.0,0.0,0.0,0.0,0.0,0.0,0.0,0.0,0.0,0.0,0.0,0.0,0.0,0.0,0.0,0.0,0.0,0.0,0.0,0.0,0.0,0.0,0.0,0.0,0.0,0.0,0.0,0.0,0.0,0.0,0.0,0.0,0.0,0.0,0.0,0.0,0.0,0.0,0.0,0.0,0.0,0.0,0.0,0.0,0.0,0.0,0.0,0.0,0.0,0.0,0.0,0.0,0.0,0.0,0.0,0.0,0.0,0.0,0.0,0.0,0.0,0.0,0.0,0.0,0.0,0.0,0.0,0.0,0.0,0.0,0.0,0.0,0.0,0.0,0.0,0.0,0.0,0.0,0.0,0.0,0.0,0.0,0.0,0.0,0.0,0.0,0.0,0.0,0.0,0.0,0.0,0.0,0.0,0.0,0.0,0.0,0.0,0.0,0.0,0.0,0.0,0.0,0.0,0.0,0.0,0.0,0.0,0.0,0.0,0.0,0.0,0.0,0.0,0.0,0.0,0.0,0.0,0.0,0.0,0.0,0.0,0.0,0.0,0.0,0.0,0.0,0.0,0.0,0.0,0.0,0.0,0.0,0.0,0.0,0.0,0.0,0.0,0.0,0.0,0.0,0.0,0.0,0.0,0.0,0.0,0.0,0.0,0.0,0.0,0.0,0.0,0.0,0.0,0.0,0.0,0.0,0.0,0.0,0.0,0.0,0.0,0.0,0.0,0.0,0.0,0.0,0.0,0.0,0.0,0.0,0.0,0.0,0.0,0.0,0.0,0.0,0.0,0.0,0.0,0.0,0.0,0.0,0.0,0.0,0.0,0.0,0.0,0.0,0.0,0.0,0.0,0.0,0.0,0.0,0.0,0.0,0.0,0.0,0.0,0.0,0.0,0.0,0.0,0.0,0.0,0.0,0.0,0.0,0.0,0.0,0.0,0.0,0.0,0.0,0.0,0.0,0.0,0.0,0.0,0.0,0.0,0.0,0.0,0.0,0.0,0.0,0.0,0.0,0.0,0.0,0.0,0.0,0.0,0.0,0.0,0.0,0.0,0.0,0.0,0.0,0.0,0.0,0.0,0.0,0.0,0.0,0.0,0.0,0.0,0.0,0.0,0.0,0.0,0.0,0.0,0.0,0.0,0.0,0.0,0.0,0.0,0.0,0.0,0.0,0.0,0.0,0.0,0.0,0.0,0.0,0.0,0.0,0.0,0.0,0.0,0.0,0.0,0.0,0.0,0.0,0.0,0.0,0.0,0.0,0.0,0.0,0.0,0.0,0.0,0.0,0.0,0.0,0.0,0.0,0.0,0.0,0.0,0.0,0.0,0.0,0.0,0.0,0.0,0.0,0.0,0.0,0.0,0.0,0.0,0.0,0.0,0.0,0.0,0.0,0.0,0.0,0.0,0.0,0.0,0.0,0.0,0.0,0.0,0.0,0.0,0.0,0.0,0.0,0.0,0.0,0.0,0.0,0.0,0.0,0.0,0.0,0.0,0.0,0.0,0.0,0.0,0.0,0.0,0.0,0.0,0.0,0.0,0.0,0.0,0.0,0.0,0.0,0.0,0.0,0.0,0.0,0.0,0.0,0.0,0.0,0.0,0.0,0.0,0.0,0.0,0.0,0.0,0.0,0.0,0.0,0.0,0.0,0.0,0.0,0.0,0.0,0.0,0.0,0.0,0.0,0.0,0.0,0.0,0.0,0.0,0.0,0.0,0.0,0.0,0.0,0.0,0.0,0.0,0.0,0.0,0.0,0.0,0.0,0.0,0.0,0.0,0.0,0.0,0.0,0.0,0.0,0.0,0.0,0.0,0.0,0.0,0.0,0.0,0.0,0.0,0.0,0.0,0.0,0.0,0.0,0.0,0.0,0.0,0.0,0.0,0.0,0.0,0.0,0.0,0.0,0.0,0.0,0.0,0.0,0.0,0.0,0.0,0.0,0.0,0.0,0.0,0.0,0.0,0.0,0.0,0.0,0.0,0.0,0.0,0.0,0.0,0.0,0.0,0.0,0.0,0.0,0.0,0.0,0.0,0.0,0.0,0.0,0.0,0.0,0.0,0.0,0.0,0.0,0.0,0.0,0.0,0.0,0.0,0.0,0.0,0.0,0.0,0.0,0.0,0.0,0.0,0.0,0.0,0.0,0.0,0.0,0.0,0.0,0.0,0.0,0.0,0.0,0.0,0.0,0.0,0.0,0.0,0.0,0.0,0.0,0.0,0.0,0.0,0.0,0.0,0.0,0.0,0.0,0.0,0.0,0.0,0.0,0.0,0.0,0.0,0.0,0.0,0.0,0.0,0.0,0.0,0.0,0.0,0.0,0.0,0.0,0.0,0.0,0.0,0.0,0.0,0.0,0.0,0.0,0.0,0.0,0.0,0.0,0.0,0.0,0.0,0.0,0.0,0.0,0.0,0.0,0.0,0.0,0.0,0.0,0.0,0.0,0.0,0.0,0.0,0.0,0.0,0.0,0.0,0.0,0.0,0.0,0.0,0.0,0.0,0.0,0.0,0.0,0.0,0.0,0.0,0.0,0.0,0.0,0.0,0.0,0.0,0.0,0.0,0.0,0.0,0.0,0.0,0.0,0.0,0.0,0.0,0.0,0.0,0.0,0.0,0.0,0.0,0.0,0.0,0.0,0.0,0.0,0.0,0.0,0.0,0.0,0.0,0.0,0.0,0.0,0.0,0.0,0.0,0.0,0.0,0.0,0.0,0.0,0.0,0.0,0.0,0.0,0.0,0.0,0.0,0.0,0.0,0.0,0.0,0.0,0.0,0.0,0.0,0.0,0.0,0.0,0.0,0.0,0.0,0.0,0.0,0.0,0.0,0.0,0.0,0.0,0.0,0.0,0.0,0.0,0.0,0.0,0.0,0.0,0.0,0.0,0.0,0.0,0.0,0.0,0.0,0.0,0.0,0.0,0.0,0.0,0.0,0.0,0.0,0.0,0.0,0.0,0.0,0.0,0.0,0.0,0.0,0.0,0.0,0.0,0.0,0.0,0.0,0.0,0.0,0.0,0.0,0.0,0.0,0.0,0.0,0.0,0.0,0.0,0.0,0.0,0.0,0.0,0.0,0.0,0.0,0.0,0.0,0.0,0.0,0.0,0.0,0.0,0.0,0.0,0.0,0.0,0.0,0.0,0.0,0.0,0.0,0.0,0.0,0.0,0.0,0.0,0.0,0.0,0.0,0.0,0.0,0.0,0.0,0.0,0.0,0.0,0.0,0.0,0.0,0.0,0.0,0.0,0.0,0.0,0.0,0.0,0.0,0.0,0.0,0.0,0.0,0.0,0.0,0.0,0.0,0.0,0.0,0.0,0.0,0.0,0.0,0.0,0.0,0.0,0.0,0.0,0.0,0.0,0.0,0.0,0.0,0.0,0.0,0.0,0.0,0.0,0.0,0.0,0.0,0.0,0.0,0.0,0.0,0.0,0.0,0.0,0.0,0.0,0.0,0.0,0.0,0.0,0.0,0.0,0.0,0.0,0.0,0.0,0.0,0.0,0.0,0.0,0.0,-2.515,-2.5151,0.0,0.0,0.0,0.0,0.0,0.0,0.0,0.0,0.0,0.0,0.0,0.0,0.0,0.0,0.0,0.0,0.0,0.0,0.0,0.0,0.0,0.0,0.0,0.0,0.0,0.0,0.0,0.0,0.0,0.0,0.0,0.0,0.0,0.0,0.0,0.0,0.0,0.0,0.0,0.0,0.0,0.0,0.0,0.0,0.0,0.0,0.0,0.0,0.0,0.0,0.0,0.0,0.0,0.0,0.0,0.0,0.0,0.0,0.0,0.0,0.0,0.0,0.0,0.0,0.0,0.0,0.0,0.0,0.0,0.0,0.0,0.0,0.0,0.0,0.0,0.0,0.0,0.0,0.0,0.0,0.0,0.0,0.0,0.0,0.0,0.0,0.0,0.0,0.0,0.0,0.0,0.0,0.0,0.0,0.0,0.0,0.0,0.0,0.0,0.0,0.0,0.0,0.0,0.0,0.0,0.0,0.0,0.0,0.0,0.0,0.0,0.0,0.0,0.0,-2.5701,-2.5699,0.0,0.0,0.0,0.0,0.0,0.0,0.0,0.0,0.0,0.0,0.0,0.0,0.0,0.0,0.0,0.0,0.0,0.0,0.0,0.0,0.0,0.0,0.0,0.0,0.0,0.0,0.0,0.0,0.0,0.0,0.0,0.0,0.0,0.0,0.0,0.0,0.0,0.0,0.0,0.0,0.0,0.0,0.0,0.0,0.0,0.0,0.0,0.0,0.0,0.0,0.0,0.0,0.0,0.0,0.0,0.0,0.0,0.0,0.0,0.0,0.0,0.0,0.0,0.0,0.0,0.0,0.0,0.0,0.0,0.0,0.0,0.0,0.0,0.0,0.0,0.0,0.0,0.0,0.0,0.0,0.0,0.0,0.0,0.0,0.0,0.0,0.0,0.0,0.0,0.0,0.0,0.0,0.0,0.0,0.0,0.0,0.0,0.0,0.0,0.0,0.0,0.0,0.0,0.0,0.0,0.0,0.0,0.0,-2.6152,-2.6152,-2.6152,-2.6152,-2.6152,-2.6152,-2.6152,-2.5975,-2.5693,-2.5701,0.0,0.0,0.0,0.0,0.0,0.0,0.0,0.0,0.0,0.0,0.0,0.0,0.0,0.0,0.0,0.0,0.0,0.0,0.0,0.0,0.0,0.0,-2.0488,-2.1262,-2.1546,-2.2003,0.0,0.0,0.0,0.0,0.0,0.0,0.0,0.0,0.0,0.0,0.0,0.0,-2.2055,-2.2055,-2.2836,-2.4222,-2.4341,0.0,0.0,0.0,0.0,0.0,0.0,0.0,0.0,0.0,0.0,0.0,0.0,0.0,0.0,0.0,0.0,0.0,0.0,0.0,0.0,0.0,0.0,0.0,0.0,0.0,0.0,0.0,0.0,0.0,0.0,0.0,0.0,0.0,0.0,0.0,0.0,0.0,0.0,0.0,0.0,0.0,0.0,0.0,-2.2803,-2.297,0.0,0.0,0.0,0.0,0.0,0.0,0.0,0.0,0.0,0.0,0.0,0.0,0.0,-2.6055,-2.6816,-2.6836,-2.7207,-2.7969,-2.7969,-2.7969,-2.7969,-2.7969,-2.7969,-2.7969,-2.7969,0.0,-2.5703,-2.5696,0.0,0.0,0.0,0.0,0.0,0.0,0.0,0.0,0.0,0.0,0.0,0.0,0.0,0.0,0.0,0.0,0.0,0.0,0.0,0.0,0.0,-2.0167,-2.0346,-2.0739,-2.0862,-2.1085,-2.1517,0.0,0.0,0.0,0.0,0.0,0.0,0.0,0.0,0.0,-2.1313,-2.2018,-2.3306,-2.3306,-2.4223,-2.5863,-2.5861,-2.626,-2.6992,-2.7517,0.0,0.0,0.0,0.0,0.0,0.0,0.0,0.0,0.0,0.0,0.0,0.0,0.0,0.0,0.0,0.0,0.0,0.0,0.0,0.0,0.0,0.0,0.0,0.0,0.0,0.0,0.0,0.0,0.0,0.0,0.0,0.0,0.0,0.0,0.0,0.0,0.0,0.0,0.0,-2.3661,-2.3881,-2.435,-2.4778,-2.504,0.0,0.0,0.0,0.0,0.0,0.0,0.0,0.0,0.0,-2.7148,-2.7168,-2.7344,-2.7734,-2.7734,-2.793,-2.8301,-2.8301,-2.8301,-2.8301,-2.8301,-2.8301,-2.8301,-2.8301,-2.7871,-2.7168,-2.7166,-2.7167,-2.7168,0.0,0.0,0.0,0.0,-2.6851,-2.6433,0.0,0.0,0.0,0.0,0.0,0.0,0.0,0.0,0.0,0.0,0.0,0.0,-2.0125,-2.0188,-2.0229,-2.0236,-2.0288,-2.0342,-2.0409,0.0,0.0,0.0,0.0,0.0,0.0,0.0,0.0,0.0,-2.2309,-2.3287,-2.4733,-2.4965,-2.6,-2.7661,-2.7661,-2.7663,-2.7689,-2.835,-2.875,0.0,0.0,0.0,0.0,0.0,0.0,0.0,0.0,0.0,0.0,0.0,0.0,0.0,0.0,0.0,0.0,0.0,0.0,0.0,0.0,0.0,0.0,0.0,0.0,0.0,0.0,0.0,0.0,0.0,0.0,0.0,0.0,0.0,0.0,0.0,0.0,0.0,0.0,-2.4597,-2.4844,-2.5453,-2.5617,-2.5665,0.0,0.0,0.0,0.0,0.0,0.0,-2.6972,-2.6992,-2.7305,-2.7949,-2.8184,-2.8418,-2.8633,-2.8633,-2.873,-2.8965,-2.8965,-2.8965,-2.8965,-2.8965,-2.8965,-2.8965,-2.8965,-2.8965,-2.8926,-2.8476,-2.8301,-2.8301,-2.8301,-2.8301,-2.8301,-2.8301,-2.7889,-2.7333,0.0,0.0,0.0,0.0,0.0,0.0,0.0,0.0,0.0,0.0,0.0,-2.018,-2.018,-2.0255,-2.0289,-2.0282,-2.0351,-2.04,-2.0409,-2.0405,0.0,0.0,0.0,0.0,0.0,0.0,0.0,-2.1899,-2.3499,-2.4749,-2.5648,-2.6488,-2.7798,-2.9476,-2.9467,-2.9432,-2.9375,-2.9492,-2.9975,-3.0679,0.0,0.0,0.0,0.0,0.0,0.0,0.0,0.0,0.0,0.0,0.0,0.0,0.0,0.0,0.0,0.0,0.0,0.0,0.0,0.0,0.0,0.0,0.0,0.0,0.0,0.0,0.0,0.0,0.0,0.0,0.0,0.0,0.0,0.0,0.0,0.0,0.0,0.0,0.0,-2.5585,-2.5609,0.0,0.0,0.0,0.0,-2.6931,-2.6933,-2.6953,-2.6992,-2.6992,-2.7012,-2.7051,-2.7871,-2.8691,-2.9531,-2.9531,-2.9941,-3.0762,-3.0762,-3.0762,-3.0762,-3.0762,-3.0762,-3.0762,-3.0762,-3.0762,-3.0644,-2.8984,-2.8301,-2.8301,-2.8301,-2.8301,-2.8301,-2.8301,-2.8261,-2.8239,0.0,0.0,0.0,0.0,0.0,0.0,0.0,0.0,0.0,-2.0088,-2.0159,-2.0192,-2.0133,-2.0275,-2.034,-2.025,-2.0344,-2.0395,-2.0402,-2.0362,0.0,0.0,0.0,0.0,0.0,0.0,-2.2955,-2.436,-2.4946,-2.6253,-2.8225,-2.8539,-2.9298,-3.0431,-3.0443,-3.0425,-3.0403,-3.0429,-3.0599,-3.0866,-3.0896,-3.0898,0.0,0.0,0.0,0.0,0.0,0.0,0.0,0.0,0.0,0.0,0.0,0.0,0.0,0.0,0.0,0.0,0.0,0.0,0.0,0.0,0.0,0.0,0.0,0.0,0.0,0.0,0.0,0.0,0.0,0.0,0.0,0.0,0.0,0.0,0.0,0.0,0.0,-2.5609,-2.5639,0.0,-2.5703,-2.596,-2.6371,-2.6953,-2.6992,-2.748,-2.8613,-2.8672,-2.8926,-2.9492,-2.9805,-3.0117,-3.043,-3.0449,-3.0586,-3.0898,-3.0898,-3.0898,-3.0898,-3.0898,-3.0898,-3.0898,-3.0898,-3.0898,-3.0859,-3.0234,-2.9961,-2.9961,-2.9961,-2.996,-2.9911,-2.9954,-2.959,-2.9082,0.0,0.0,0.0,0.0,0.0,0.0,0.0,0.0,0.0,-2.0134,-2.0175,-2.02,-2.0167,-2.0288,-2.034,-2.025,-2.0344,-2.0391,-2.0381,-2.0316,0.0,0.0,0.0,0.0,0.0,-2.324,-2.4262,-2.5707,-2.6585,-2.7893,-2.9613,-2.9884,-3.0333,-3.0899,-3.0909,-3.0909,-3.0905,-3.0897,-3.0898,-3.0898,-3.0898,-3.0898,-3.084,0.0,0.0,0.0,0.0,0.0,0.0,0.0,0.0,0.0,0.0,0.0,0.0,0.0,0.0,0.0,0.0,0.0,0.0,0.0,0.0,0.0,0.0,0.0,0.0,0.0,0.0,0.0,0.0,0.0,0.0,0.0,0.0,0.0,0.0,-2.564,-2.5687,-2.5648,-2.5939,-2.6145,-2.6136,-2.6663,-2.7266,-2.7832,-2.7856,-2.8359,-2.9531,-2.957,-2.9844,-3.0449,-3.0728,-3.0863,-3.0863,-3.1136,-3.1278,-3.1278,-3.1548,-3.1682,-3.1682,-3.1682,-3.1684,-3.1688,-3.1688,-3.1538,-3.1309,-3.1309,-3.1133,-3.0898,-3.0898,-3.0868,-3.0847,-3.0882,-3.0515,-2.998,0.0,0.0,0.0,0.0,0.0,0.0,0.0,0.0,-2.0125,-2.02,-2.0188,-2.0227,-2.0296,-2.0302,-2.0308,-2.0301,-2.0357,-2.0366,-2.0294,-2.0326,0.0,0.0,0.0,0.0,-2.1866,-2.5186,-2.6585,-2.5802,-2.834,-2.9608,-2.9647,-3.0428,-3.0838,-3.0897,-3.0899,-3.0905,-3.0895,-3.0898,-3.0898,-3.0898,-3.0898,-3.0898,-3.0898,0.0,0.0,0.0,0.0,0.0,0.0,0.0,0.0,0.0,0.0,0.0,0.0,0.0,0.0,0.0,0.0,0.0,0.0,0.0,0.0,0.0,0.0,0.0,0.0,0.0,0.0,0.0,0.0,0.0,0.0,0.0,0.0,0.0,-2.5809,-2.5705,-2.5707,-2.5737,-2.6484,-2.7012,-2.7031,-2.8574,-2.957,-2.9589,-2.953,-2.9538,-2.9628,-2.957,-2.957,-2.9687,-3.0432,-3.0849,-3.0868,-3.1656,-3.2044,-3.2044,-3.283,-3.3206,-3.3206,-3.3206,-3.3206,-3.3198,-3.3198,-3.2791,-3.2129,-3.2109,-3.164,-3.0937,-3.0918,-3.0891,-3.0887,-3.0897,-3.0895,-3.0898,0.0,0.0,0.0,0.0,0.0,0.0,0.0,0.0,-2.018,-2.0204,-2.0248,-2.0269,-2.0308,-2.0341,-2.0328,-2.0238,-2.028,-2.0295,-2.0236,0.0,0.0,0.0,0.0,0.0,-2.4505,-2.5481,-2.6743,-2.8304,-2.9024,-2.9711,-3.0339,-3.0594,-3.0747,-3.0767,-3.0849,-3.0901,-3.0903,-3.0907,-3.0895,-3.0898,-3.0898,-3.0898,-3.0898,0.0,0.0,0.0,0.0,0.0,0.0,0.0,0.0,0.0,0.0,0.0,0.0,0.0,0.0,0.0,0.0,0.0,0.0,0.0,0.0,0.0,0.0,0.0,0.0,0.0,0.0,0.0,0.0,0.0,0.0,0.0,-2.5899,-2.5965,-2.5725,-2.5703,-2.5927,-2.6564,-2.6852,-2.7246,-2.7871,-2.8379,-2.8893,-2.948,-2.9565,-2.9831,-3.0432,-3.0506,-3.078,-3.1379,-3.1632,-3.2018,-3.2609,-3.2832,-3.2938,-3.2938,-3.3121,-3.3203,-3.3195,-3.3195,-3.3207,-3.3199,-3.3197,-3.3074,-3.2858,-3.2216,-3.1858,-3.1646,-3.1111,-3.0875,-3.0827,-3.0874,-3.0895,-3.0898,0.0,0.0,0.0,0.0,0.0,0.0,0.0,0.0,-2.0208,-2.0231,-2.0241,-2.0275,-2.0294,-2.0308,-2.0272,-2.0209,-2.0238,-2.0223,-2.0156,0.0,0.0,0.0,0.0,-2.3981,-2.5477,-2.6596,-2.7867,-2.931,-2.9666,-3.0101,-3.0593,-3.0639,-3.0667,-3.0691,-3.0774,-3.083,-3.086,-3.0899,-3.0909,-3.0898,-3.0898,-3.0898,-3.0898,-3.0898,-3.0898,-3.0898,-3.086,-3.0877,-3.0895,-3.0857,0.0,0.0,0.0,0.0,0.0,0.0,0.0,0.0,0.0,0.0,0.0,0.0,0.0,0.0,0.0,0.0,0.0,0.0,0.0,0.0,0.0,0.0,0.0,0.0,-2.6301,-2.6667,-2.6298,-2.6236,-2.6579,-2.7441,-2.7871,-2.8281,-2.8809,-2.916,-2.9541,-3.0007,-3.003,-3.0248,-3.0778,-3.1122,-3.1568,-3.2083,-3.2403,-3.2791,-3.3256,-3.3566,-3.3729,-3.3727,-3.4005,-3.4167,-3.4166,-3.4159,-3.4159,-3.4166,-3.4148,-3.3993,-3.3655,-3.3156,-3.2557,-3.189,0.0,0.0,0.0,0.0,-3.0905,-3.0898,0.0,0.0,0.0,0.0,0.0,0.0,0.0,0.0,0.0,0.0,0.0,-2.0246,-2.0288,-2.0253,-2.02,-2.0218,-2.02,-2.0227,0.0,0.0,0.0,-2.1756,-2.3969,-2.5329,-2.5524,-2.7896,-2.9241,-2.94,-3.0188,-3.0591,-3.0591,-3.0598,-3.062,-3.0672,-3.0687,-3.0732,-3.0796,-3.0877,-3.0905,-3.0894,-3.0898,-3.0898,-3.0898,-3.0898,-3.0898,-3.0898,-3.0898,-3.0895,-3.0901,-3.0894,0.0,0.0,0.0,0.0,0.0,0.0,0.0,0.0,0.0,0.0,0.0,0.0,0.0,0.0,0.0,0.0,0.0,0.0,0.0,0.0,0.0,0.0,0.0,0.0,-2.7144,-2.7946,-2.7358,-2.7285,-2.7576,-2.8359,-2.9121,-2.9629,-2.9723,-3.038,-3.0791,-3.0772,-3.0772,-3.0807,-3.0911,-3.1646,0.0,0.0,0.0,-3.3381,-3.3478,-3.4124,-3.4442,-3.4461,-3.5155,-3.5515,-3.5502,-3.5501,-3.5501,-3.5502,-3.5502,-3.5136,-3.452,-3.4419,-3.3392,-3.1842,-3.1092,-3.0801,-3.082,-3.0879,-3.0898,-3.0898,0.0,0.0,0.0,0.0,0.0,0.0,0.0,0.0,0.0,-2.0282,-2.0302,-2.0308,-2.0371,-2.032,-2.0288,-2.0272,-2.0231,-2.0537,0.0,0.0,-2.1269,-2.2664,-2.3208,-2.4391,-2.6329,-2.7563,-2.8801,-3.0106,-3.0332,-3.0439,-3.0439,-3.0492,-3.0537,-3.0543,-3.065,-3.0715,-3.0724,-3.0849,-3.0899,-3.0903,-3.0897,-3.0898,-3.0898,-3.0898,-3.0898,-3.0898,-3.084,-3.0857,-3.0899,-3.084,-3.0852,-3.0897,-3.0903,0.0,0.0,0.0,0.0,0.0,0.0,0.0,0.0,0.0,0.0,0.0,0.0,0.0,0.0,0.0,0.0,0.0,0.0,0.0,0.0,-2.666,-2.6988,-2.7602,-2.8844,-2.9024,-2.9102,-2.9315,-2.9453,-2.9791,-3.0489,-3.0701,-3.0752,-3.0656,-3.1323,-3.1719,-3.1681,-3.2539,-3.3347,-3.4019,-3.4174,-3.4541,-3.5129,-3.5272,-3.5338,-3.5353,-3.5451,0.0,-3.5502,-3.5501,-3.5507,-3.5488,-3.5488,-3.5418,-3.5233,-3.4532,-3.3299,-3.1842,-3.1092,-3.082,-3.0879,-3.0898,-3.0898,-3.0898,0.0,0.0,0.0,0.0,0.0,0.0,0.0,0.0,0.0,0.0,-2.0241,-2.0262,-2.0296,-2.0269,-2.0253,-2.0246,-2.0214,0.0,0.0,-2.0571,-2.0911,-2.2184,-2.305,-2.4463,-2.6504,-2.7802,-2.906,-3.0299,-3.0336,-3.0367,-3.041,-3.0428,-3.0472,-3.0501,-3.0576,-3.0633,-3.0711,-3.0745,-3.081,-3.0899,-3.0832,-3.0838,-3.0898,-3.0898,-3.0898,-3.0898,-3.0859,-3.0879,-3.0898,-3.0852,-3.0875,-3.0898,-3.0896,-3.0907,-3.0901,0.0,0.0,0.0,0.0,0.0,0.0,0.0,0.0,0.0,0.0,0.0,0.0,0.0,0.0,-2.6484,-2.6914,0.0,-2.6593,-2.7454,-2.7912,-2.8466,-2.9331,-2.9805,-3.0098,-3.0185,-3.0175,-3.0327,-3.0752,-3.0733,-3.0675,-3.0617,-3.142,-3.1893,-3.1912,-3.3139,-3.4059,-3.4483,-3.49,-3.5287,-3.5643,-3.562,-3.5596,-3.5591,-3.5522,-3.5495,-3.5495,-3.5495,-3.5495,-3.5495,-3.5495,-3.5509,-3.5425,-3.4546,-3.3527,-3.2416,-3.1656,-3.1145,-3.0859,-3.0898,-3.0898,-3.0898,0.0,0.0,0.0,0.0,0.0,0.0,0.0,0.0,0.0,0.0,-2.0215,-2.0223,-2.0215,-2.0215,-2.0211,0.0,0.0,0.0,0.0,-2.0288,-2.0695,-2.1509,-2.3135,-2.4793,-2.6485,-2.8159,-2.9423,-3.0292,-3.0299,-3.0336,-3.0379,-3.0379,-3.0417,-3.0492,-3.0492,-3.0568,-3.0656,-3.0614,-3.0695,-3.0824,-3.0738,-3.0753,-3.0859,-3.0898,-3.0898,-3.0898,-3.0898,-3.0898,-3.0898,-3.0898,-3.0898,-3.0898,-3.0898,-3.0896,-3.0903,-3.0899,-3.0891,0.0,0.0,0.0,0.0,0.0,0.0,0.0,0.0,-2.7634,-2.72,-2.703,-2.6582,-2.6425,-2.712,-2.7187,-2.7441,-2.829,-2.8973,-2.9441,-2.9611,-3.0182,-3.0636,-3.0752,-3.0761,-3.0761,-3.0762,-3.0656,-3.0598,-3.0598,-3.1507,-3.2077,-3.2124,-3.374,-3.4679,-3.4715,-3.5356,-3.5684,-3.5673,-3.5628,-3.5604,-3.5591,-3.556,-3.552,-3.552,-3.5522,-3.5515,-3.5502,-3.5502,-3.5502,-3.5464,-3.4751,-3.4017,-3.3255,-3.2484,-3.1715,-3.1013,-3.0937,-3.0898,-3.0898,0.0,0.0,0.0,0.0,0.0,0.0,0.0,0.0,0.0,0.0,0.0,0.0,0.0,0.0,0.0,0.0,0.0,0.0,-2.0284,-2.041,-2.0832,-2.1642,-2.3238,-2.4868,-2.6554,-2.8172,-2.943,-3.0292,-3.0292,-3.0299,-3.0316,-3.0316,-3.0348,-3.0414,-3.0472,-3.051,-3.0537,-3.0591,-3.0607,-3.0646,-3.068,-3.0708,-3.0736,-3.0856,-3.0897,-3.0898,-3.0898,-3.0898,-3.0898,-3.0898,-3.0898,-3.0898,-3.0898,-3.0898,-3.0897,-3.0905,0.0,-3.0907,-3.0898,-3.0332,-2.9726,-2.9629,-2.9023,-2.8223,0.0,-2.7676,-2.7929,-2.7159,-2.7537,-2.8016,-2.8066,-2.8066,-2.8328,-2.9139,-2.9331,-2.9659,-3.0366,-3.054,-3.0617,-3.0617,-3.0614,-3.0618,-3.0626,-3.0617,-3.0598,-3.0598,-3.2068,-3.2966,-3.2966,-3.4621,-3.5549,-3.5568,-3.5646,-3.5673,-3.5612,-3.5601,-3.5608,-3.5591,-3.5591,-3.5579,-3.5579,-3.5515,-3.5515,-3.5502,-3.5501,-3.5507,-3.5488,-3.547,-3.4936,-3.4087,-3.342,-3.2625,-3.1789,-3.1149,-3.0898,-3.0898,0.0,0.0,0.0,0.0,0.0,0.0,0.0,0.0,0.0,0.0,0.0,0.0,0.0,0.0,0.0,0.0,0.0,0.0,-2.0306,-2.0346,-2.0524,-2.0863,-2.1933,-2.3342,-2.5109,-2.6721,-2.8245,-2.966,-3.0093,-3.0323,-3.0367,-3.0367,-3.0379,-3.041,-3.0436,-3.0462,-3.0501,-3.0482,-3.0527,-3.06,-3.0626,-3.0676,-3.0708,-3.0847,-3.0909,-3.0892,-3.0898,-3.0898,0.0,0.0,-3.0898,-3.0898,-3.0898,-3.0898,-3.0898,-3.0897,-3.0895,0.0,-3.0273,-2.9512,-2.8848,-2.8848,-2.8574,-2.8203,-2.7832,-2.8047,-2.8203,-2.783,-2.8023,-2.8392,-2.8876,-2.8917,-2.9158,-2.9969,-3.0105,-3.0221,-3.0559,-3.0598,-3.0598,-3.0598,-3.0604,-3.0593,-3.0607,-3.0598,-3.0598,-3.0598,-3.1681,-3.256,-3.3063,-3.4272,-3.5182,-3.5684,-3.5704,-3.5684,-3.5673,-3.5612,-3.5608,-3.5591,-3.556,-3.5534,-3.5528,-3.5502,-3.5515,-3.5515,-3.5554,-3.5541,-3.5509,-3.5579,-3.5102,-3.4342,-3.4091,-3.351,-3.2668,-3.1376,-3.0898,-3.0897,0.0,0.0,0.0,0.0,0.0,0.0,0.0,0.0,0.0,0.0,0.0,0.0,0.0,0.0,0.0,0.0,0.0,0.0,0.0,-2.0334,-2.0357,-2.0359,-2.1297,-2.2427,-2.3736,-2.5349,-2.6932,-2.8461,-2.9233,-2.9747,-3.004,-3.0283,-3.0379,-3.0398,-3.0398,-3.0439,-3.0492,-3.0449,-3.0492,-3.0593,-3.063,-3.0664,-3.0707,-3.0855,-3.0891,-3.0866,-3.0895,-3.087,0.0,0.0,-3.0879,-3.0859,-3.0884,-3.0894,-3.0875,-3.0875,-3.0697,-3.0332,-2.9473,-2.8789,-2.8301,-2.8301,-2.8301,-2.8301,-2.8301,-2.847,-2.8628,-2.8628,-2.8777,-2.9085,-2.9679,-2.9767,-2.9931,-3.052,-3.0598,-3.0598,-3.0598,-3.0598,-3.0598,-3.0598,-3.0598,-3.0598,-3.0598,-3.0598,-3.0598,-3.0598,-3.1352,-3.2174,-3.3044,-3.3924,-3.4795,-3.5665,-3.5704,-3.5684,-3.5673,-3.5612,-3.5608,-3.5591,-3.556,-3.5534,-3.5528,-3.5528,-3.5528,-3.5528,-3.5591,-3.556,-3.5528,-3.5572,-3.5249,-3.4731,-3.456,-3.4178,-3.3546,-3.2095,-3.1413,-3.1194,0.0,0.0,0.0,0.0,0.0,0.0,0.0,0.0,0.0,0.0,0.0,0.0,0.0,0.0,0.0,0.0,0.0,0.0,0.0,-2.0419,-2.049,-2.048,-2.2016,-2.2881,-2.294,-2.4503,-2.5761,-2.6584,-2.7447,-2.8322,-2.9152,-2.9939,-3.0336,-3.0398,-3.0398,-3.0439,-3.0501,-3.0492,-3.0535,-3.062,-3.0658,-3.07,-3.0711,-3.0846,-3.0868,-3.0798,-3.0882,0.0,0.0,0.0,-3.0819,-3.0739,-3.0858,-3.0848,0.0,-3.079,-3.0195,-2.9375,-2.8555,-2.832,-2.8301,-2.8301,-2.8301,-2.8301,-2.8301,-2.8905,-2.9457,-2.9457,-3.0075,-3.0611,-3.0576,-3.0559,-3.0578,-3.0598,-3.0598,-3.0598,-3.0598,-3.0598,-3.0598,-3.0598,-3.0598,-3.0598,-3.0598,-3.0598,-3.0598,-3.0598,-3.1352,-3.2174,-3.3044,-3.3924,-3.4795,-3.5665,-3.5704,-3.5673,-3.5601,-3.5601,-3.5608,-3.5591,-3.5591,-3.5596,-3.5601,-3.5601,-3.5608,-3.5591,-3.5591,-3.5591,-3.5604,-3.5608,-3.5581,-3.5488,-3.4783,-3.4536,-3.4456,-3.3565,-3.2739,-3.1931,0.0,0.0,0.0,0.0,0.0,0.0,0.0,0.0,0.0,0.0,0.0,0.0,0.0,0.0,0.0,0.0,0.0,0.0,0.0,-2.0424,-2.0445,-2.0494,-2.0978,-2.1504,-2.2097,-2.3103,-2.4069,-2.4917,-2.5745,-2.6282,-2.66,-2.7445,-2.786,-2.7928,-2.908,-2.9612,-2.9669,-3.03,-3.0571,-3.06,-3.0661,-3.0691,-3.0706,-3.0802,-3.0828,-3.0806,0.0,0.0,0.0,0.0,0.0,0.0,-3.0742,-3.0758,-3.0636,-3.0144,-2.9757,-2.9316,-2.8516,-2.8301,-2.8437,-2.9023,-2.916,-2.9316,-2.9883,-3.0226,-3.0423,-3.0372,-3.1002,-3.1377,-3.0723,-3.0598,-3.0598,-3.0598,-3.0114,-2.994,-3.052,-3.0598,-3.0598,-3.0598,-3.0598,-3.0598,-3.0598,-3.0598,-3.0598,-3.0598,-3.0849,-3.1371,-3.2193,-3.3054,-3.3944,-3.4814,-3.5394,-3.5684,-3.5673,-3.5673,-3.5643,-3.5608,-3.5604,-3.5604,-3.5596,-3.5596,-3.5604,-3.5604,-3.5596,-3.5608,-3.5589,-3.5643,-3.5673,-3.5635,-3.5388,-3.534,-3.5299,-3.4465,-3.3949,-3.349,0.0,0.0,0.0,0.0,0.0,0.0,0.0,0.0,0.0,0.0,0.0,0.0,0.0,0.0,0.0,0.0,0.0,0.0,0.0,0.0,-2.0433,-2.0453,-2.0419,-2.0662,-2.1196,-2.1655,-2.2327,-2.3171,-2.403,-2.458,-2.4888,-2.5792,-2.6206,-2.6264,-2.7368,-2.79,-2.7969,-2.8897,-2.9285,-2.9329,-3.0005,-3.0263,-3.0272,-3.0599,-3.0736,0.0,0.0,0.0,0.0,0.0,0.0,-3.0618,-3.0685,-3.0494,-3.0144,-2.967,-2.9279,-2.8934,-2.8436,-2.8535,-2.8906,-2.9453,-2.9824,-3.0215,-3.0762,-3.0857,-3.0735,-3.0374,-3.0933,-3.1226,-3.0308,-3.0133,-3.023,-3.0559,-2.9863,-2.9592,-3.0482,-3.0598,-3.0598,-3.0598,-3.055,-3.055,-3.0598,-3.055,-3.055,-3.0598,-3.0598,-3.0946,-3.1758,-3.2618,-3.3499,-3.4369,-3.524,-3.5684,-3.5654,-3.5654,-3.5631,-3.5608,-3.5596,-3.5604,-3.5604,-3.5604,-3.5604,-3.5604,-3.5589,-3.5601,-3.5601,-3.5673,-3.5704,-3.5704,-3.5704,-3.5723,-3.5706,-3.5189,-3.4775,-3.4253,0.0,0.0,0.0,0.0,0.0,0.0,0.0,0.0,0.0,0.0,0.0,0.0,0.0,0.0,0.0,0.0,0.0,0.0,0.0,0.0,0.0,-2.0405,-2.04,-2.0363,-2.0301,-2.0295,-2.0665,-2.1433,-2.2331,-2.3149,-2.3922,-2.4851,-2.5305,-2.5305,-2.5389,-2.5465,-2.558,-2.6466,-2.6825,-2.6985,-2.8637,-2.9269,-2.9302,-3.0133,0.0,0.0,0.0,0.0,0.0,0.0,0.0,-3.0614,-3.0681,-3.0131,-2.9458,-2.9418,-2.8897,-2.8338,-2.8367,-2.9004,-2.9668,-2.9668,-3.0293,-3.0898,-3.0898,-3.0757,-3.0419,-2.9624,-3.0069,-3.0346,-2.9515,-2.9321,-2.9573,-3.0404,-2.9766,-2.9495,-3.0404,-3.054,-3.053,-3.0569,-3.046,-3.0439,-3.0579,-3.0479,-3.0439,-3.0579,-3.0598,-3.0926,-3.17,-3.2599,-3.3479,-3.4311,-3.522,-3.5662,-3.5601,-3.5601,-3.5589,-3.5591,-3.5608,-3.5608,-3.5604,-3.5608,-3.5608,-3.5604,-3.5608,-3.5601,-3.5612,-3.5673,-3.5704,-3.5704,-3.5704,-3.5704,-3.5704,-3.5704,-3.522,-3.4311,0.0,0.0,0.0,0.0,0.0,0.0,0.0,0.0,0.0,0.0,0.0,0.0,0.0,0.0,0.0,0.0,0.0,0.0,0.0,0.0,0.0,0.0,0.0,0.0,0.0,0.0,0.0,0.0,0.0,-2.0985,-2.1213,-2.2095,-2.2516,-2.2589,-2.3939,-2.4536,-2.462,-2.5532,-2.5921,-2.5965,0.0,-2.6584,-2.6715,0.0,0.0,0.0,0.0,0.0,0.0,0.0,0.0,-3.0606,-3.0681,-3.0549,-3.0264,-2.9714,-2.9827,-3.0009,-2.9423,-2.9902,-3.0566,-3.0566,-3.07,-3.0833,-3.0833,-3.0267,-2.984,-3.0215,-3.046,-3.052,-3.0308,-2.9747,-2.936,-2.9592,-2.8354,-2.789,-2.9418,-2.9545,-2.9717,-3.0372,-3.039,-3.0343,-3.0367,-3.0343,-3.0343,-3.0367,-3.0509,-3.0694,-3.0907,-3.23,-3.3198,-3.3421,-3.4805,-3.554,-3.5528,-3.5528,-3.5528,-3.5528,-3.562,-3.5673,-3.5662,-3.5673,-3.5673,-3.5662,-3.5673,-3.5673,-3.5673,-3.5684,-3.5704,-3.5704,-3.5704,-3.5704,-3.5704,-3.5704,-3.5568,-3.5162,0.0,0.0,0.0,0.0,0.0,0.0,0.0,0.0,0.0,0.0,0.0,0.0,0.0,0.0,0.0,0.0,0.0,0.0,0.0,0.0,0.0,0.0,0.0,0.0,0.0,0.0,0.0,0.0,0.0,0.0,0.0,-2.0764,-2.1017,-2.1049,-2.2088,-2.2532,-2.2596,-2.3494,0.0,0.0,0.0,0.0,0.0,0.0,0.0,0.0,0.0,0.0,0.0,0.0,0.0,-3.0645,-3.0699,-3.0461,-3.0169,-3.0141,-3.02,-3.0263,-3.0192,-3.0527,-3.0898,-3.0898,-3.0843,-3.0791,-3.0791,-3.0354,-2.9952,-3.0044,-3.0346,-3.0482,-3.0095,-2.9321,-2.8838,-2.9244,-2.8161,-2.7755,-2.9108,-2.9506,-2.9858,-3.034,-3.0299,-3.024,-3.0279,-3.0253,-3.024,-3.0312,-3.039,-3.0466,-3.0466,-3.168,-3.2567,-3.2952,-3.4212,-3.5051,-3.5416,-3.5416,-3.5416,-3.5416,-3.554,-3.5596,-3.5565,-3.5631,-3.5662,-3.567,-3.5662,-3.5662,-3.5673,-3.5684,-3.5704,-3.5704,-3.5704,-3.5704,-3.5704,-3.5704,-3.5491,-3.4988,0.0,0.0,0.0,0.0,0.0,0.0,0.0,0.0,0.0,0.0,0.0,0.0,0.0,0.0,0.0,0.0,0.0,0.0,0.0,0.0,0.0,0.0,0.0,0.0,0.0,0.0,0.0,0.0,0.0,0.0,0.0,0.0,0.0,0.0,0.0,0.0,0.0,0.0,0.0,0.0,0.0,0.0,0.0,0.0,0.0,0.0,0.0,0.0,0.0,0.0,-3.0701,-3.0706,-3.0706,-3.0231,-2.9812,-3.0591,-3.0306,-2.9922,-3.0684,-3.0897,-3.0894,-3.0894,-3.0745,-3.0636,-3.0752,-3.0501,-3.0114,-2.965,-3.0017,-3.023,-2.9592,-2.876,-2.8373,-2.9012,-2.8393,-2.8122,-2.8992,-2.9669,-3.0125,-3.0356,-3.0202,-3.0123,-3.024,-3.0138,-3.0123,-3.024,-3.0253,-3.0266,-3.0312,-3.1059,-3.1941,-3.291,-3.3772,-3.4557,-3.5235,-3.5251,-3.5266,-3.5296,-3.543,-3.5483,-3.5451,-3.5558,-3.562,-3.5616,-3.562,-3.5612,-3.5612,-3.5673,-3.5704,-3.5704,-3.5704,-3.5704,-3.5684,-3.5568,-3.5093,-3.435,0.0,0.0,0.0,0.0,0.0,0.0,0.0,0.0,0.0,0.0,-2.0424,-2.0405,0.0,0.0,0.0,0.0,0.0,0.0,0.0,0.0,0.0,0.0,0.0,0.0,0.0,0.0,0.0,0.0,0.0,0.0,0.0,0.0,0.0,0.0,0.0,0.0,0.0,0.0,0.0,0.0,0.0,0.0,0.0,0.0,0.0,0.0,0.0,0.0,0.0,0.0,-3.0704,-3.0709,-3.0768,-3.0644,-3.0521,-3.0743,-3.07,-3.0644,-3.084,-3.0868,-3.0808,-3.0808,-3.0225,-2.9824,-3.0482,-2.9495,-2.8818,-3.0114,-2.9921,-2.9689,-3.0269,-2.965,-2.8896,-2.8315,-2.7484,-2.7232,-2.8103,-2.8191,-2.8694,-3.0145,-3.0075,-2.9937,-2.9972,-2.9937,-2.9937,-2.9969,-2.9969,-3.0079,-3.0279,-3.1059,-3.2187,-3.365,-3.4508,-3.4935,-3.4963,-3.5088,-3.5187,-3.5296,-3.543,-3.5553,-3.5662,-3.5673,-3.5673,-3.5673,-3.5673,-3.5684,-3.5684,-3.5704,-3.5704,-3.5704,-3.5704,-3.5704,-3.5607,-3.4891,-3.4563,-3.4274,0.0,0.0,0.0,0.0,0.0,0.0,0.0,-2.0439,-2.0465,-2.05,-2.048,-2.0478,-2.0506,-2.0467,-2.0461,0.0,0.0,0.0,0.0,0.0,0.0,0.0,0.0,0.0,0.0,0.0,-2.0875,-2.0875,0.0,-2.1778,-2.2179,-2.2179,-2.2408,-2.2791,-2.2791,0.0,0.0,0.0,0.0,0.0,0.0,0.0,0.0,0.0,0.0,0.0,0.0,0.0,0.0,0.0,-3.0326,-3.0701,-3.079,-3.0737,-3.0704,-3.0745,-3.0755,-3.0767,-3.0839,-3.0801,-3.0644,-3.0233,-2.9765,-2.9495,-2.9882,-2.9302,-2.9031,-3.0327,-2.9901,-2.9437,-2.9843,-2.881,-2.7913,-2.7933,-2.7218,-2.693,-2.772,-2.8153,-2.8664,-2.9486,-2.9768,-2.9888,-2.9888,-2.9888,-2.9888,-2.9888,-2.9888,-2.9972,-3.0094,-3.1276,-3.2327,-3.3099,-3.4353,-3.4963,-3.4908,-3.4963,-3.5035,-3.5088,-3.5296,-3.543,-3.5502,-3.5639,-3.5704,-3.5704,-3.5704,-3.5704,-3.5704,-3.5704,-3.5704,-3.5704,-3.5704,-3.5414,-3.4969,-3.4543,-3.3887,-3.3073,0.0,0.0,0.0,0.0,0.0,0.0,0.0,-2.0472,-2.0506,-2.0516,-2.0509,-2.0525,-2.0592,-2.0555,-2.0511,0.0,0.0,0.0,0.0,0.0,0.0,0.0,0.0,0.0,0.0,0.0,0.0,-2.1782,-2.2457,0.0,0.0,0.0,0.0,0.0,-2.3356,-2.3392,-2.3446,0.0,0.0,0.0,0.0,-2.1965,0.0,0.0,0.0,0.0,0.0,0.0,0.0,0.0,-2.9846,-3.0427,-3.0656,-3.0714,-3.0635,-3.0472,-3.0416,-3.0394,-3.0277,-3.0203,-3.0,-2.9375,-2.9032,-2.8941,-2.9317,-2.9057,-2.9057,-3.0122,-2.9638,-2.9038,-2.9038,-2.7873,-2.7074,-2.7586,-2.7065,-2.6795,-2.7374,-2.8018,-2.853,-2.8864,-2.9342,-2.9699,-2.9869,-2.9888,-2.9888,-2.9888,-2.9888,-2.9888,-2.9888,-3.1345,-3.2217,-3.2387,-3.3866,-3.4737,-3.4908,-3.4908,-3.4908,-3.4964,-3.5155,-3.5266,-3.5315,-3.5515,-3.5608,-3.5628,-3.5631,-3.5662,-3.5662,-3.5695,-3.559,-3.5416,-3.5445,-3.4903,-3.411,-3.3955,-3.3102,-3.1972,0.0,0.0,0.0,0.0,0.0,0.0,0.0,-2.0499,-2.0528,-2.0584,-2.0541,-2.0522,-2.0601,-2.0592,-2.0586,0.0,0.0,0.0,0.0,0.0,0.0,0.0,0.0,0.0,0.0,0.0,0.0,-2.2673,-2.2769,0.0,0.0,0.0,0.0,0.0,0.0,-2.5164,-2.517,-2.517,0.0,0.0,0.0,0.0,0.0,0.0,0.0,0.0,0.0,0.0,0.0,0.0,0.0,-2.9486,-3.0267,-3.0579,-3.0477,-2.9726,0.0,0.0,-2.865,-2.8435,-2.8421,-2.8332,-2.7666,-2.7446,-2.9045,0.0,-2.7505,-2.9162,-2.8812,-2.821,-2.821,-2.8058,-2.7726,-2.7028,-2.6734,-2.6632,-2.6699,-2.6608,-2.7134,-2.8717,-2.8863,-2.9093,-2.9832,-2.9888,-2.9888,-2.9888,-2.9888,-2.9888,-2.9888,-3.0814,-3.1648,-3.2387,-3.3316,-3.4169,-3.4889,-3.4908,-3.4963,-3.5088,-3.5105,-3.5187,-3.5315,-3.533,-3.5345,-3.5345,-3.5476,-3.5528,-3.554,-3.5648,-3.5234,-3.4536,-3.46,-3.4085,-3.3211,-3.2501,-3.2132,-3.1895,0.0,0.0,0.0,0.0,0.0,0.0,-2.0503,-2.0497,-2.0501,-2.0544,-2.0523,-2.054,-2.0593,-2.0609,-2.0577,-2.0535,0.0,0.0,0.0,0.0,0.0,0.0,0.0,0.0,0.0,0.0,-2.3584,-2.3584,-2.4105,0.0,0.0,0.0,0.0,0.0,0.0,-2.5421,-2.5456,-2.5456,0.0,0.0,0.0,0.0,0.0,0.0,0.0,0.0,0.0,0.0,-2.4941,0.0,0.0,0.0,-2.9612,-3.0066,0.0,0.0,-2.9334,-2.922,-2.8411,-2.8164,-2.8028,-2.754,-2.7115,-2.6961,-2.7617,0.0,-2.7071,-2.8249,-2.7795,-2.7196,-2.7196,-2.6737,-2.64,-2.6545,-2.61,-2.5913,-2.635,-2.639,-2.66,-2.7252,-2.7713,-2.8309,-2.9159,-2.9185,-2.9377,-2.9851,-2.9888,-2.9888,-2.9888,-3.0739,-3.1364,-3.1667,-3.2994,-3.3847,-3.4169,-3.4661,-3.4945,-3.4982,-3.5053,-3.5122,-3.5187,-3.5251,-3.5326,-3.543,-3.547,-3.5241,-3.4853,-3.4942,-3.4464,-3.3688,-3.3705,-3.3208,-3.2431,-3.212,-3.167,-3.1168,0.0,0.0,0.0,0.0,0.0,-2.0483,-2.0499,-2.0506,-2.0501,-2.0508,-2.0501,-2.0527,-2.0565,-2.0583,-2.0564,-2.0504,-2.0512,0.0,0.0,0.0,0.0,0.0,0.0,0.0,0.0,0.0,-2.4469,-2.4469,-2.5106,-2.5404,0.0,0.0,-2.5432,-2.5429,0.0,0.0,0.0,0.0,0.0,0.0,0.0,0.0,0.0,0.0,0.0,0.0,0.0,0.0,0.0,0.0,0.0,0.0,0.0,0.0,0.0,0.0,-2.8916,-2.8754,-2.771,-2.7418,-2.7243,-2.67,-2.6479,-2.6476,-2.6679,-2.6513,-2.655,-2.7383,-2.6853,-2.6256,-2.6256,-2.5687,-2.5444,-2.602,-2.5603,-2.5375,-2.5907,-2.5996,-2.6092,-2.6274,-2.6802,-2.7485,-2.8369,-2.8624,-2.9064,-2.9899,-2.9956,-2.9956,-2.9956,-3.0544,-3.0964,-3.1193,-3.2349,-3.307,-3.3316,-3.3884,-3.4301,-3.4566,-3.4409,-3.4461,-3.4706,-3.456,-3.4568,-3.4674,-3.4711,-3.4444,-3.3984,-3.4093,-3.3631,-3.2854,-3.2868,-3.237,-3.165,-3.165,-3.1259,-3.0735,0.0,0.0,0.0,0.0,0.0,0.0,-2.0494,-2.05,-2.0509,-2.0506,-2.0508,-2.049,-2.0495,-2.0566,-2.0566,-2.0515,-2.0563,0.0,0.0,0.0,0.0,0.0,0.0,0.0,0.0,0.0,-2.5382,-2.5382,-2.5401,-2.5429,-2.5511,-2.5511,-2.5511,-2.5492,0.0,0.0,0.0,0.0,0.0,0.0,0.0,0.0,0.0,0.0,0.0,0.0,0.0,0.0,0.0,0.0,0.0,0.0,0.0,0.0,0.0,0.0,-2.8016,-2.7663,-2.6057,-2.5663,-2.5718,-2.5718,-2.5605,-2.5737,-2.6592,-2.6074,-2.5666,-2.6525,-2.6014,-2.5406,-2.5406,-2.5393,-2.5406,-2.5406,-2.5283,-2.5187,-2.5206,-2.5144,-2.5406,-2.6224,-2.6312,-2.664,-2.7523,-2.8322,-2.9174,-3.0045,-3.0102,-3.0102,-3.0102,-3.0122,-3.0456,-3.1174,-3.1231,-3.161,-3.2406,-3.2425,-3.2879,-3.3805,-3.2931,-3.2985,-3.3779,-3.2982,-3.268,-3.2752,-3.2859,-3.296,-3.3026,-3.3223,-3.2798,-3.202,-3.2099,-3.1583,-3.0818,-3.0818,-3.0818,-3.0808,0.0,0.0,0.0,0.0,0.0,0.0,0.0,-2.0499,-2.0501,-2.0508,-2.0495,-2.0498,-2.0492,-2.0513,-2.0539,-2.0565,-2.0549,0.0,0.0,0.0,0.0,0.0,0.0,0.0,0.0,0.0,-2.5464,-2.5464,-2.5476,-2.5471,-2.5498,-2.5557,-2.557,-2.5564,-2.5471,-2.5414,0.0,0.0,0.0,0.0,0.0,0.0,-2.0655,0.0,0.0,0.0,0.0,0.0,0.0,0.0,0.0,0.0,0.0,0.0,0.0,0.0,0.0,0.0,-2.5924,-2.5479,-2.5486,-2.5486,-2.5466,-2.5495,-2.573,-2.5532,-2.5399,-2.5629,-2.5454,-2.5262,-2.5262,-2.5261,-2.525,-2.525,-2.5236,-2.5172,-2.5149,-2.5113,-2.5184,-2.545,-2.6009,-2.6694,-2.7518,-2.8322,-2.9174,-3.0026,-3.0102,-3.0102,-3.0102,-3.0102,-3.0221,-3.0437,-3.0972,-3.139,-3.1656,-3.2245,-3.2683,-3.2985,-3.2699,-3.2716,-3.2963,-3.2716,-3.2645,-3.2685,-3.2781,-3.2621,-3.2249,-3.2314,-3.1877,-3.1178,-3.1198,-3.1051,-3.0798,-3.0806,-3.0801,-3.0796,0.0,0.0,0.0,0.0,0.0,0.0,0.0,-2.0504,-2.0508,-2.0508,-2.0498,-2.0502,-2.0497,-2.0508,-2.0513,-2.0566,-2.0525,0.0,0.0,0.0,0.0,0.0,0.0,0.0,0.0,-2.511,-2.5536,-2.5536,-2.5544,-2.5531,-2.5531,-2.557,-2.5601,-2.5595,-2.5485,-2.5248,0.0,0.0,0.0,0.0,0.0,0.0,-2.026,0.0,0.0,0.0,0.0,0.0,0.0,0.0,0.0,0.0,0.0,0.0,0.0,0.0,-2.6918,-2.7104,0.0,-2.5387,-2.5387,-2.5387,-2.5382,0.0,-2.5303,-2.5273,-2.525,-2.5203,-2.5191,-2.5191,-2.5191,-2.5191,-2.5191,-2.5191,-2.5191,-2.518,-2.5137,-2.5137,-2.5125,-2.5113,-2.5602,-2.6257,-2.7069,-2.7908,-2.8741,-2.958,-2.9942,-3.0147,-3.0147,-3.0147,-3.0147,-3.0147,-3.0598,-3.0849,-3.0849,-3.1401,-3.1819,-3.214,-3.1816,-3.1835,-3.2137,-3.1832,-3.1718,-3.1801,-3.184,-3.1684,0.0,-3.1433,-3.1171,-3.0764,-3.0798,-3.0806,-3.081,-3.0798,-3.0807,-3.0801,0.0,0.0,0.0,0.0,0.0,0.0,0.0,-2.0499,-2.0508,-2.0508,-2.05,-2.0505,-2.0504,-2.0504,-2.0497,-2.0509,0.0,0.0,0.0,0.0,0.0,0.0,0.0,0.0,-2.4183,-2.5057,-2.5543,-2.5601,-2.5601,-2.5601,-2.5601,-2.5607,-2.5607,-2.5607,-2.5473,-2.4895,-2.3931,0.0,0.0,0.0,0.0,0.0,0.0,0.0,0.0,0.0,0.0,0.0,0.0,0.0,0.0,0.0,0.0,0.0,0.0,0.0,0.0,0.0,0.0,-2.5363,-2.539,-2.539,-2.535,-2.5293,0.0,0.0,0.0,-2.521,-2.518,-2.518,-2.521,-2.5191,-2.5191,-2.5191,-2.5191,-2.5191,-2.5191,-2.5191,-2.518,-2.5113,-2.5156,-2.5492,-2.6308,-2.7179,-2.8013,-2.8834,-2.9707,-3.0204,-3.0204,-3.0204,-3.0204,-3.0204,-3.0147,-3.0102,-3.0102,-3.0102,-3.0513,-3.1306,-3.049,-3.0524,-3.1293,-3.0548,-3.0234,-3.029,-3.029,-3.037,-3.051,-3.063,-3.0691,-3.071,-3.0778,-3.0801,-3.0801,-3.0801,-3.0801,-3.0801,0.0,0.0,0.0,0.0,0.0,0.0,0.0,0.0,0.0,0.0,-2.0546,-2.0566,-2.0519,-2.0502,-2.0503,0.0,0.0,0.0,0.0,0.0,0.0,0.0,0.0,0.0,-2.329,-2.4155,-2.4935,-2.5601,-2.5604,-2.56,-2.56,-2.5654,-2.5682,-2.5643,-2.4913,-2.4031,-2.305,-2.2143,0.0,0.0,0.0,0.0,0.0,0.0,0.0,0.0,-2.2345,-2.3132,0.0,0.0,0.0,0.0,0.0,0.0,0.0,0.0,-2.5191,-2.5148,-2.4974,0.0,-2.525,-2.525,-2.5228,-2.5225,0.0,0.0,0.0,0.0,0.0,0.0,0.0,-2.5191,-2.5191,-2.5191,-2.5191,-2.5191,-2.5191,-2.5191,-2.5191,-2.518,-2.5057,-2.5355,-2.6314,-2.7056,-2.7861,-2.8834,-2.9707,-3.0204,-3.0204,-3.0204,-3.0204,-3.0204,-3.0171,-3.019,-3.019,-3.019,-3.0285,-3.0476,-3.0266,-3.0266,-3.0472,-3.028,-3.0213,-3.0221,-3.0221,-3.0328,-3.0501,-3.0535,-3.0639,-3.0789,-3.0801,-3.081,-3.0791,-3.0794,-3.0796,-3.0799,0.0,0.0,0.0,0.0,0.0,0.0,0.0,0.0,0.0,0.0,0.0,0.0,0.0,0.0,0.0,0.0,0.0,0.0,0.0,0.0,0.0,0.0,0.0,-2.2153,-2.3038,-2.3898,-2.4764,-2.5639,-2.5654,-2.5643,-2.5643,-2.5675,-2.5488,-2.504,-2.3698,-2.2778,-2.2153,-2.1312,-2.0922,-2.0858,-2.0389,0.0,0.0,0.0,0.0,0.0,-2.2891,-2.3592,0.0,-2.487,-2.5111,-2.5031,0.0,0.0,0.0,0.0,-2.4804,-2.4804,-2.4804,-2.4907,-2.5019,-2.5019,-2.5019,-2.5019,0.0,0.0,0.0,0.0,0.0,0.0,0.0,-2.5113,-2.5137,-2.5191,-2.5195,-2.5206,-2.5195,-2.5203,-2.5191,-2.5191,-2.5013,-2.5113,-2.5653,-2.6323,-2.7093,-2.8006,-2.8875,-2.9539,-2.9902,-2.9921,-2.9921,-2.9921,-2.9921,-3.0,-3.0204,-3.0204,-3.0204,-3.0204,-3.0204,-3.0204,-3.0204,-3.0204,-3.0204,-3.0199,-3.0234,-3.0328,-3.0452,-3.0528,-3.0632,-3.075,-3.0747,-3.0765,-3.0796,-3.0799,-3.0801,-3.0801,0.0,0.0,0.0,0.0,0.0,0.0,0.0,0.0,0.0,0.0,0.0,0.0,0.0,0.0,0.0,0.0,0.0,0.0,0.0,0.0,0.0,0.0,0.0,-2.2079,-2.3075,-2.3813,-2.4686,-2.5699,-2.5699,-2.5621,-2.5508,-2.5508,-2.4966,-2.394,-2.2392,-2.1565,-2.1285,-2.059,-2.0272,-2.0211,-2.0214,0.0,0.0,0.0,0.0,0.0,0.0,0.0,0.0,-2.4834,-2.4993,-2.4898,-2.4823,0.0,0.0,0.0,0.0,0.0,-2.4746,-2.476,-2.479,-2.4804,-2.4804,-2.4804,-2.4804,0.0,0.0,0.0,0.0,0.0,0.0,-2.5,-2.505,-2.5172,-2.5187,-2.5149,-2.5134,-2.5149,-2.5156,-2.5168,-2.4974,-2.4874,-2.4915,-2.5491,-2.6188,-2.6883,-2.7746,-2.8534,-2.9213,-2.9382,-2.9438,-2.942,-2.9588,-2.9803,-3.0157,-3.0157,-3.0157,-3.0157,-3.019,-3.0204,-3.0204,-3.0204,-3.0185,-3.0199,-3.026,-3.0333,-3.0409,-3.0548,-3.0625,-3.0695,-3.0701,-3.0732,-3.0774,-3.0771,-3.0794,-3.0821,0.0,0.0,0.0,0.0,0.0,0.0,0.0,0.0,0.0,0.0,0.0,0.0,0.0,0.0,0.0,0.0,0.0,0.0,0.0,0.0,0.0,0.0,-2.0636,-2.1442,-2.3057,-2.3235,-2.4082,-2.5699,-2.5699,-2.5313,-2.4599,-2.4599,-2.3745,-2.2191,-2.1916,-2.1332,-2.0549,-2.0372,-2.0294,-2.0285,-2.0285,0.0,0.0,0.0,0.0,0.0,0.0,0.0,0.0,-2.4904,-2.4915,-2.4874,-2.4749,0.0,0.0,0.0,0.0,0.0,-2.4549,-2.4629,-2.4719,-2.479,-2.4804,-2.4804,-2.4804,0.0,0.0,0.0,0.0,0.0,0.0,-2.4994,-2.5043,-2.5179,-2.5103,-2.4994,-2.4874,-2.4861,-2.4902,-2.5025,-2.4808,-2.4734,-2.4968,-2.548,-2.5933,-2.6227,-2.6997,-2.7525,-2.7662,-2.8305,-2.8645,-2.8592,-2.941,-2.9888,-2.9956,-2.9956,-2.9956,-2.9956,-3.0128,-3.0204,-3.0204,-3.0204,-3.0199,-3.0207,-3.0202,-3.0285,-3.0413,-3.0535,-3.0603,-3.0632,-3.0686,-3.0715,-3.0715,-3.0714,-3.0793,-3.088,0.0,0.0,0.0,0.0,0.0,0.0,0.0,0.0,0.0,0.0,0.0,0.0,0.0,0.0,0.0,0.0,0.0,0.0,0.0,0.0,0.0,-2.05,-2.0492,-2.1313,-2.3065,-2.3563,-2.4183,-2.5005,-2.5005,-2.4534,-2.3626,-2.3162,-2.2516,-2.1737,-2.1243,-2.0784,-2.0357,-2.0346,-2.0301,-2.0299,0.0,0.0,0.0,0.0,0.0,0.0,0.0,0.0,0.0,0.0,-2.467,-2.4512,-2.4445,0.0,0.0,0.0,0.0,0.0,-2.4339,-2.441,-2.453,-2.4657,-2.476,-2.4832,-2.4719,0.0,0.0,0.0,0.0,0.0,0.0,-2.4818,-2.4874,-2.5019,-2.4968,-2.4874,-2.4851,-2.4818,-2.4818,-2.4888,-2.4719,-2.4645,-2.4779,-2.4914,-2.5205,-2.5739,-2.613,-2.6523,-2.6953,-2.7326,-2.7513,-2.7475,-2.7942,-2.839,-2.8877,-2.8969,-2.9336,-2.9956,-3.0015,-3.006,-3.009,-3.0194,-3.0253,-3.0266,-3.0285,-3.0367,-3.0462,-3.052,-3.0587,-3.0659,-3.0646,-3.0691,-3.0743,-3.0748,-3.0825,-3.0907,0.0,0.0,0.0,0.0,0.0,0.0,0.0,0.0,0.0,0.0,0.0,0.0,0.0,0.0,0.0,0.0,0.0,0.0,0.0,0.0,-2.048,-2.048,-2.0685,-2.1435,-2.276,-2.3455,-2.3883,-2.4066,-2.4078,-2.3595,-2.2678,-2.1799,-2.1395,-2.1376,-2.0682,-2.0355,-2.0289,-2.0334,-2.0407,-2.0535,0.0,0.0,0.0,0.0,0.0,0.0,0.0,0.0,0.0,0.0,0.0,0.0,0.0,0.0,0.0,-2.4113,-2.417,-2.4209,-2.4191,-2.4266,-2.4357,-2.4481,0.0,-2.479,-2.466,0.0,0.0,0.0,0.0,0.0,0.0,-2.47,-2.4794,-2.4861,-2.4847,-2.4818,-2.4856,-2.4794,-2.476,-2.479,-2.4676,-2.4599,-2.4631,-2.4464,-2.4598,-2.5227,-2.5282,-2.5522,-2.6131,-2.6333,-2.6425,-2.6425,-2.665,-2.7096,-2.7763,-2.7922,-2.8649,-2.9921,-2.9883,-2.9931,-3.0007,-3.0161,-3.0253,-3.0266,-3.0344,-3.0411,-3.0481,-3.0501,-3.0574,-3.0646,-3.0618,-3.0671,-3.0754,-3.0803,-3.0833,-3.0866,0.0,0.0,0.0,0.0,0.0,0.0,0.0,0.0,0.0,0.0,0.0,0.0,0.0,0.0,0.0,0.0,0.0,0.0,0.0,0.0,-2.0404,-2.0404,-2.1249,-2.1772,-2.1893,-2.1967,-2.2341,-2.31,-2.3101,-2.2652,-2.1764,-2.09,-2.0497,-2.0493,-2.0351,-2.0307,-2.0294,-2.0238,-2.0647,-2.1311,-2.1176,0.0,0.0,0.0,0.0,0.0,0.0,0.0,0.0,0.0,0.0,0.0,0.0,0.0,-2.3876,-2.4113,-2.4208,-2.419,-2.419,-2.4284,-2.4373,-2.4247,-2.4429,0.0,-2.4676,-2.4707,0.0,-2.4692,0.0,0.0,-2.4775,-2.4888,-2.4942,-2.4832,-2.4861,-2.4847,-2.4738,-2.466,-2.466,-2.479,-2.4629,-2.4549,-2.4676,-2.4566,-2.4501,-2.4557,-2.4557,-2.4576,-2.4561,-2.5264,-2.5652,-2.5595,-2.6488,-2.7027,-2.7083,-2.7083,-2.7976,-2.9713,-2.9787,-2.9872,-2.9992,-3.0007,-3.0075,-3.0123,-3.0254,-3.0352,-3.0409,-3.054,-3.0559,-3.052,-3.0576,-3.0616,-3.0627,-3.0813,-3.0828,-3.0711,0.0,0.0,0.0,0.0,0.0,0.0,0.0,0.0,0.0,0.0,0.0,0.0,0.0,0.0,0.0,0.0,0.0,0.0,0.0,0.0,-2.0463,-2.0463,-2.075,-2.0947,-2.0981,-2.2018,-2.2457,-2.2251,-2.1632,-2.1146,-2.0822,-2.0488,-2.0321,-2.0275,-2.0248,-2.0512,-2.0975,-2.0814,-2.1217,-2.1997,-2.234,-2.2712,0.0,0.0,0.0,0.0,0.0,0.0,0.0,0.0,-2.3671,-2.3422,-2.3664,-2.3598,-2.3376,-2.344,-2.3598,-2.375,-2.3753,-2.3959,-2.4173,-2.4247,-2.4339,0.0,0.0,-2.4802,-2.4917,-2.4798,-2.4749,0.0,-2.4734,-2.4779,-2.4794,-2.4749,-2.4764,-2.4749,-2.4707,-2.4676,-2.4676,-2.4734,-2.4676,-2.4645,-2.4692,-2.4645,-2.4615,-2.4566,-2.4566,-2.4532,-2.4465,-2.4635,-2.4709,-2.469,-2.506,-2.5505,-2.6005,-2.6117,-2.6857,-2.8156,-2.8648,-2.9191,-2.975,-2.9867,-3.0026,-3.0161,-3.0228,-3.0316,-3.0469,-3.051,-3.0559,-3.0558,-3.0578,-3.0593,-3.0603,-3.0695,-3.0735,-3.0769,0.0,0.0,0.0,0.0,0.0,0.0,0.0,0.0,0.0,0.0,0.0,0.0,0.0,0.0,0.0,0.0,0.0,0.0,-2.0402,-2.043,-2.0448,-2.0448,-2.038,-2.0395,-2.0448,-2.1571,-2.1886,-2.1368,-2.0642,-2.0308,-2.0308,-2.0277,-2.0384,-2.0572,-2.048,-2.0918,-2.1673,-2.1444,-2.1784,-2.2488,-2.2889,-2.2997,0.0,0.0,0.0,0.0,0.0,0.0,0.0,0.0,-2.3271,-2.301,-2.3277,-2.3182,-2.2985,-2.3028,-2.3253,-2.3486,-2.3495,-2.371,-2.3958,0.0,0.0,0.0,-2.4409,-2.4673,-2.4842,-2.47,-2.4704,-2.4689,-2.4578,-2.4629,-2.4645,-2.4578,-2.4594,-2.461,-2.461,-2.4578,-2.4561,-2.4561,-2.4564,-2.4547,-2.4547,-2.4547,-2.4513,-2.4481,-2.4481,-2.4481,-2.4481,-2.4338,-2.4284,-2.4356,-2.4302,-2.4543,-2.5078,-2.5226,-2.5779,-2.6723,-2.7284,-2.8144,-2.9267,-2.9406,-2.9684,-3.0099,-3.0174,-3.0299,-3.0477,-3.0477,-3.0518,-3.0598,-3.0607,-3.0637,-3.0626,-3.0652,-3.0725,-3.0794,0.0,0.0,0.0,0.0,0.0,0.0,0.0,0.0,0.0,0.0,0.0,0.0,0.0,0.0,0.0,0.0,0.0,0.0,-2.04,-2.034,-2.0312,-2.0312,-2.0301,-2.0302,-2.0302,-2.0302,-2.0338,-2.04,-2.0327,-2.0312,-2.0304,-2.0233,-2.0629,-2.1397,-2.1138,-2.1488,-2.2284,-2.2021,-2.2273,-2.2795,-2.2584,-2.2772,-2.3199,0.0,0.0,0.0,0.0,0.0,0.0,0.0,-2.2737,-2.2565,-2.2838,-2.2737,-2.2591,-2.2915,-2.32,-2.3427,-2.3504,-2.3642,-2.3795,0.0,0.0,0.0,-2.4097,-2.4247,-2.4407,-2.4407,-2.4512,-2.4549,-2.4339,-2.4462,-2.453,-2.4321,-2.4374,-2.4389,-2.4389,-2.4338,-2.4303,-2.4303,-2.4228,-2.419,-2.419,-2.419,-2.419,-2.419,-2.419,-2.4266,-2.4389,-2.4389,-2.4493,-2.4692,-2.451,-2.4389,-2.4407,-2.4389,-2.4834,-2.5689,-2.5809,-2.6787,-2.8487,-2.8487,-2.9009,-2.9905,-3.0094,-3.0266,-3.0398,-3.0398,-3.0477,-3.0607,-3.0668,-3.0711,-3.0711,-3.0761,-3.0801,-3.0801,0.0,0.0,0.0,0.0,0.0,0.0,0.0,0.0,0.0,0.0,0.0,0.0,0.0,0.0,0.0,0.0,0.0,0.0,-2.0115,-2.0218,-2.0288,-2.0288,-2.0299,-2.0287,-2.0302,-2.0353,-2.036,-2.032,-2.0311,-2.0296,-2.0308,-2.0699,-2.1013,-2.1187,-2.1556,-2.2167,-2.2912,-2.2556,-2.2829,-2.348,-2.3177,-2.0415,-1.6486,0.0,0.0,0.0,0.0,0.0,0.0,0.0,0.0,0.0,-0.9799,-0.9709,-1.0453,-1.5498,-1.6772,-1.7602,-2.2452,-2.3738,0.0,-2.3598,0.0,0.0,0.0,-2.4265,0.0,0.0,-2.4526,-2.4442,-2.4373,-2.4425,-2.4442,-2.4373,-2.4391,-2.4389,-2.4389,-2.4391,-2.4373,-2.4373,-2.4338,-2.4338,-2.4338,-2.4461,-2.453,-2.4481,-2.4481,-2.4462,-2.4389,-2.4174,-2.4135,-2.4356,-2.4284,-2.432,-2.4459,-2.4407,-2.4537,-2.4779,-2.4727,-2.5707,-2.7595,-2.7595,-2.8062,-2.8865,-2.9061,-2.9503,-3.007,-3.0344,-3.0559,-3.068,-3.0695,-3.0703,-3.0703,-3.0729,-3.073,-3.0722,0.0,0.0,0.0,0.0,0.0,0.0,0.0,0.0,0.0,0.0,0.0,0.0,0.0,0.0,0.0,0.0,0.0,0.0,0.0,-2.0033,-2.0142,-2.0142,-2.0562,-2.0797,-2.0776,-2.1101,-2.1116,-2.0784,-2.045,-2.0458,-2.0784,-2.1043,-2.1487,-2.2061,-2.216,-2.2663,-2.3235,-2.0159,-1.9102,-1.9218,-1.6334,-1.2781,-0.9177,0.0,0.0,0.0,0.0,0.0,0.0,0.0,0.0,0.0,-0.3762,-0.3609,-0.4697,-1.1607,-1.35,-1.4836,-2.1786,-2.3565,0.0,-2.3664,-2.3685,-2.3707,-2.3819,0.0,0.0,-2.4337,-2.4301,-2.4265,-2.4174,-2.4229,-2.4247,-2.4155,-2.4174,-2.4174,-2.4174,-2.4174,-2.4174,-2.4174,-2.4174,-2.4174,-2.4174,-2.4265,-2.4338,-2.4302,-2.4266,-2.4284,-2.4284,-2.4097,-2.4078,-2.4266,-2.4192,-2.4211,-2.4338,-2.4301,-2.4284,-2.4284,-2.4284,-2.4912,-2.6092,-2.6393,-2.7043,-2.7951,-2.8452,-2.8992,-2.9584,-3.0119,-3.0441,-3.0576,-3.0574,-3.0599,-3.0668,-3.0664,-3.0685,-3.0739,0.0,0.0,0.0,0.0,0.0,0.0,0.0,0.0,0.0,0.0,0.0,0.0,0.0,0.0,0.0,0.0,0.0,0.0,0.0,0.0,-2.0004,-2.0099,-2.1101,-2.163,-2.1605,-2.2268,-2.2306,-2.1729,-2.0989,-2.0993,-2.1703,-2.1586,-2.2262,-2.3585,-2.305,-2.2854,-2.2509,-1.602,-1.2749,-1.142,-0.528,-0.2312,-0.1559,-0.1626,0.0,0.0,0.0,0.0,0.0,0.0,0.0,0.0,-0.123,-0.1041,-0.2027,-0.8893,-1.1377,-1.3496,-2.0576,-2.2863,-2.3365,-2.3792,-2.3594,-2.3412,-2.3759,-2.3798,-2.3774,-2.3816,-2.3959,-2.4019,-2.3837,-2.3959,-2.4001,-2.3837,-2.3795,-2.3795,-2.3795,-2.3795,-2.3795,-2.3795,-2.3795,-2.3795,-2.3795,-2.3816,-2.3837,-2.3837,-2.3837,-2.3899,-2.4059,-2.404,-2.4136,-2.4318,-2.4155,-2.4079,-2.4135,-2.4116,-2.4116,-2.4116,-2.4247,-2.4337,-2.4338,-2.5079,-2.6023,-2.7109,-2.8013,-2.865,-2.9021,-2.9721,-3.0132,-3.0371,-3.04,-3.0492,-3.0563,-3.0564,-3.0639,-3.0745,0.0,0.0,0.0,0.0,0.0,0.0,0.0,0.0,0.0,0.0,0.0,0.0,0.0,0.0,0.0,0.0,0.0,0.0,0.0,0.0,-2.0889,-2.1517,-2.1922,-2.2228,-2.2362,-2.2515,-2.2851,-2.3388,-2.3207,-2.3167,-2.3244,-2.4237,-2.4668,-2.4624,-2.4992,-2.1867,-1.6232,-1.4612,-1.034,-0.4525,-0.2932,0.0864,0.5583,0.5578,0.8874,0.0,0.0,0.0,0.0,0.0,0.0,0.0,1.2772,1.2886,1.1527,0.373,-0.1498,-0.6506,-1.4296,-1.9689,0.0,-2.3151,-2.3223,-2.3336,-2.3412,-2.3435,-2.3531,-2.4019,-2.3979,-2.3858,-2.3816,-2.3837,-2.3858,-2.3816,-2.3795,-2.3795,-2.3795,-2.3795,-2.3795,-2.3795,-2.3795,-2.3795,-2.3795,-2.3941,-2.4039,-2.4039,-2.4039,-2.3963,-2.3785,-2.3692,-2.3692,-2.3846,-2.3806,-2.3946,-2.4337,-2.4174,-2.4116,-2.4097,-2.3878,-2.3771,-2.3792,-2.4432,-2.522,-2.6145,-2.6823,-2.7763,-2.8867,-2.9006,-2.9538,-3.0267,-3.0433,-3.0434,-3.0366,-3.0307,-3.0347,-3.0399,0.0,0.0,0.0,0.0,0.0,0.0,0.0,0.0,0.0,0.0,0.0,0.0,0.0,0.0,0.0,0.0,0.0,0.0,0.0,0.0,-2.1522,-2.2622,-2.2722,-2.2852,-2.3068,-2.3411,-2.3885,-2.4469,-2.5126,-2.5224,-2.4807,-2.525,-2.5462,-2.5389,-2.1762,-1.7946,-1.3747,-0.6838,-0.1423,0.2816,0.6051,0.9784,1.3315,1.3315,1.5648,1.8937,1.8937,0.0,0.0,0.0,0.0,0.0,0.0,0.0,1.6723,0.9354,0.4665,-0.0382,-1.0764,0.0,0.0,-2.2081,0.0,-2.3217,-2.3217,-2.3193,-2.3295,-2.3732,-2.3667,-2.3553,-2.3553,-2.3553,-2.3553,-2.3553,-2.3553,-2.358,-2.3692,-2.3692,-2.3735,-2.3876,-2.3896,-2.3855,-2.3714,-2.3798,-2.3819,-2.3732,-2.3689,-2.3649,-2.3631,-2.3562,-2.3584,-2.3741,-2.3638,-2.3741,-2.4001,-2.3777,-2.3689,-2.371,-2.3549,-2.1925,-1.9177,-2.2542,-2.4394,-2.4968,-2.5685,-2.6543,-2.7456,-2.8209,-2.8856,-2.9436,-2.9958,-3.0139,-3.0093,-3.0069,-3.0119,-3.0205,0.0,0.0,0.0,0.0,0.0,0.0,0.0,0.0,0.0,0.0,0.0,0.0,0.0,0.0,0.0,0.0,0.0,0.0,0.0,0.0,0.0,-2.3403,-2.3396,-2.3478,-2.3738,-2.4512,-2.5062,-2.5378,-2.6634,-2.6967,-2.6441,-2.5986,-2.6005,-2.605,-1.7956,-1.3677,-1.1667,0.1542,0.8199,1.0367,1.587,1.8738,1.9684,1.9684,2.0014,2.0566,2.0566,2.0609,2.0595,2.0175,0.0,0.0,0.0,0.0,1.8323,1.252,0.908,0.4759,-0.6254,0.0,-1.314,-1.8295,-1.9734,0.0,-1.9907,-2.0649,-2.1438,-2.1658,-2.2569,-2.3289,-2.3289,-2.3289,-2.3289,-2.3289,-2.3289,-2.3365,-2.3518,-2.354,-2.3646,-2.3834,-2.3894,-2.3792,-2.3562,-2.354,-2.3491,-2.3313,-2.3241,-2.3295,-2.3481,-2.3445,-2.3455,-2.3646,-2.3495,-2.2939,-2.1961,-2.1722,-2.1104,-2.0077,-2.0052,-1.7352,-1.2555,-1.7864,-2.0448,-2.0736,-2.1432,-2.2043,-2.2665,-2.3889,-2.4587,-2.4919,-2.5711,-2.6035,-2.6098,-2.6171,-2.7062,-2.8214,0.0,0.0,0.0,0.0,0.0,0.0,0.0,0.0,0.0,0.0,0.0,0.0,0.0,0.0,0.0,0.0,0.0,0.0,-2.0892,0.0,0.0,-2.3626,-2.3876,-2.4081,-2.429,-2.5244,-2.601,-2.6562,-2.74,-2.7943,-2.8255,-2.8184,-2.7797,-2.6827,-1.9436,-1.2406,-0.5572,0.3175,1.1072,1.7883,1.9162,2.0281,2.1102,2.1102,2.1619,2.2359,2.2359,2.2555,2.279,2.2717,2.2408,0.0,0.0,0.0,2.0357,1.7948,1.3191,0.8041,0.5011,0.0,-0.5404,0.0,-0.6962,-0.6982,-0.6982,-1.1064,-1.4878,-1.4895,-1.9372,-2.3289,-2.3289,-2.3289,-2.3289,-2.3289,-2.3289,-2.3313,-2.336,-2.3342,-2.3342,-2.3407,-2.3389,-2.3365,-2.3342,-2.3342,-2.3319,-2.3313,-2.3289,-2.3217,-2.3003,-2.2977,-2.3003,-2.3028,-2.2985,-2.0508,-1.5319,-1.5263,-1.2512,-0.7179,-0.7024,-0.6419,-0.5541,-0.6538,-0.714,-0.7471,-0.7688,-0.8317,-0.9188,-0.9077,-0.9475,-1.019,-1.0642,-1.0754,-1.0709,-1.1201,-1.528,-2.0654,0.0,0.0,0.0,0.0,0.0,0.0,0.0,0.0,0.0,0.0,0.0,0.0,0.0,0.0,0.0,-0.4666,-0.4884,-0.8107,-1.5681,-2.0254,-2.272,-2.2793,-2.3638,-2.419,-2.439,-2.5592,-2.6636,-2.7472,-2.758,-2.7856,0.0,-2.3879,-2.1633,-2.0942,-1.3427,-0.5739,0.2121,0.9642,1.5447,1.967,1.9488,2.0346,2.1589,2.1286,2.1718,2.2434,2.2709,2.274,2.2725,2.326,2.3113,2.2595,2.2206,0.0,0.0,0.0,1.693,1.2743,0.7544,0.1355,-0.3774,0.0,-0.4487,-0.4487,-0.4487,-0.6564,-0.8505,-0.8505,-1.0795,-1.3789,-1.7133,-1.7757,-1.6613,-1.3168,-1.2584,-1.2638,-1.2757,-1.5777,-1.8033,-1.817,-2.1267,-2.3307,-2.3217,-2.3193,-2.3144,-2.2995,-1.969,-1.7716,-1.7729,-1.4437,-1.2594,-1.2694,-1.2594,-1.1286,-0.8691,-0.8517,-0.6963,-0.4024,-0.4123,-0.2083,0.1721,0.1433,-0.0905,-0.4808,-0.4945,-0.5355,-0.5992,-0.6357,-0.676,-0.7256,-0.7913,-0.8149,-0.8118,-0.8367,-1.0446,-1.3138,0.0,0.0,0.0,0.0,0.0,0.0,0.0,0.0,0.0,0.0,0.0,0.0,0.0,0.0,0.0,0.0,0.1449,-0.2353,-1.1292,-1.6698,-2.0352,-2.2168,-2.344,-2.4257,-2.4615,-2.6099,-2.719,-2.7867,0.0,0.0,-2.512,-1.9167,-1.44,-1.0527,-0.4679,0.1216,0.7285,1.4742,1.878,2.0093,1.9695,2.0497,2.1841,2.1444,2.1732,2.2402,2.2844,2.2844,2.2754,2.3595,2.3638,2.3259,2.2957,2.239,0.0,0.0,0.0,1.6678,0.0,0.0,0.1658,0.0768,0.0543,0.0467,0.0158,-0.1091,-0.2231,-0.2231,-0.3422,-0.5365,-0.8268,-1.0089,-0.9625,-0.5023,-0.4291,-0.4876,-0.6571,-0.9593,-1.2821,-1.5973,-1.7797,-1.9277,-2.0514,-1.9258,-1.8259,-1.8035,-1.3641,-1.1072,-1.1276,-0.6917,-0.4438,-0.4573,-0.4468,-0.3604,-0.1904,-0.0038,0.1076,0.1353,0.1072,0.3669,0.8716,0.8375,0.5437,0.0571,0.0496,0.0271,-0.004,-0.0487,-0.0757,-0.0962,-0.165,-0.1934,-0.1982,-0.2425,-0.375,-0.5313,0.0,0.0,0.0,0.0,0.0,0.0,0.0,0.0,0.0,0.0,0.0,0.0,1.851,1.8074,1.5223,0.8936,0.8379,0.2795,-1.039,-1.2125,-1.563,-2.2384,-2.3581,0.0,-2.5137,-2.6926,-2.7732,-2.7541,0.0,0.0,-1.7456,-1.6482,-0.8595,0.4763,0.5727,0.6428,0.7328,1.5631,1.9619,2.0421,2.0733,2.1431,2.2184,2.2137,2.2356,2.274,2.3231,2.358,2.3879,2.4369,2.4549,2.4384,2.374,2.2902,2.2034,0.0,0.0,0.0,0.0,1.7127,0.0,1.465,1.4281,1.3994,1.2882,0.8179,0.4051,0.4051,-0.0511,-0.2822,0.2724,-0.1011,-0.4855,-0.4524,-0.4487,-0.6521,-1.2302,-0.8875,-0.9856,-2.0954,-1.2779,-0.8264,-1.3395,-0.8742,-0.5324,-0.5186,-0.4862,-0.4676,-0.4707,-0.451,-0.4364,-0.4226,-0.4323,-0.1284,0.522,1.1476,1.4605,1.4605,1.4505,1.4673,1.5012,1.4844,1.4869,1.5002,1.5002,1.5002,1.5034,1.5803,1.614,1.6093,1.5859,1.5745,1.5581,1.3832,0.9018,0.3088,0.0,0.0,0.0,0.0,0.0,0.0,0.0,0.0,0.0,0.0,0.0,0.0,0.0,1.8821,1.8021,1.5657,1.1409,0.7003,0.2581,-0.6579,-1.084,-0.8557,-1.4351,-1.5665,-1.1442,-1.7712,-1.8561,0.0,0.0,-1.6997,-0.9352,-0.4308,0.1083,0.6466,0.6602,0.9465,1.4427,1.788,1.9876,2.0782,2.0746,2.1251,2.1902,2.1568,2.1602,2.1969,2.2694,2.283,2.283,2.3967,2.412,2.3815,2.3787,2.355,2.3052,2.1894,2.086,0.0,0.0,0.0,0.0,1.6967,1.6173,1.5525,1.5105,1.2944,1.1036,1.1036,0.9398,0.8637,1.0862,0.5851,0.2721,0.6711,0.7398,0.66,0.442,0.2391,-0.0436,-0.4603,-0.4645,-0.5114,-0.7057,-0.501,-0.3558,-0.3514,0.0224,0.2482,0.2482,0.6228,0.8417,0.85,0.8458,0.9621,1.2083,1.4814,1.6323,1.6621,1.7001,1.7316,1.7612,1.7976,1.8189,1.8372,1.8637,1.786,1.6367,1.6673,1.6773,1.66,1.6528,1.6536,1.6423,1.5706,1.383,1.1581,0.0,0.0,0.0,0.0,0.0,0.0,0.0,0.0,0.0,0.0,0.0,0.0,0.0,0.0,1.9955,1.9716,1.5351,1.189,1.0146,0.0921,-0.3351,-0.0697,-0.675,-0.8154,-0.3773,-1.0334,-1.1171,0.0,0.0,0.0,0.0,0.3685,0.7647,1.0391,1.0814,1.3848,1.8762,1.9384,2.0194,2.0957,2.0822,2.1118,2.1664,2.1471,2.152,2.1793,2.2649,2.274,2.2663,2.3754,2.3882,2.3649,2.4013,2.3907,2.3401,2.2245,2.1386,2.0635,1.9859,0.0,0.0,1.8366,1.7581,1.6885,1.6228,1.5763,1.5372,1.5084,1.5107,1.5164,1.5164,1.1475,0.9691,1.3722,1.4384,1.3655,1.1583,0.9349,0.6477,0.2532,0.2179,0.1552,-0.0261,0.1805,0.3279,0.335,0.7302,0.9717,0.9717,1.3699,1.6089,1.6182,1.6409,1.6506,1.6506,1.7014,1.7451,1.7746,1.8113,1.8588,1.9128,1.9466,1.991,2.0271,2.0529,1.9521,1.7706,1.7974,1.7973,1.7824,1.7801,1.7759,1.7673,1.6826,1.6557,1.6455,0.0,0.0,0.0,0.0,0.0,0.0,0.0,0.0,0.0,2.2634,0.0,0.0,0.0,0.0,0.0,2.095,2.0361,1.7381,1.1246,1.0082,0.6737,0.0133,-0.158,-0.2594,-0.311,-0.5538,-0.6206,-0.5085,-0.6156,-0.236,0.5914,0.6634,1.074,1.7634,1.8975,1.9617,1.9668,2.008,2.0536,2.0997,2.0997,2.118,2.1471,2.1996,2.2184,2.231,2.3098,2.3406,2.345,2.3839,2.3982,2.4067,2.4508,2.3986,2.3077,2.2371,2.1648,2.1087,0.0,0.0,0.0,1.9741,1.9521,1.9036,1.721,1.6913,1.6734,1.5922,1.5752,1.574,1.5752,1.5752,1.5632,1.5232,1.5142,1.3061,0.7125,1.0954,1.0178,-0.1184,0.7495,1.2307,0.7022,1.2226,1.6003,1.6188,1.6549,1.6777,1.6777,1.6974,1.7209,1.7463,1.8057,1.8345,1.8345,1.8693,1.8873,1.891,1.8887,1.9205,1.9864,1.9789,2.0505,2.1729,2.1512,2.098,2.0268,2.0893,2.1099,2.1028,2.0962,2.089,2.0584,1.8496,1.7741,1.7566,0.0,0.0,0.0,0.0,0.0,0.0,2.359,2.3567,2.3354,0.0,0.0,0.0,2.1625,2.1337,2.1167,2.1,2.0324,1.9569,1.8733,1.2517,1.0622,1.4664,0.8707,0.7582,1.2425,0.6316,0.5972,1.1837,0.5976,0.7155,1.4987,1.5038,1.6477,1.9016,1.9331,1.9901,2.0636,2.0736,2.0835,2.1033,2.1229,2.152,2.1841,2.1996,2.2217,2.2466,2.2979,2.3157,2.3246,2.3696,2.3839,2.4036,2.4989,2.532,2.5147,2.4404,2.3689,2.2977,2.2406,0.0,0.0,0.0,0.0,0.0,1.9451,1.8921,1.8304,1.7411,1.7288,1.722,1.6744,1.6954,1.719,1.7079,1.6336,1.5211,1.3546,1.4779,1.4631,1.1409,1.4173,1.5763,1.424,1.603,1.7464,1.7942,1.8071,1.8351,1.8753,1.8936,1.9081,1.9138,1.9289,1.9486,1.9687,2.0186,2.0847,2.1552,2.2012,2.2642,2.3386,2.3869,2.4214,2.4488,2.4377,2.4053,2.3493,2.2329,2.1805,2.1805,2.1791,2.1744,2.1663,2.097,2.0713,2.0686,0.0,0.0,0.0,0.0,0.0,0.0,2.3828,2.381,2.3624,0.0,0.0,0.0,2.1953,2.1629,2.1471,2.152,2.0996,2.0903,2.153,1.6741,1.5909,2.0616,1.6022,1.5239,1.927,1.4042,1.3629,1.8614,1.358,1.363,1.8387,1.8643,1.9016,1.9448,0.0,0.0,2.0997,2.1033,2.1131,2.118,2.152,2.1793,2.2044,2.2402,2.2663,2.2889,2.326,2.3392,2.3436,2.3653,2.3937,2.442,2.5433,2.5781,2.5791,2.5472,2.4608,2.3646,2.3199,2.2675,2.2298,2.2298,0.0,0.0,2.0605,2.0177,1.9617,1.8579,1.8416,1.8352,1.7961,1.812,1.8355,1.8355,1.7866,1.7383,1.7124,1.7055,1.7109,1.7316,1.7599,1.7799,1.7917,1.8373,1.8829,1.9343,1.9521,1.9821,2.0264,2.0461,2.0607,2.0782,2.0845,2.0967,2.116,2.179,2.2437,2.3039,2.3744,2.4477,2.5222,2.5579,2.5846,2.609,2.5967,2.5808,2.552,2.4406,2.361,2.304,2.2878,2.2803,2.2655,2.2246,2.2144,2.2224,0.0,0.0,0.0,2.3544,2.3589,2.3567,2.3458,2.3412,2.3342,0.0,2.3102,2.2919,2.2569,2.2297,2.2167,2.2248,2.1864,2.156,2.1376,2.1239,2.1091,2.0834,2.0457,2.023,2.023,1.8487,1.8025,1.891,1.7862,1.771,1.8459,1.9202,1.9488,1.9436,0.0,0.0,2.1033,2.1229,2.1375,2.1471,2.1841,2.1996,2.2123,2.2949,2.3319,2.3451,2.3754,2.3867,2.3909,2.3767,2.4256,2.5044,2.5713,2.5779,2.5678,2.5897,2.4898,2.3676,2.3704,2.31,2.2515,2.2525,2.2615,0.0,2.1241,2.1068,2.0831,1.9615,1.9376,1.9376,1.9281,1.9281,1.9317,1.9339,1.9485,1.9325,1.8684,1.8352,1.8352,1.8835,1.8956,1.906,1.9313,1.9717,2.0144,2.0509,2.0972,2.1297,2.154,2.1752,2.2017,2.2312,2.2496,2.2693,2.2853,2.3535,2.3955,2.4164,2.4812,2.5527,2.6243,2.6103,2.6394,2.7072,2.6862,2.6798,2.6751,2.6686,2.5889,2.4595,2.4234,2.4015,2.3834,2.3052,2.2906,2.3086,0.0,0.0,2.3941,2.3979,2.4154,2.4303,2.4266,2.4078,2.3878,2.3689,2.3157,2.2738,2.2579,2.2395,2.2161,2.1906,2.1584,2.148,2.1682,2.0831,2.0558,2.1023,2.0702,2.0509,2.0509,2.0548,2.0642,2.0868,2.0398,2.0299,2.0421,2.0396,2.0459,2.0686,2.1361,2.1471,2.118,2.1664,2.1793,2.1746,2.1793,2.2016,2.2328,2.2889,2.3523,2.4135,2.4177,2.4395,2.4664,2.4461,2.4752,2.5319,2.5806,2.6268,2.658,2.6432,2.5657,2.4788,2.4349,2.3681,2.3175,2.3335,2.3387,0.0,2.2669,2.2686,2.2461,2.1207,2.1066,2.0986,2.0344,2.0492,2.0751,2.0938,2.0751,2.027,1.9361,1.9507,1.9814,1.9989,2.0424,2.0751,2.0861,2.1089,2.1491,2.2044,2.2744,2.3178,2.324,2.3458,2.3638,2.3712,2.375,2.4226,2.5152,2.5308,2.6164,2.7705,2.7808,2.8218,2.893,2.8854,2.8762,2.8649,2.8607,2.8283,2.7798,2.7798,2.7116,2.608,2.6011,2.5959,2.5907,2.5733,2.57,2.5806,0.0,2.3816,2.3959,2.3959,2.4058,2.4115,2.4018,2.3896,2.371,2.3445,2.3385,2.349,2.3704,2.3671,2.341,2.2953,2.2637,2.2408,2.2276,2.2279,2.2103,2.1608,2.2117,2.2098,2.1356,2.1383,2.1534,2.1771,2.1355,2.1272,2.1438,2.1465,2.1465,2.1561,2.1955,2.2063,2.1874,2.2063,2.2278,2.2544,2.2189,2.2282,2.2785,2.3421,2.3952,2.4302,2.441,2.4517,2.4599,2.4719,2.5028,2.5508,2.609,2.659,2.7014,2.7169,2.6606,2.5833,2.5326,2.4635,2.3981,2.3629,2.3566,0.0,0.0,2.2986,2.2853,2.1967,2.1877,2.1844,2.1407,2.1499,2.1673,2.1838,2.1645,2.1381,2.104,2.0719,2.0651,2.1054,2.1362,2.1687,2.2012,2.219,2.2546,2.3155,2.356,2.3839,2.3897,2.412,2.4475,2.4934,2.5083,2.5622,2.663,2.7017,2.7687,2.8656,2.8989,2.9344,2.9684,2.9669,2.9564,2.94,2.94,2.9193,2.885,2.885,2.8534,2.7965,2.7315,2.7052,2.7065,2.721,2.7356,2.7475,2.3642,0.0,2.3899,2.3899,2.3858,2.3828,2.3795,2.3741,2.3608,2.344,2.3928,2.4417,2.4744,2.4735,2.4492,2.3869,2.3669,2.3377,2.2907,2.3756,2.3727,2.2551,2.3659,2.3787,2.2651,2.2395,2.2381,2.2594,2.2141,2.2038,2.2146,2.2427,2.2484,2.2362,2.289,2.3008,2.2822,2.2869,2.3202,2.3631,2.3116,2.3115,2.3539,2.4346,2.4687,2.4755,2.5086,2.5086,2.4937,2.5338,2.5692,2.6059,2.6786,2.7097,2.739,2.8129,2.7558,2.6613,2.6375,2.5595,2.4649,2.3873,2.3696,2.361,0.0,0.0,0.0,2.2598,2.2581,2.2613,2.2547,2.2555,2.2648,2.2895,2.2658,2.2638,2.311,2.2141,2.1582,2.2143,2.2238,2.2487,2.3041,2.3226,2.3518,2.4008,2.4097,2.4176,2.4294,2.4651,2.5222,2.5979,2.6381,2.6981,2.7884,2.8481,2.8849,2.9003,2.9603,2.9892,2.9872,2.9872,2.9852,2.9784,2.9792,2.9722,2.9599,2.9614,2.9616,2.9492,2.8406,2.7998,2.8005,2.8223,2.8492,2.8632,2.4172,2.4229,0.0,2.4247,2.4095,2.4174,2.4823,2.4574,2.4433,2.4813,2.4873,2.4722,2.4298,2.4221,2.3901,2.3173,2.3087,2.3211,2.3491,2.3403,2.3509,2.3945,2.4415,2.4582,2.4417,2.4938,2.4938,2.4313,2.4055,2.3639,2.2994,2.3363,2.3482,2.3402,2.469,2.4813,2.4148,2.4765,2.5047,2.5088,2.5014,2.4842,2.4761,2.5514,2.6043,2.6451,2.7109,2.7208,2.7109,2.7494,2.7557,2.7613,2.8508,2.8302,2.8015,2.9513,2.8364,2.6719,2.7276,2.6209,2.4856,2.4395,2.421,2.4113,2.3981,0.0,2.4118,2.3707,0.0,2.4045,2.3769,0.0,0.0,2.517,2.4412,2.406,2.5112,2.4266,2.3468,2.3252,2.3455,2.3723,2.41,2.4302,2.4448,2.4522,2.4797,2.4976,2.4999,2.5962,2.6584,2.6685,2.7479,2.8323,2.9255,2.9366,2.9765,3.0463,3.054,3.0559,3.05,3.05,3.0345,3.0066,3.0114,2.9943,2.9599,2.9652,2.9639,2.9581,2.9438,2.9382,2.9382,2.94,2.9436,2.9455,2.4298,2.4615,0.0,2.5004,2.5315,2.5638,2.5819,2.5559,2.5536,2.618,2.5995,2.6068,2.675,2.6336,2.6077,2.6221,2.5994,2.5818,2.579,2.6062,2.5897,2.5136,2.5925,2.594,2.512,2.5357,2.5465,2.5425,2.5042,2.4815,2.4792,2.5153,2.5136,2.4902,2.5849,2.5879,2.5287,2.5616,2.595,2.6311,2.6311,2.6441,2.6677,2.6611,2.6788,2.7148,2.7688,2.7729,2.7648,2.8096,2.8448,2.8766,2.8979,2.9179,2.9509,3.0194,2.9886,2.9323,2.9333,2.864,2.771,2.6916,2.6431,2.6103,2.5949,2.5943,2.583,2.5169,0.0,0.0,0.0,0.0,0.0,0.0,2.4714,2.4595,2.526,2.479,2.4251,2.3962,2.4052,2.4489,2.538,2.5987,2.6403,2.6563,2.714,2.7503,2.7585,2.8494,2.9235,2.9739,3.0157,3.0796,3.1697,3.1699,3.1873,3.2212,3.2212,3.1923,3.1418,3.1418,3.1053,3.0456,3.0439,3.0341,3.0188,3.021,3.022,3.019,3.019,3.006,2.9908,3.0119,3.019,3.0145,2.491,0.0,0.0,2.5795,2.6234,2.6567,2.654,2.6525,2.678,2.7415,2.7197,2.7378,2.8522,2.8026,2.7823,2.8279,2.8001,2.7721,2.7656,2.8024,2.7816,2.6872,2.7365,2.724,2.6316,2.6283,2.6379,2.6474,2.6213,2.6168,2.6364,2.6772,2.6715,2.6352,2.7052,2.7084,2.6672,2.6703,2.7025,2.7485,2.7485,2.7791,2.8225,2.7654,2.7632,2.7924,2.8322,2.8404,2.8363,2.8965,2.9482,2.9917,2.979,3.0193,3.0772,3.1034,3.1165,3.117,3.1043,3.0565,2.9943,2.9026,2.8296,2.7744,2.7564,2.7351,2.7013,2.6392,2.6293,0.0,0.0,0.0,2.5187,2.5221,0.0,2.5049,2.5534,2.5425,2.5099,2.467,2.4874,2.5475,2.6599,2.7326,2.7893,2.8324,2.8915,2.9391,2.9746,3.0504,3.1203,3.1826,3.2123,3.2571,3.318,3.3239,3.3213,3.316,3.2999,3.2571,3.191,3.1715,3.1285,3.0697,3.0664,3.064,3.0637,3.0644,3.0637,3.064,3.064,3.0472,3.0293,3.0511,3.0598,3.0559,2.6326,2.6454,0.0,2.6557,2.6366,2.6369,2.6835,2.7486,2.8081,2.8499,2.8427,2.8373,2.8494,2.8329,2.8017,2.7672,2.7492,2.7682,2.8329,2.806,2.8347,2.9329,2.8606,2.8304,2.8576,2.8576,2.8264,2.7641,2.8072,2.7955,2.728,2.7858,2.7984,2.7656,2.8619,2.8764,2.8334,2.8543,2.8638,2.8654,2.8654,2.8811,2.9029,2.8732,2.881,2.9104,2.9553,2.9729,2.9859,3.0721,3.1055,3.1133,3.1565,3.1463,3.1381,3.2414,3.1894,3.1144,3.1781,3.1283,3.0458,2.9887,2.9005,2.8296,2.835,2.7749,2.7186,2.7167,2.7261,2.7059,2.6054,2.6124,2.6338,0.0,2.5793,0.0,0.0,2.6706,2.6411,2.5562,2.615,2.6924,2.7676,2.7884,2.8348,2.9186,2.9336,2.9757,3.0618,3.1354,3.1741,3.1718,3.2522,3.2948,3.2919,3.3037,3.3014,3.2821,3.2219,3.1851,3.1688,3.0963,3.0678,3.0704,3.0777,3.0762,3.07,3.0771,3.0769,3.0697,3.0697,3.0684,3.0664,3.0621,3.0598,3.0598,2.7984,0.0,2.789,2.7342,2.7643,2.7967,2.8117,2.8822,2.9242,2.91,2.8789,2.8864,2.9612,2.9104,2.9017,2.9731,2.9435,2.9365,2.9567,2.9159,2.9048,2.9454,2.8494,2.8107,2.8559,2.8496,2.8259,2.7898,2.8665,2.869,0.0,0.0,0.0,2.8185,2.8995,2.9059,2.8605,2.87,2.8685,2.8685,2.8685,2.873,2.883,2.8948,2.8745,2.8516,2.9235,2.919,2.8916,2.9763,3.0195,3.0387,3.0575,3.0822,3.1236,3.2067,3.232,3.2532,3.3425,3.3246,3.2814,3.2612,3.1996,3.1368,3.12,3.048,2.9706,2.9169,2.8707,2.8145,2.7313,2.7297,2.7409,0.0,2.7275,2.7241,0.0,2.7678,2.7836,2.8117,2.839,2.8665,2.8961,3.0039,3.082,3.1071,3.2134,3.2903,3.3193,3.3949,3.4323,3.4214,3.4504,3.4603,3.4487,3.4526,3.4514,3.4452,3.3747,3.3128,3.2538,3.1796,3.1183,3.0711,3.0723,3.0723,3.0708,3.072,3.072,3.0703,3.0703,3.0703,3.0709,3.0665,3.0678,3.0665,2.8737,2.8737,2.8573,2.8111,2.8463,2.8785,2.8761,2.9428,2.9827,2.9654,2.9563,2.9878,3.0743,3.0302,3.0246,3.1083,3.0716,3.0485,3.0485,3.0054,2.9865,3.0027,2.9042,2.867,2.9134,2.895,2.8779,2.8764,2.9393,2.9572,0.0,0.0,0.0,0.0,2.975,2.975,2.9348,2.9348,2.9348,2.9316,2.9016,2.8842,2.8705,2.8769,2.8517,2.8201,2.8746,2.8766,2.8611,2.9281,2.9658,2.9839,2.9954,3.0373,3.0928,3.1518,3.2015,3.2609,3.3428,3.3481,3.3353,3.3406,3.2882,3.2315,3.2086,3.1343,3.0585,3.0035,2.9637,2.9098,2.8268,2.8253,2.828,0.0,0.0,2.8182,0.0,2.8636,2.8982,2.9863,2.9685,2.976,3.0421,3.1448,3.2296,3.2888,3.3896,3.4613,3.4883,3.5368,3.5546,3.5355,3.5388,3.533,3.5155,3.5254,3.512,3.4767,3.4068,3.3318,3.2519,3.1777,3.1188,3.0745,3.0745,3.0741,3.0742,3.0742,3.0745,3.0745,3.0745,3.075,3.0769,3.0714,3.0703,3.0709,2.8587,2.8587,2.8637,2.8761,2.8822,2.8798,2.8712,2.9248,2.9807,3.0092,3.0612,3.115,3.1681,3.1603,3.1545,3.1579,3.1252,3.1015,3.1015,3.0699,3.0658,3.0975,3.0159,2.9886,3.0293,2.9968,2.9924,3.0081,3.0172,3.0568,0.0,0.0,0.0,0.0,3.0804,3.0683,3.0518,3.0518,3.0502,3.0361,2.9591,2.905,2.8621,2.827,2.813,2.8136,2.8241,2.8507,2.8839,2.9265,2.9403,2.9453,2.9817,3.0145,3.0463,3.0794,3.1107,3.1452,3.1944,3.2105,3.2164,3.2353,3.1819,3.1214,3.109,3.048,2.994,2.988,3.0045,2.9914,2.8974,2.9056,2.9021,0.0,0.0,2.8546,2.9429,2.9562,2.9863,3.0683,3.006,3.0235,3.1936,3.2084,3.2761,3.4472,3.4574,3.4861,3.5553,3.5538,3.538,3.5122,3.5157,3.5107,3.4908,3.5122,3.4737,3.3804,3.314,3.2428,3.1678,3.0935,3.0671,3.0804,3.0804,3.0797,3.0798,3.0793,3.0801,3.0801,3.0801,3.0843,3.0884,3.0765,3.0716,3.0704,2.8587,2.8587,2.8587,2.851,2.9075,2.9308,2.8575,2.9125,2.9508,2.9123,2.9222,2.9673,3.0602,3.0629,3.0851,3.1452,3.1428,3.1312,3.1218,3.0828,3.0747,3.1151,3.0201,2.9913,3.0369,2.9995,2.9908,3.0091,3.046,3.0658,3.0699,0.0,0.0,0.0,3.0601,3.0559,3.0518,3.0518,3.0145,2.9575,2.9376,2.8743,2.7931,2.7578,2.742,2.742,2.7734,2.7582,2.7317,2.772,2.7993,2.8189,2.8499,2.881,2.9248,3.0122,3.0503,3.0886,3.1834,3.2105,3.2184,3.246,3.2274,3.1996,3.1977,3.128,3.0676,3.0869,3.0494,3.0113,3.0059,3.0143,3.0198,3.0033,3.0053,3.0174,3.0371,3.0385,3.0465,3.0638,3.0492,3.0843,3.1991,3.2677,3.3462,3.4514,3.519,3.5558,3.5609,3.5588,3.5457,3.5174,3.5174,3.5143,3.4983,3.4448,3.4065,3.3781,3.2473,3.1796,3.1678,3.0935,3.0671,3.0804,3.0804,3.0797,3.0798,3.0793,3.0801,3.0801,3.0801,3.0801,3.0821,3.0836,3.0827,3.0778,2.8637,2.8536,2.8458,2.8484,2.8845,2.8936,2.8398,2.8935,2.9247,2.8921,2.9096,2.9445,3.0076,3.0092,3.0402,3.116,3.1136,3.1162,3.1393,3.1184,3.1162,3.1368,3.0834,3.0657,3.0931,3.0601,3.0518,3.0707,3.0747,3.0885,3.1061,0.0,0.0,0.0,3.1061,3.1061,3.1027,3.0707,3.0017,2.9104,2.8975,2.841,0.0,2.7348,2.7299,2.739,2.7599,2.7315,2.6891,2.712,2.7417,2.7742,2.802,2.8308,2.8735,2.9531,2.9812,2.9998,3.0786,3.1016,3.1073,3.1328,3.1293,3.1221,3.1273,3.093,3.0655,3.0825,3.0606,3.0381,3.0434,3.0556,3.067,3.072,3.0756,3.0739,3.0706,3.068,3.0633,3.0607,3.0633,3.1002,3.1927,3.2517,3.3444,3.4921,3.5069,3.5214,3.5457,3.5386,3.5288,3.516,3.5196,3.4954,3.4486,3.4084,3.3492,3.2746,3.187,3.1367,3.1158,3.0752,3.0656,3.0804,3.0804,3.0797,3.0798,3.0793,3.0801,3.0801,3.0801,3.0806,3.0792,3.0847,3.0823,3.0801,2.8718,2.8492,2.8362,2.8576,2.8422,2.8255,2.8228,2.8632,2.893,2.89,2.9299,2.9645,2.975,2.9685,2.9948,3.0697,3.0646,3.0812,3.1465,3.1603,3.1654,3.1617,3.1617,3.1617,3.1617,3.1389,3.1329,3.1555,3.1162,3.1278,0.0,0.0,0.0,0.0,3.1873,3.1804,3.1666,3.0991,3.002,2.8846,2.8544,2.8133,2.7692,2.7474,2.7526,2.7701,2.7659,2.7448,2.7213,2.7213,2.7474,2.7829,2.8065,2.8352,2.8644,2.9067,2.9156,2.9203,2.9513,2.9608,2.9645,2.9754,2.9808,2.9841,2.9965,3.0099,3.0209,3.0304,3.0501,3.0629,3.0481,3.0587,3.0743,3.0799,3.0754,3.0708,3.0696,3.0658,3.06,3.0579,3.0586,0.0,3.1781,3.2085,3.3103,3.5224,3.4679,3.4494,3.5063,3.4945,3.4821,3.4769,3.484,3.4516,3.3834,3.3723,3.2955,3.1588,3.1369,3.1008,3.0519,3.0501,3.0614,3.0804,3.0801,3.0795,3.0796,3.0797,3.0806,3.0804,3.0804,3.0792,3.0797,3.0806,3.0801,3.0801,2.8905,2.8905,2.8834,2.8791,2.8725,2.8626,2.8466,2.8225,2.8,2.787,2.7901,2.8171,2.885,2.8903,2.9199,2.9931,3.0507,3.0855,3.0941,3.1529,3.1839,3.1763,3.1746,3.1746,3.1746,3.1605,3.1605,3.1763,3.1897,3.2022,0.0,3.2127,3.2127,3.2214,3.2214,3.1812,3.1115,3.0942,3.0022,2.8639,2.8583,2.8272,2.7871,2.7806,2.78,2.7789,2.776,2.78,2.784,2.7783,2.8,2.8291,2.8344,2.8669,2.9021,2.9089,2.9265,2.9453,2.957,2.9645,2.9701,2.979,2.9841,2.9888,2.9905,3.0056,3.0222,3.0364,3.0411,3.0491,3.0614,3.0726,3.08,3.0879,3.0829,3.0768,3.0704,3.0687,3.0639,3.0527,3.0579,3.0903,3.1653,3.2464,3.3306,3.4202,3.4732,3.4716,3.4098,3.4044,3.3707,3.3067,3.3048,3.3315,3.3868,3.2594,3.2179,3.2615,3.1188,3.0518,3.0571,3.0537,3.0614,3.0804,3.0804,3.0799,3.0799,3.0797,3.0801,3.0797,3.0797,3.0793,3.0806,3.0801,3.0801,3.0801,2.9911,2.9963,3.0038,3.0088,2.9988,2.9886,2.9904,2.9565,2.8941,2.7895,2.7864,2.7936,2.8021,2.822,2.8622,2.9239,3.0138,3.085,3.119,3.1929,3.2351,3.2335,3.2335,3.2335,3.2335,3.2264,3.2179,3.2055,3.2368,3.2435,3.2232,3.242,3.2488,3.2437,3.2031,3.1381,3.0624,3.0173,2.9299,2.8245,2.8245,2.8088,2.7897,2.7897,2.8,2.8101,2.8073,2.8183,2.8299,2.7971,2.8083,2.8414,2.8414,2.8694,2.9067,2.9138,2.9291,2.9472,2.9608,2.9737,2.9825,2.9841,2.9937,3.0007,3.0095,3.019,3.029,3.0462,3.0539,3.0591,3.0724,3.0771,3.082,3.0896,3.0819,3.0724,3.0656,3.0614,3.0568,3.0451,3.0491,3.0644,3.0987,3.173,3.2499,3.3327,3.367,3.3676,3.3261,3.3527,3.3377,3.2661,3.2641,3.2657,3.2657,3.1891,3.1533,3.1532,3.0706,3.0414,3.0593,3.0576,3.0639,3.0804,3.0801,3.0794,3.0796,3.0798,3.0801,3.0799,3.0795,3.0793,3.0792,3.0804,3.0801,3.0801,3.0993,3.102,3.1195,3.1341,3.1188,3.1109,3.1334,3.1109,3.0359,2.8713,2.8655,2.8589,2.8106,2.8393,2.8767,2.9122,3.013,3.1011,3.1586,3.2367,3.2795,3.2795,3.2795,3.2795,3.2795,3.2858,3.2749,3.2403,3.2795,3.2813,3.2404,3.2669,3.2766,3.2669,3.1838,3.1058,3.0308,2.9497,2.8699,2.7936,2.7936,2.7982,2.8055,2.8055,2.8219,2.844,2.8362,2.8536,2.8669,2.8192,2.821,2.844,2.8474,2.8749,2.9052,2.9188,2.9353,2.9492,2.9682,2.9806,2.9905,2.9937,3.0037,3.0171,3.0283,3.034,3.0433,3.0585,3.0665,3.073,3.0772,3.0781,3.0818,3.0825,3.0751,3.0681,3.0607,3.056,3.0492,3.0436,3.0425,3.0414,3.041,3.0822,3.1417,3.2168,3.2405,3.2473,3.2393,3.2988,3.3047,3.2381,3.2409,3.2199,3.1691,3.1412,3.1047,3.0587,3.0447,3.0462,3.0633,3.06,3.0671,3.0804,3.0794,3.0807,3.0796,3.08,3.08,3.0799,3.0792,3.0792,3.0796,3.0806,3.0801,3.0804,3.1579,3.1621,3.1621,3.1573,3.1549,3.1597,3.1805,3.1805,3.1457,3.0574,3.0349,3.0284,3.0225,3.0255,3.0302,3.0344,3.1112,3.1612,3.1684,3.2367,3.2795,3.2795,3.2795,3.2795,3.2795,3.3093,3.3093,3.2731,3.339,3.3494,3.3129,3.3129,3.3129,3.3019,3.2138,3.1333,3.0521,2.9647,2.8834,2.8075,2.8075,2.8255,2.8518,2.8518,2.8562,2.8587,2.8562,2.8712,2.8863,2.8815,2.8694,2.8612,2.881,2.8943,2.9126,2.9332,2.9531,2.9701,2.9841,2.9888,2.9937,3.0052,3.0184,3.0283,3.0294,3.0491,3.0671,3.0685,3.0747,3.0776,3.0721,3.0767,3.0755,3.0656,3.0671,3.0678,3.062,3.0586,3.0576,3.0501,3.0482,3.0462,3.041,3.0444,3.0459,3.0367,3.1517,3.1976,3.1358,3.2084,3.2123,3.1288,3.1489,3.1848,3.2312,3.1162,3.0917,3.1554,3.0901,3.0652,3.0774,3.0659,3.0671,3.0799,3.0804,3.0806,3.0794,3.0793,3.08,3.0799,3.0799,3.0793,3.0804,3.0801,3.0801,3.0806,3.2852,3.2963,3.3111,3.3208,3.3087,3.3093,3.3399,3.3351,3.3213,3.2995,3.2083,3.1287,3.0794,3.1071,3.1159,3.0848,3.1673,3.2256,3.2256,3.3104,3.357,3.3419,3.3542,3.3634,3.3634,3.3778,3.3742,3.3524,3.3821,3.385,3.357,3.3455,3.3415,3.3437,3.2466,3.1924,3.171,3.0839,3.0041,2.9308,2.9441,2.9247,2.8897,2.8897,2.8897,2.8897,2.8897,2.8966,2.9012,2.9012,2.8966,2.892,2.8989,2.9144,2.9314,2.9476,2.9662,2.9857,2.9981,3.008,3.0144,3.0209,3.0356,3.0482,3.0481,3.0556,3.0652,3.0695,3.0716,3.0742,3.0753,3.0742,3.0721,3.0664,3.0685,3.0651,3.0571,3.0535,3.0519,3.0449,3.0439,3.0436,3.041,3.0299,3.0182,3.0114,3.108,3.132,3.0522,3.1227,3.1336,3.0579,3.0672,3.0844,3.1074,3.0573,3.0506,3.0852,3.0558,3.0507,3.0671,3.0626,3.067,3.0794,3.0794,3.0799,3.0799,3.08,3.08,3.079,3.079,3.0806,3.0801,3.0801,3.0801,3.0862,3.3726,3.3842,3.4023,3.4245,3.4124,3.413,3.4551,3.4502,3.448,3.4653,3.3675,3.2722,3.2017,3.2349,3.2428,3.2038,3.2672,3.3098,3.3073,3.3809,3.4173,3.3972,3.4148,3.4269,3.4269,3.4221,3.4141,3.4048,3.4093,3.4055,3.3891,3.3734,3.3698,3.3743,3.2803,3.2464,3.2522,3.174,3.106,3.054,3.0706,3.0383,2.9847,2.9847,2.9847,2.9847,2.9847,2.9702,2.9542,2.9542,2.9416,2.9272,2.9209,2.9291,2.9434,2.9643,2.9784,2.9937,3.0103,3.0234,3.0306,3.0359,3.0492,3.0602,3.0598,3.0626,3.0677,3.0713,3.0721,3.0736,3.0739,3.0697,3.0652,3.0651,3.063,3.0599,3.0501,3.0462,3.0548,3.0768,3.0794,3.0794,3.0794,3.065,3.0437,3.0109,3.0615,3.0666,3.0072,3.0849,3.1051,3.0509,3.0548,3.0534,3.0475,3.0576,3.0637,3.0686,3.0953,3.1197,3.137,3.1145,3.0939,3.0801,3.081,3.0808,3.08,3.0801,3.08,3.0795,3.0795,3.0792,3.0808,3.0808,3.096,3.1265,3.3895,3.3895,3.3972,3.4173,3.4197,3.4344,3.4831,3.4889,3.4945,3.5075,3.5092,3.4926,3.4492,3.447,3.4445,3.4367,3.4367,3.4321,3.4179,3.4316,3.4404,3.4386,3.4404,3.4404,3.4404,3.4269,3.4197,3.4197,3.4197,3.4173,3.4099,3.4023,3.3998,3.3961,3.3155,3.2785,3.273,3.194,3.1589,3.157,3.157,3.157,3.157,3.157,3.157,3.157,3.157,3.1147,3.0588,3.0588,3.0205,2.9645,2.9453,2.9412,2.9472,2.9805,2.9888,2.995,3.0222,3.0306,3.0348,3.055,3.0591,3.0593,3.0593,3.0706,3.0792,3.0792,3.0801,3.0762,3.0639,3.0605,3.0576,3.051,3.05,3.0481,3.0409,3.0398,3.0714,3.1583,3.1679,3.1679,3.1679,3.1679,3.1232,3.018,3.0109,3.0114,3.0109,3.1049,3.1479,3.1206,3.1378,3.1363,3.1083,3.1407,3.1571,3.1602,3.2516,3.3035,3.3149,3.2414,3.1602,3.0804,3.0801,3.0794,3.0796,3.0792,3.0797,3.0797,3.0797,3.08,3.0799,3.0799,3.1335,3.2088,3.386,3.3972,3.4154,3.4371,3.4398,3.4548,3.4983,3.487,3.4793,3.4945,3.4964,3.4927,3.4773,3.4649,3.4498,3.4269,3.4269,3.4245,3.4197,3.4427,3.445,3.4269,3.445,3.4539,3.4539,3.4495,3.4542,3.4691,3.4498,3.4269,3.4023,3.4148,3.4197,3.4179,3.3796,3.371,3.3812,3.3552,3.3125,3.2623,3.2776,3.2465,3.1942,3.1942,3.1942,3.1942,3.1942,3.1815,3.1631,3.1631,3.1483,3.1354,3.1412,3.0658,2.9769,2.9977,3.0109,3.0209,3.043,3.0491,3.0521,3.0571,3.0598,3.062,3.0715,3.0774,3.0793,3.0739,3.0701,3.0645,3.0613,3.0607,3.0742,3.1176,3.1174,3.1283,3.1766,3.1749,3.1797,3.2083,3.2599,3.2925,3.2925,3.3039,3.3207,3.3348,3.2526,3.1717,3.102,3.1298,3.1713,3.2271,3.235,3.232,3.2194,3.2301,3.2415,3.2499,3.2786,3.3035,3.3199,3.3042,3.2829,3.2563,3.2563,3.2575,3.2567,3.257,3.2573,3.2575,3.2573,3.2576,3.2578,3.2578,3.2754,3.3062,3.4062,3.4184,3.4371,3.4612,3.4612,3.4694,3.5057,3.4927,3.4812,3.485,3.485,3.4831,3.4791,3.4668,3.4539,3.445,3.4427,3.4386,3.434,3.4539,3.4602,3.4431,3.4628,3.473,3.4666,3.4689,3.4771,3.4908,3.4732,3.4524,3.4344,3.4386,3.4409,3.4404,3.4269,3.4293,3.4409,3.4409,3.4128,3.368,3.3808,3.3513,3.3043,3.3043,3.3043,3.3043,3.3043,3.2837,3.2593,3.2593,3.2367,3.2144,3.2334,3.1718,3.0944,3.1101,3.1207,3.1311,3.1496,3.1554,3.1579,3.1576,3.1611,3.1675,3.1753,3.1774,3.1841,3.2088,3.2057,3.2092,3.2377,3.2394,3.2473,3.2842,3.2843,3.2924,3.331,3.3278,3.3355,3.3639,3.4131,3.4453,3.4453,3.4565,3.4679,3.4851,3.3895,3.314,3.281,3.2259,3.2225,3.2776,3.2795,3.2766,3.2691,3.3032,3.323,3.3325,3.3718,3.3819,3.3699,3.3832,3.3715,3.3409,3.3389,3.3392,3.3398,3.3404,3.3404,3.34,3.34,3.3406,3.3394,3.3393,3.3612,3.3964,3.4508,3.4508,3.4593,3.4851,3.4812,3.4812,3.5038,3.4983,3.487,3.4809,3.4788,3.4728,3.4626,3.4604,3.4668,3.4809,3.4809,3.4747,3.4645,3.4747,3.4809,3.4829,3.4945,3.4963,3.481,3.4889,3.4908,3.4908,3.4908,3.4908,3.4908,3.471,3.4604,3.4602,3.4602,3.4602,3.4602,3.4602,3.4602,3.4602,3.4602,3.4602,3.4602,3.4602,3.4602,3.4602,3.4602,3.4113,3.3494,3.3494,3.2949,3.2314,3.2522,3.2673,3.279,3.2885,3.2916,3.294,3.3072,3.3158,3.3211,3.3218,3.3312,3.3414,3.3461,3.3484,3.3696,3.4428,3.4488,3.4596,3.5368,3.534,3.52,3.5162,3.5164,3.5131,3.4964,3.4945,3.5209,3.5962,3.6094,3.6132,3.6132,3.6153,3.5869,3.517,3.4505,3.4489,3.5234,3.393,3.3115,3.2976,3.2976,3.2953,3.2879,3.3677,3.4114,3.411,3.514,3.5272,3.4613,3.4739,3.4359,3.3571,3.3587,3.3581,3.3574,3.3584,3.3574,3.358,3.3583,3.3578,3.3573,3.3578,3.408,3.4782,3.4508,3.4674,3.4793,3.4753,3.4981,3.5105,3.4907,3.4945,3.4889,3.4687,3.4645,3.4689,3.4831,3.4831,3.4889,3.5015,3.4792,3.4708,3.4831,3.485,3.4926,3.5032,3.5047,3.5064,3.5032,3.503,3.5047,3.5047,3.5047,3.4997,3.4908,3.485,3.4751,3.4602,3.4602,3.4602,3.4602,3.4602,3.4602,3.4602,3.4602,3.4602,3.4602,3.4602,3.4602,3.4602,3.4602,3.447,3.432,3.432,3.417,3.4045,3.4372,3.4489,3.4305,3.3231,3.2964,3.3082,3.3147,3.3188,3.3213,3.3321,3.3376,3.3558,3.4179,3.4288,3.4455,3.5243,3.5311,3.5284,3.5457,3.5379,3.5417,3.5799,3.5913,3.6044,3.6362,3.6391,3.6443,3.6509,3.7063,3.7436,3.7436,3.759,3.7878,3.8352,3.7356,3.6816,3.7007,3.6232,3.5479,3.4822,3.4784,3.4755,3.4691,3.4902,3.5062,3.5234,3.5632,3.5761,3.5651,3.5685,3.5576,3.5373,3.5389,3.5385,3.5377,3.5385,3.5389,3.5385,3.5381,3.5373,3.5386,3.5383,3.5528,3.5693,3.4773,3.4851,3.4908,3.4945,3.5051,3.5119,3.5054,3.5034,3.4978,3.4851,3.4832,3.487,3.4981,3.498,3.5015,3.5098,3.4925,3.487,3.498,3.498,3.5032,3.5098,3.5193,3.5193,3.5114,3.5193,3.5243,3.5243,3.5243,3.5146,3.4999,3.4926,3.4791,3.4602,3.4602,3.4602,3.4602,3.4602,3.4602,3.4602,3.4602,3.4602,3.4602,3.4602,3.4602,3.4602,3.4602,3.4561,3.4539,3.4539,3.4604,3.4693,3.498,3.5117,3.5132,3.4815,3.4527,3.4293,3.4318,3.4372,3.452,3.5016,3.5442,3.5841,3.621,3.627,3.6445,3.7197,3.7242,3.7256,3.7559,3.7483,3.7471,3.7709,3.7721,3.7781,3.7985,3.794,3.7888,3.7801,3.8172,3.8451,3.8451,3.8566,3.8812,3.9287,3.8515,3.8042,3.8042,3.7198,3.6286,3.5432,3.5412,3.5364,3.5315,3.5369,3.5488,3.5696,3.5807,3.5904,3.5994,3.5994,3.5997,3.6004,3.5991,3.6004,3.5994,3.6007,3.6004,3.5994,3.5997,3.6001,3.6007,3.6004,3.6007,3.5991,3.511,3.5038,3.5001,3.5174,3.5155,3.5136,3.5251,3.5197,3.513,3.5114,3.5114,3.5114,3.5146,3.5146,3.5162,3.5178,3.5178,3.5178,3.5146,3.5146,3.5162,3.5178,3.5345,3.5364,3.5193,3.5364,3.5451,3.5451,3.5451,3.5331,3.5146,3.5034,3.487,3.4689,3.4689,3.4689,3.4668,3.4668,3.4647,3.4626,3.4647,3.4647,3.4626,3.4647,3.4668,3.4668,3.4626,3.4583,3.452,3.452,3.4607,3.4753,3.5114,3.5343,3.5705,3.6793,3.6632,3.6086,3.6101,3.6151,3.6411,3.7198,3.7939,3.8482,3.8494,3.85,3.8674,3.9339,3.9365,3.9463,3.9986,3.9998,3.9867,3.9717,3.9623,3.9502,3.9324,3.9219,3.9156,3.9101,3.9101,3.9101,3.9101,3.9101,3.9101,3.9101,3.8785,3.8544,3.8412,3.7324,3.632,3.5432,3.5412,3.5398,3.533,3.5457,3.5611,3.5794,3.5814,3.5894,3.6001,3.6001,3.6004,3.5994,3.6005,3.6001,3.6004,3.6003,3.5996,3.599,3.6007,3.6007,3.6001,3.601,3.5991,3.5991,3.5176,3.5176,3.5174,3.527,3.5422,3.5416,3.5181,3.5258,3.5288,3.513,3.5114,3.5162,3.5331,3.5345,3.5405,3.5577,3.5608,3.5521,3.5345,3.5345,3.5438,3.5608,3.5651,3.5631,3.5608,3.5631,3.5643,3.5643,3.5643,3.5553,3.5345,3.5336,3.5212,3.503,3.503,3.5015,3.5018,3.5018,3.4889,3.4713,3.487,3.4851,3.4713,3.487,3.4944,3.4926,3.4753,3.4693,3.4672,3.4672,3.4674,3.4906,3.6012,3.6374,3.6618,3.776,3.7987,3.7918,3.7975,3.8069,3.8183,3.8285,3.837,3.8591,3.9246,3.9353,3.9495,4.0174,4.0226,4.0112,4.0101,3.9998,3.9867,3.9717,3.9781,3.9712,3.935,3.9376,3.935,3.9129,3.9101,3.9101,3.9101,3.9101,3.9101,3.9101,3.8785,3.8279,3.7539,3.6979,3.632,3.5512,3.5474,3.5493,3.546,3.5607,3.5669,3.5724,3.5889,3.5974,3.6001,3.6007,3.5991,3.5994,3.5994,3.5994,3.5991,3.5994,3.5994,3.6007,3.5991,3.5991,3.5991,3.5991,3.5991,3.5991,3.5088,3.5119,3.5184,3.534,3.5424,3.5483,3.5424,3.5509,3.5521,3.5438,3.5424,3.5451,3.5553,3.5565,3.5608,3.5684,3.5704,3.5646,3.556,3.5562,3.5589,3.5704,3.5704,3.5704,3.5704,3.5704,3.5704,3.5704,3.5704,3.5608,3.5391,3.5397,3.5296,3.5083,3.5066,3.5049,3.5051,3.5051,3.4962,3.487,3.4962,3.4944,3.487,3.4962,3.4997,3.498,3.4889,3.4851,3.487,3.5343,3.5553,3.5798,3.685,3.7271,3.756,3.8642,3.8696,3.8408,3.8458,3.8843,3.9225,3.9169,3.9442,3.9835,4.0158,4.0133,4.0111,4.0338,4.0283,4.0158,4.002,3.9935,3.9889,3.9826,3.9804,3.9693,3.9433,3.9401,3.9324,3.9129,3.9101,3.9101,3.9101,3.9219,3.9111,3.8663,3.8726,3.8385,3.7509,3.6971,3.6526,3.6161,3.5738,3.5515,3.5553,3.566,3.5749,3.5813,3.5938,3.6007,3.6007,3.5991,3.5991,3.5991,3.5991,3.5991,3.5991,3.5991,3.5991,3.5991,3.5991,3.5991,3.5991,3.5991,3.5991,3.5991,3.5389,3.5264,3.5224,3.5418,3.5464,3.5521,3.5673,3.5704,3.5704,3.5704,3.5704,3.5695,3.5697,3.5707,3.5718,3.5718,3.5728,3.5717,3.5725,3.5726,3.5728,3.5728,3.5728,3.5728,3.5728,3.5718,3.5707,3.5707,3.5695,3.562,3.5451,3.5463,3.536,3.5203,3.5152,3.51,3.5049,3.5102,3.5049,3.4981,3.5069,3.5086,3.5051,3.5086,3.5122,3.5102,3.5069,3.5131,3.536,3.6025,3.6458,3.685,3.7781,3.8185,3.8507,3.9506,3.9461,3.9105,3.9127,3.9589,4.0067,4.0012,4.0443,4.0878,4.0752,4.0607,4.0446,4.0283,4.0157,4.006,3.9914,3.9889,3.9889,3.9889,3.9781,3.967,3.9526,3.9383,3.9245,3.9129,3.9101,3.9027,3.8841,3.9051,3.8845,3.7995,3.8172,3.8019,3.737,3.675,3.643,3.643,3.5834,3.5534,3.5607,3.5669,3.5779,3.5889,3.5978,3.5991,3.5991,3.5991,3.5991,3.5991,3.5991,3.5991,3.5991,3.5991,3.5991,3.5991,3.5991,3.5991,3.5991,3.5991,3.5991,3.5991,3.6526,3.5935,3.5451,3.5631,3.5673,3.5673,3.5704,3.5704,3.5704,3.5704,3.5704,3.5707,3.5696,3.5704,3.5718,3.5794,3.58,3.578,3.5786,3.578,3.58,3.58,3.58,3.58,3.58,3.5733,3.5704,3.5704,3.5698,3.5673,3.5589,3.5589,3.5584,3.5547,3.5566,3.5416,3.52,3.5383,3.5251,3.4926,3.5304,3.5354,3.5209,3.5383,3.546,3.5432,3.5258,3.5651,3.6298,3.6375,3.6929,3.7783,3.885,3.92,3.9408,4.0413,4.0794,4.0915,4.0976,4.0953,4.0912,4.0914,4.0898,4.0819,4.0582,4.0511,4.0415,4.0177,4.0101,4.006,3.9914,3.9889,3.9889,3.9889,3.9781,3.967,3.9526,3.9383,3.9245,3.9129,3.9101,3.8804,3.8061,3.8165,3.7976,3.715,3.6786,3.6551,3.6493,3.5925,3.5603,3.5603,3.5532,3.5534,3.5607,3.5669,3.5779,3.5889,3.5978,3.5991,3.5991,3.5991,3.5991,3.5991,3.5991,3.5991,3.5991,3.5991,3.5991,3.5991,3.5991,3.5991,3.5991,3.5991,3.5991,3.5988,3.743,3.7282,3.7153,3.724,3.7251,3.7254,3.7318,3.6861,3.653,3.6569,3.6102,3.576,3.5749,3.5756,3.5762,3.5811,3.5791,3.5827,3.5853,3.5857,3.5845,3.5791,3.5791,3.5791,3.5791,3.5721,3.5693,3.5693,3.5698,3.5673,3.5601,3.5608,3.5584,3.5547,3.5541,3.5488,3.5379,3.5468,3.5412,3.5293,3.5432,3.5446,3.5383,3.5479,3.5493,3.5551,3.5974,3.6324,3.6746,3.782,3.8431,3.8834,3.9762,4.0027,4.014,4.0645,4.0935,4.111,4.1172,4.1099,4.1008,4.1,4.0915,4.08,4.0713,4.053,4.0351,4.0248,4.0081,3.9956,3.9911,3.9889,3.9889,3.9889,3.9867,3.9781,3.9647,3.9526,3.9357,3.9245,3.871,3.8263,3.8084,3.7826,3.7364,3.6691,3.6604,3.6366,3.5867,3.5619,3.5493,3.5493,3.5493,3.5534,3.5607,3.5669,3.5779,3.5889,3.5978,3.5991,3.5991,3.5991,3.5991,3.5991,3.5991,3.5991,3.5991,3.5991,3.5991,3.5991,3.5991,3.5991,3.5991,3.5947,3.5938,3.5909,3.8387,3.8292,3.8199,3.8199,3.8214,3.8248,3.8285,3.7813,3.7454,3.75,3.698,3.6621,3.665,3.6655,3.6664,3.6676,3.668,3.671,3.6745,3.6747,3.6487,3.5896,3.5857,3.5857,3.5857,3.5805,3.5742,3.5741,3.5708,3.5667,3.5601,3.5596,3.556,3.5502,3.5501,3.546,3.5417,3.546,3.546,3.5417,3.546,3.5493,3.5493,3.5493,3.5493,3.5622,3.6411,3.6892,3.7334,3.8796,3.9469,3.9758,4.0315,4.0545,4.061,4.0761,4.0935,4.1108,4.1151,4.1097,4.1037,4.1019,4.0907,4.079,4.0713,4.053,4.0351,4.0248,4.0081,3.9956,3.9911,3.9889,3.9889,3.9889,3.9848,3.9804,3.9717,3.9325,3.9033,3.8932,3.8145,3.7555,3.7464,3.7194,3.673,3.6073,3.6213,3.6084,3.5532,3.5493,3.5493,3.5493,3.5493,3.5534,3.5607,3.5641,3.5721,3.584,3.5938,3.5978,3.5978,3.5988,3.5991,3.5991,3.5991,3.5991,3.5991,3.5991,3.5991,3.5991,3.5981,3.5978,3.5951,3.5864,3.584,3.5827,3.947,3.8818,3.8218,3.8218,3.8287,3.8322,3.8322,3.8371,3.8408,3.841,3.8402,3.8429,3.8498,3.8509,3.8524,3.8594,3.8594,3.8594,3.8594,3.8594,3.7832,3.6094,3.6016,3.6016,3.5996,3.5927,3.5877,3.5791,3.5741,3.5679,3.5601,3.5596,3.556,3.5502,3.5501,3.5403,3.5226,3.5417,3.5369,3.5226,3.5417,3.5493,3.5493,3.5493,3.5493,3.5622,3.643,3.7276,3.8142,3.9008,3.9835,4.0489,4.0489,4.0642,4.0791,4.0799,4.0944,4.1108,4.1091,4.1091,4.1081,4.1025,4.0907,4.0746,4.0559,4.0511,4.0415,4.0158,4.0101,4.006,3.9914,3.9889,3.9889,3.9889,3.9785,3.9675,3.9675,3.8788,3.8091,3.8091,3.7435,3.6681,3.5878,3.616,3.6071,3.5267,3.5403,3.5493,3.5493,3.5493,3.5493,3.5493,3.5493,3.5534,3.5607,3.5607,3.5621,3.5702,3.584,3.5908,3.5889,3.5978,3.5991,3.5991,3.5991,3.5991,3.5991,3.5991,3.5991,3.5988,3.5929,3.5908,3.5883,3.5745,3.5693,3.5685,4.0404,4.0191,4.0053,4.0091,4.0112,4.0163,4.0242,3.975,3.9392,3.9454,3.891,3.8543,3.8567,3.8571,3.8573,3.8594,3.8594,3.8594,3.8594,3.8594,3.8379,3.7851,3.7246,3.6621,3.6016,3.5927,3.5873,3.5794,3.5737,3.564,3.554,3.5528,3.5522,3.5501,3.5507,3.5479,3.5417,3.546,3.5479,3.5417,3.5479,3.5493,3.5493,3.5493,3.5853,3.6449,3.7315,3.8161,3.9027,3.9854,4.0296,4.0489,4.0489,4.0642,4.0791,4.0799,4.0939,4.1103,4.109,4.1073,4.103,4.0992,4.0932,4.0837,4.0739,4.0607,4.0446,4.0283,4.0177,4.006,3.9914,3.9889,3.9721,3.9153,3.9018,3.8788,3.8182,3.7818,3.7605,3.7599,3.6871,3.6328,3.6217,3.5812,3.5509,3.5422,3.5479,3.5493,3.5493,3.5493,3.5493,3.5493,3.5493,3.5501,3.5522,3.5581,3.5621,3.5693,3.5745,3.5753,3.5753,3.5781,3.5833,3.5934,3.5934,3.5934,3.5934,3.5934,3.5869,3.5788,3.5767,3.5753,3.5745,3.566,3.564,3.562,4.079,4.082,4.0856,4.0898,4.0949,4.1,4.1081,4.0684,4.0361,4.0369,3.9919,3.9587,3.9586,3.9588,3.9589,3.9589,3.9589,3.9589,3.9589,3.9589,3.9452,3.914,3.8612,3.7753,3.6543,3.6477,3.6258,3.5836,3.5795,3.5721,3.562,3.5554,3.5526,3.554,3.5515,3.5493,3.5493,3.5493,3.5493,3.5493,3.5493,3.5493,3.5532,3.5853,3.6276,3.6873,3.8084,3.8854,3.9411,4.0219,4.0489,4.0431,4.0123,4.0121,4.0179,3.9896,3.9928,4.004,4.0094,4.0078,4.0045,3.9984,4.0451,4.0878,4.0827,4.07,4.0482,3.9996,3.9804,3.9547,3.9087,3.899,3.8798,3.8283,3.8229,3.8079,3.7566,3.7166,3.6958,3.6996,3.6272,3.5793,3.5916,3.556,3.5369,3.5493,3.5493,3.5493,3.5493,3.5493,3.5493,3.5493,3.5493,3.5493,3.5493,3.5547,3.5593,3.562,3.5641,3.566,3.566,3.5685,3.5745,3.5814,3.5814,3.5814,3.5814,3.5814,3.5767,3.5693,3.5678,3.566,3.565,3.5593,3.5546,3.5565,4.079,4.0856,4.0888,4.0897,4.1006,4.1088,4.1091,4.1147,4.1171,4.1112,4.1091,4.109,4.1107,4.1107,4.1107,4.1107,4.1107,4.1107,4.1107,4.1107,4.0775,4.0033,4.0013,3.9235,3.7577,3.7456,3.6994,3.6118,3.604,3.5977,3.5891,3.5708,3.56,3.56,3.5515,3.5493,3.5493,3.5493,3.5493,3.5493,3.5493,3.5532,3.5699,3.643,3.6796,3.7142,3.8719,3.9354,3.9508,4.0239,4.045,4.0258,3.9527,3.9295,3.9143,3.8499,3.8351,3.844,3.857,3.8593,3.8572,3.8434,3.9544,4.0655,4.0575,4.0558,4.0301,3.9383,3.9089,3.8712,3.7791,3.7622,3.7547,3.7337,3.7414,3.7469,3.7393,3.6671,3.6176,3.6298,3.5659,3.5232,3.5232,3.5379,3.5493,3.5493,3.5493,3.5493,3.5493,3.5493,3.5493,3.5493,3.557,3.5622,3.5622,3.568,3.5661,3.5507,3.5558,3.5596,3.5596,3.5728,3.5793,3.5801,3.5879,3.5879,3.5801,3.5801,3.5754,3.5687,3.5609,3.5596,3.5574,3.5509,3.5493,3.5493,4.079,4.0815,4.084,4.0898,4.0978,4.1049,4.1087,4.111,4.1129,4.1108,4.1105,4.1101,4.1101,4.1105,4.1107,4.1107,4.1107,4.1107,4.1107,4.111,4.1013,4.0857,4.0837,4.0369,3.9354,3.8667,3.8166,3.7864,3.7162,3.6818,3.6709,3.597,3.5599,3.5588,3.5534,3.5493,3.5493,3.5493,3.5493,3.5493,3.5493,3.5892,3.6469,3.6642,3.7546,3.8796,3.9161,3.97,4.0258,4.0431,4.0065,3.9527,3.9354,3.889,3.8369,3.8324,3.8338,3.8428,3.8568,3.8592,3.8574,3.8492,3.8717,3.8906,3.8786,3.876,3.8665,3.8348,3.8248,3.8131,3.7833,3.7761,3.7515,3.681,3.6712,3.6517,3.5902,3.571,3.5638,3.5619,3.5559,3.5489,3.5443,3.5468,3.5493,3.5493,3.5493,3.5493,3.5493,3.5493,3.5493,3.5493,3.6122,3.6449,3.6449,3.7123,3.6796,3.5507,3.5515,3.5528,3.5547,3.619,3.6535,3.6665,3.7312,3.7215,3.6646,3.6646,3.6203,3.5547,3.5522,3.5528,3.5528,3.5507,3.5493,3.5493,4.0723,4.084,4.0918,4.0947,4.0996,4.1062,4.1091,4.111,4.1107,4.1107,4.1103,4.1099,4.1099,4.1099,4.1103,4.1108,4.1093,4.1094,4.1054,4.1053,4.1032,4.1008,4.1033,4.0859,4.043,4.0015,3.9379,3.8498,3.803,3.78,3.774,3.6771,3.6298,3.6251,3.5755,3.5522,3.5493,3.5493,3.5493,3.5532,3.593,3.6334,3.6796,3.7623,3.8507,3.9354,3.9719,4.0142,4.0431,4.0046,3.9668,3.9191,3.8344,3.7797,3.7478,3.7139,3.7085,3.7147,3.7315,3.7362,3.7344,3.729,3.7226,3.7395,3.8093,3.8214,3.8059,3.7585,3.745,3.728,3.6786,3.704,3.716,3.6635,3.6915,3.7074,3.6652,3.665,3.6691,3.673,3.6768,3.6775,3.6702,3.6694,3.6699,3.6699,3.6699,3.6699,3.6699,3.6699,3.6699,3.6699,3.7103,3.7315,3.7315,3.7777,3.7565,3.6699,3.6699,3.6699,3.6719,3.7142,3.7357,3.7443,3.7868,3.781,3.7424,3.7424,3.7134,3.6661,3.6238,3.6084,3.6045,3.5641,3.5493,3.5493,4.0427,4.0816,4.1011,4.1003,4.1058,4.109,4.109,4.1108,4.1105,4.1105,4.1101,4.1097,4.1097,4.1097,4.1101,4.1093,4.1092,4.1084,4.1016,4.1013,4.0987,4.0933,4.0982,4.1012,4.1013,4.1071,4.0416,3.9027,3.8871,3.881,3.8785,3.7786,3.73,3.7178,3.6376,3.5982,3.593,3.593,3.593,3.5988,3.6661,3.7007,3.7296,3.8738,3.9392,3.9585,4.0258,4.0412,4.0181,3.9508,3.9138,3.8679,3.7198,3.6723,3.6549,3.5912,3.5735,3.5813,3.6124,3.6229,3.623,3.6337,3.6348,3.67,3.8026,3.8161,3.7835,3.7232,3.7076,3.6832,3.61,3.6563,3.6999,3.6882,3.753,3.8028,3.8028,3.8028,3.8093,3.8194,3.8138,3.8073,3.8022,3.8007,3.8007,3.8007,3.8007,3.8007,3.8007,3.8007,3.8007,3.8007,3.8142,3.8219,3.8219,3.8354,3.843,3.843,3.843,3.8277,3.8007,3.8142,3.8219,3.8238,3.8373,3.8354,3.8219,3.8219,3.8123,3.793,3.7199,3.693,3.6853,3.618,3.593,3.593,3.9644,4.0385,4.0998,4.1003,4.1062,4.1101,4.1101,4.1101,4.1099,4.1099,4.1094,4.1091,4.1091,4.1103,4.1093,4.1091,4.1108,4.1107,4.1086,4.1082,4.1077,4.1074,4.1087,4.1091,4.1092,4.1092,4.0984,4.0759,4.0018,3.9644,3.9624,3.8668,3.8195,3.811,3.7868,3.772,3.7661,3.7661,3.7661,3.7661,3.7777,3.8277,3.8969,3.92,3.9719,4.0335,4.045,4.0046,3.945,3.9335,3.831,3.703,3.6902,3.6369,3.5785,3.584,3.588,3.6055,3.6908,3.7127,3.7304,3.8047,3.8196,3.8219,3.8424,3.7793,3.7327,3.7912,3.8013,3.7962,3.7866,3.7924,3.8001,3.7989,3.8098,3.8175,3.8175,3.8175,3.8175,3.8201,3.8099,3.8012,3.7988,3.8007,3.8007,3.8007,3.8007,3.8007,3.8007,3.8007,3.8007,3.8007,3.8719,3.9123,3.9123,3.9796,4.0162,4.0162,4.0162,3.9392,3.8027,3.8777,3.9123,3.9161,3.9854,3.9758,3.9123,3.9123,3.8681,3.7988,3.7873,3.7815,3.7815,3.77,3.7661,3.7661,3.9513,4.0364,4.1018,4.1055,4.1072,4.1099,4.1099,4.1097,4.1094,4.1094,4.1091,4.1094,4.1103,4.1093,4.1101,4.1094,4.1097,4.1081,4.1047,4.1042,4.1006,4.0948,4.1008,4.1023,4.0994,4.1054,4.1108,4.1108,4.0704,4.0525,4.0503,3.9611,3.9146,3.9064,3.8502,3.8239,3.8175,3.8175,3.8175,3.8214,3.8698,3.9076,3.9405,3.9888,4.027,4.0489,4.0489,4.0258,3.9892,3.945,3.8816,3.8132,3.7723,3.7353,3.7132,3.7266,3.7288,3.7401,3.7883,3.8025,3.8123,3.8496,3.8573,3.8666,3.9122,3.8853,3.8471,3.8287,3.8268,3.8248,3.821,3.8605,3.8934,3.8934,3.9321,3.9649,3.9649,3.9649,3.9618,3.9554,3.9488,3.9446,3.9407,3.9392,3.9392,3.9392,3.9392,3.9392,3.9392,3.9392,3.9392,3.9392,3.9758,3.9969,3.9969,4.0315,4.0489,4.0489,4.0489,4.0104,3.9411,3.9777,3.9969,3.9988,4.0335,4.0296,3.9969,3.9969,3.9738,3.9354,3.8892,3.843,3.8007,3.8007,3.8007,3.8007]}]]